<?xml version="1.0" encoding="UTF-8" standalone="no" ?>
<gpx xmlns="http://www.topografix.com/GPX/1/1" xmlns:xsi="http://www.w3.org/2001/XMLSchema-instance" xsi:schemaLocation="http://www.topografix.com/GPX/1/1 http://www.topografix.com/GPX/1/1/gpx.xsd" version="1.1" creator="VisuGPX - https://www.visugpx.com">
  <metadata>
    <name>04-J-La crête de Crémon</name>
    <desc><![CDATA[parcours aérien de 15 km et 550 m de dénivelé
 réalisé le jeudi 6 juin 2013]]></desc>
  </metadata>
  <trk>
    <name><![CDATA[6juin 2013 le Cremon]]></name>
    <trkseg>
      <trkpt lat="43.88001" lon="6.62792">
        <ele>1518.54</ele>
        <time>2011-08-12T09:27:10Z</time>
      </trkpt>
      <trkpt lat="43.88001" lon="6.62791">
        <ele>1518.06</ele>
        <time>2011-08-12T09:27:54Z</time>
      </trkpt>
      <trkpt lat="43.88" lon="6.62791">
        <ele>1520.94</ele>
        <time>2011-08-12T09:28:32Z</time>
      </trkpt>
      <trkpt lat="43.87999" lon="6.62791">
        <ele>1518.06</ele>
        <time>2011-08-12T09:28:43Z</time>
      </trkpt>
      <trkpt lat="43.87999" lon="6.6279">
        <ele>1519.02</ele>
        <time>2011-08-12T09:29:10Z</time>
      </trkpt>
      <trkpt lat="43.87999" lon="6.62791">
        <ele>1518.06</ele>
        <time>2011-08-12T09:29:36Z</time>
      </trkpt>
      <trkpt lat="43.87999" lon="6.62791">
        <ele>1512.77</ele>
        <time>2011-08-12T09:29:41Z</time>
      </trkpt>
      <trkpt lat="43.87999" lon="6.62791">
        <ele>1518.54</ele>
        <time>2011-08-12T09:29:42Z</time>
      </trkpt>
      <trkpt lat="43.87999" lon="6.62791">
        <ele>1522.39</ele>
        <time>2011-08-12T09:29:43Z</time>
      </trkpt>
      <trkpt lat="43.87999" lon="6.62791">
        <ele>1517.58</ele>
        <time>2011-08-12T09:29:44Z</time>
      </trkpt>
      <trkpt lat="43.88002" lon="6.62793">
        <ele>1519.98</ele>
        <time>2011-08-12T09:29:49Z</time>
      </trkpt>
      <trkpt lat="43.88001" lon="6.62792">
        <ele>1515.66</ele>
        <time>2011-08-12T09:29:58Z</time>
      </trkpt>
      <trkpt lat="43.88001" lon="6.62792">
        <ele>1518.54</ele>
        <time>2011-08-12T09:30:02Z</time>
      </trkpt>
      <trkpt lat="43.88001" lon="6.62792">
        <ele>1520.94</ele>
        <time>2011-08-12T09:30:14Z</time>
      </trkpt>
      <trkpt lat="43.87998" lon="6.6279">
        <ele>1523.35</ele>
        <time>2011-08-12T09:30:20Z</time>
      </trkpt>
      <trkpt lat="43.87996" lon="6.62789">
        <ele>1516.14</ele>
        <time>2011-08-12T09:30:21Z</time>
      </trkpt>
      <trkpt lat="43.87992" lon="6.62787">
        <ele>1521.9</ele>
        <time>2011-08-12T09:30:24Z</time>
      </trkpt>
      <trkpt lat="43.87991" lon="6.62787">
        <ele>1521.9</ele>
        <time>2011-08-12T09:30:25Z</time>
      </trkpt>
      <trkpt lat="43.8799" lon="6.62786">
        <ele>1518.54</ele>
        <time>2011-08-12T09:30:26Z</time>
      </trkpt>
      <trkpt lat="43.87988" lon="6.62788">
        <ele>1516.14</ele>
        <time>2011-08-12T09:30:29Z</time>
      </trkpt>
      <trkpt lat="43.87988" lon="6.62787">
        <ele>1522.39</ele>
        <time>2011-08-12T09:30:32Z</time>
      </trkpt>
      <trkpt lat="43.87987" lon="6.62787">
        <ele>1516.14</ele>
        <time>2011-08-12T09:30:33Z</time>
      </trkpt>
      <trkpt lat="43.87986" lon="6.62786">
        <ele>1511.33</ele>
        <time>2011-08-12T09:30:34Z</time>
      </trkpt>
      <trkpt lat="43.87984" lon="6.62786">
        <ele>1510.85</ele>
        <time>2011-08-12T09:30:36Z</time>
      </trkpt>
      <trkpt lat="43.87982" lon="6.62786">
        <ele>1521.42</ele>
        <time>2011-08-12T09:30:37Z</time>
      </trkpt>
      <trkpt lat="43.87981" lon="6.62786">
        <ele>1518.06</ele>
        <time>2011-08-12T09:30:38Z</time>
      </trkpt>
      <trkpt lat="43.87977" lon="6.62784">
        <ele>1523.83</ele>
        <time>2011-08-12T09:30:42Z</time>
      </trkpt>
      <trkpt lat="43.87973" lon="6.62784">
        <ele>1519.98</ele>
        <time>2011-08-12T09:30:45Z</time>
      </trkpt>
      <trkpt lat="43.87973" lon="6.62783">
        <ele>1525.27</ele>
        <time>2011-08-12T09:30:46Z</time>
      </trkpt>
      <trkpt lat="43.87972" lon="6.62783">
        <ele>1525.75</ele>
        <time>2011-08-12T09:30:47Z</time>
      </trkpt>
      <trkpt lat="43.8797" lon="6.62783">
        <ele>1518.54</ele>
        <time>2011-08-12T09:30:48Z</time>
      </trkpt>
      <trkpt lat="43.87969" lon="6.62783">
        <ele>1515.18</ele>
        <time>2011-08-12T09:30:49Z</time>
      </trkpt>
      <trkpt lat="43.87968" lon="6.62783">
        <ele>1509.89</ele>
        <time>2011-08-12T09:30:50Z</time>
      </trkpt>
      <trkpt lat="43.87967" lon="6.62782">
        <ele>1509.89</ele>
        <time>2011-08-12T09:30:51Z</time>
      </trkpt>
      <trkpt lat="43.87966" lon="6.62782">
        <ele>1514.69</ele>
        <time>2011-08-12T09:30:52Z</time>
      </trkpt>
      <trkpt lat="43.87966" lon="6.62781">
        <ele>1519.02</ele>
        <time>2011-08-12T09:30:53Z</time>
      </trkpt>
      <trkpt lat="43.87964" lon="6.62781">
        <ele>1519.5</ele>
        <time>2011-08-12T09:30:55Z</time>
      </trkpt>
      <trkpt lat="43.87961" lon="6.62781">
        <ele>1510.37</ele>
        <time>2011-08-12T09:30:58Z</time>
      </trkpt>
      <trkpt lat="43.87959" lon="6.62781">
        <ele>1520.46</ele>
        <time>2011-08-12T09:31:00Z</time>
      </trkpt>
      <trkpt lat="43.87958" lon="6.62781">
        <ele>1519.5</ele>
        <time>2011-08-12T09:31:01Z</time>
      </trkpt>
      <trkpt lat="43.87957" lon="6.6278">
        <ele>1513.73</ele>
        <time>2011-08-12T09:31:02Z</time>
      </trkpt>
      <trkpt lat="43.87954" lon="6.62778">
        <ele>1519.5</ele>
        <time>2011-08-12T09:31:06Z</time>
      </trkpt>
      <trkpt lat="43.87954" lon="6.62777">
        <ele>1510.37</ele>
        <time>2011-08-12T09:31:07Z</time>
      </trkpt>
      <trkpt lat="43.87954" lon="6.62776">
        <ele>1512.77</ele>
        <time>2011-08-12T09:31:08Z</time>
      </trkpt>
      <trkpt lat="43.87954" lon="6.62776">
        <ele>1520.46</ele>
        <time>2011-08-12T09:31:09Z</time>
      </trkpt>
      <trkpt lat="43.87954" lon="6.62775">
        <ele>1514.69</ele>
        <time>2011-08-12T09:31:10Z</time>
      </trkpt>
      <trkpt lat="43.87953" lon="6.62775">
        <ele>1519.02</ele>
        <time>2011-08-12T09:31:14Z</time>
      </trkpt>
      <trkpt lat="43.87953" lon="6.62774">
        <ele>1518.06</ele>
        <time>2011-08-12T09:31:15Z</time>
      </trkpt>
      <trkpt lat="43.87951" lon="6.62773">
        <ele>1516.14</ele>
        <time>2011-08-12T09:31:18Z</time>
      </trkpt>
      <trkpt lat="43.8795" lon="6.62772">
        <ele>1512.29</ele>
        <time>2011-08-12T09:31:19Z</time>
      </trkpt>
      <trkpt lat="43.8795" lon="6.62772">
        <ele>1524.79</ele>
        <time>2011-08-12T09:31:20Z</time>
      </trkpt>
      <trkpt lat="43.87949" lon="6.62771">
        <ele>1518.54</ele>
        <time>2011-08-12T09:31:21Z</time>
      </trkpt>
      <trkpt lat="43.87947" lon="6.62769">
        <ele>1512.29</ele>
        <time>2011-08-12T09:31:24Z</time>
      </trkpt>
      <trkpt lat="43.87946" lon="6.62768">
        <ele>1517.58</ele>
        <time>2011-08-12T09:31:25Z</time>
      </trkpt>
      <trkpt lat="43.87945" lon="6.62767">
        <ele>1525.75</ele>
        <time>2011-08-12T09:31:29Z</time>
      </trkpt>
      <trkpt lat="43.87945" lon="6.62766">
        <ele>1517.58</ele>
        <time>2011-08-12T09:31:30Z</time>
      </trkpt>
      <trkpt lat="43.87945" lon="6.62765">
        <ele>1512.77</ele>
        <time>2011-08-12T09:31:31Z</time>
      </trkpt>
      <trkpt lat="43.87945" lon="6.62764">
        <ele>1516.62</ele>
        <time>2011-08-12T09:31:32Z</time>
      </trkpt>
      <trkpt lat="43.87945" lon="6.62763">
        <ele>1519.02</ele>
        <time>2011-08-12T09:31:45Z</time>
      </trkpt>
      <trkpt lat="43.87946" lon="6.62761">
        <ele>1515.66</ele>
        <time>2011-08-12T09:31:52Z</time>
      </trkpt>
      <trkpt lat="43.87946" lon="6.62761">
        <ele>1521.9</ele>
        <time>2011-08-12T09:31:54Z</time>
      </trkpt>
      <trkpt lat="43.87946" lon="6.62759">
        <ele>1516.62</ele>
        <time>2011-08-12T09:31:55Z</time>
      </trkpt>
      <trkpt lat="43.87947" lon="6.62754">
        <ele>1518.06</ele>
        <time>2011-08-12T09:31:59Z</time>
      </trkpt>
      <trkpt lat="43.87948" lon="6.62749">
        <ele>1519.98</ele>
        <time>2011-08-12T09:32:05Z</time>
      </trkpt>
      <trkpt lat="43.87949" lon="6.62739">
        <ele>1523.83</ele>
        <time>2011-08-12T09:32:13Z</time>
      </trkpt>
      <trkpt lat="43.87949" lon="6.62738">
        <ele>1521.42</ele>
        <time>2011-08-12T09:32:14Z</time>
      </trkpt>
      <trkpt lat="43.87949" lon="6.62736">
        <ele>1517.58</ele>
        <time>2011-08-12T09:32:16Z</time>
      </trkpt>
      <trkpt lat="43.87949" lon="6.62732">
        <ele>1525.75</ele>
        <time>2011-08-12T09:32:20Z</time>
      </trkpt>
      <trkpt lat="43.87949" lon="6.62732">
        <ele>1521.42</ele>
        <time>2011-08-12T09:32:21Z</time>
      </trkpt>
      <trkpt lat="43.87951" lon="6.62724">
        <ele>1521.9</ele>
        <time>2011-08-12T09:32:34Z</time>
      </trkpt>
      <trkpt lat="43.87952" lon="6.62718">
        <ele>1522.87</ele>
        <time>2011-08-12T09:32:39Z</time>
      </trkpt>
      <trkpt lat="43.87953" lon="6.62703">
        <ele>1524.79</ele>
        <time>2011-08-12T09:32:51Z</time>
      </trkpt>
      <trkpt lat="43.87952" lon="6.62702">
        <ele>1524.79</ele>
        <time>2011-08-12T09:32:52Z</time>
      </trkpt>
      <trkpt lat="43.87952" lon="6.62697">
        <ele>1525.75</ele>
        <time>2011-08-12T09:33:02Z</time>
      </trkpt>
      <trkpt lat="43.87952" lon="6.62693">
        <ele>1526.71</ele>
        <time>2011-08-12T09:33:04Z</time>
      </trkpt>
      <trkpt lat="43.87954" lon="6.62686">
        <ele>1526.71</ele>
        <time>2011-08-12T09:33:08Z</time>
      </trkpt>
      <trkpt lat="43.87955" lon="6.62685">
        <ele>1526.23</ele>
        <time>2011-08-12T09:33:11Z</time>
      </trkpt>
      <trkpt lat="43.87957" lon="6.62679">
        <ele>1528.15</ele>
        <time>2011-08-12T09:33:14Z</time>
      </trkpt>
      <trkpt lat="43.87958" lon="6.62673">
        <ele>1528.63</ele>
        <time>2011-08-12T09:33:26Z</time>
      </trkpt>
      <trkpt lat="43.87958" lon="6.62669">
        <ele>1527.67</ele>
        <time>2011-08-12T09:33:30Z</time>
      </trkpt>
      <trkpt lat="43.87956" lon="6.62662">
        <ele>1529.59</ele>
        <time>2011-08-12T09:33:41Z</time>
      </trkpt>
      <trkpt lat="43.87956" lon="6.62662">
        <ele>1528.15</ele>
        <time>2011-08-12T09:33:48Z</time>
      </trkpt>
      <trkpt lat="43.87956" lon="6.62662">
        <ele>1531.52</ele>
        <time>2011-08-12T09:33:49Z</time>
      </trkpt>
      <trkpt lat="43.87956" lon="6.62662">
        <ele>1529.11</ele>
        <time>2011-08-12T09:33:50Z</time>
      </trkpt>
      <trkpt lat="43.87956" lon="6.62659">
        <ele>1532</ele>
        <time>2011-08-12T09:34:03Z</time>
      </trkpt>
      <trkpt lat="43.87956" lon="6.62658">
        <ele>1532</ele>
        <time>2011-08-12T09:34:13Z</time>
      </trkpt>
      <trkpt lat="43.8795" lon="6.62652">
        <ele>1532</ele>
        <time>2011-08-12T09:34:27Z</time>
      </trkpt>
      <trkpt lat="43.87934" lon="6.62638">
        <ele>1535.36</ele>
        <time>2011-08-12T09:34:36Z</time>
      </trkpt>
      <trkpt lat="43.87932" lon="6.62636">
        <ele>1532.48</ele>
        <time>2011-08-12T09:34:37Z</time>
      </trkpt>
      <trkpt lat="43.87928" lon="6.62634">
        <ele>1535.36</ele>
        <time>2011-08-12T09:34:40Z</time>
      </trkpt>
      <trkpt lat="43.87926" lon="6.62633">
        <ele>1534.88</ele>
        <time>2011-08-12T09:34:41Z</time>
      </trkpt>
      <trkpt lat="43.87921" lon="6.62629">
        <ele>1534.4</ele>
        <time>2011-08-12T09:34:45Z</time>
      </trkpt>
      <trkpt lat="43.87919" lon="6.62626">
        <ele>1536.32</ele>
        <time>2011-08-12T09:35:03Z</time>
      </trkpt>
      <trkpt lat="43.87919" lon="6.62626">
        <ele>1532</ele>
        <time>2011-08-12T09:35:06Z</time>
      </trkpt>
      <trkpt lat="43.87919" lon="6.62626">
        <ele>1534.4</ele>
        <time>2011-08-12T09:35:07Z</time>
      </trkpt>
      <trkpt lat="43.87915" lon="6.62622">
        <ele>1538.25</ele>
        <time>2011-08-12T09:35:09Z</time>
      </trkpt>
      <trkpt lat="43.87913" lon="6.62619">
        <ele>1537.29</ele>
        <time>2011-08-12T09:35:14Z</time>
      </trkpt>
      <trkpt lat="43.87912" lon="6.62618">
        <ele>1541.61</ele>
        <time>2011-08-12T09:35:30Z</time>
      </trkpt>
      <trkpt lat="43.87912" lon="6.62618">
        <ele>1537.77</ele>
        <time>2011-08-12T09:35:33Z</time>
      </trkpt>
      <trkpt lat="43.87912" lon="6.62618">
        <ele>1541.61</ele>
        <time>2011-08-12T09:35:34Z</time>
      </trkpt>
      <trkpt lat="43.87906" lon="6.62615">
        <ele>1541.61</ele>
        <time>2011-08-12T09:35:42Z</time>
      </trkpt>
      <trkpt lat="43.87903" lon="6.62614">
        <ele>1540.65</ele>
        <time>2011-08-12T09:35:44Z</time>
      </trkpt>
      <trkpt lat="43.87902" lon="6.62615">
        <ele>1536.8</ele>
        <time>2011-08-12T09:35:47Z</time>
      </trkpt>
      <trkpt lat="43.87898" lon="6.62613">
        <ele>1541.13</ele>
        <time>2011-08-12T09:35:49Z</time>
      </trkpt>
      <trkpt lat="43.87889" lon="6.62608">
        <ele>1542.57</ele>
        <time>2011-08-12T09:35:56Z</time>
      </trkpt>
      <trkpt lat="43.87885" lon="6.62607">
        <ele>1543.05</ele>
        <time>2011-08-12T09:36:00Z</time>
      </trkpt>
      <trkpt lat="43.87884" lon="6.62606">
        <ele>1542.09</ele>
        <time>2011-08-12T09:36:03Z</time>
      </trkpt>
      <trkpt lat="43.87884" lon="6.62606">
        <ele>1541.61</ele>
        <time>2011-08-12T09:36:04Z</time>
      </trkpt>
      <trkpt lat="43.87878" lon="6.62603">
        <ele>1546.42</ele>
        <time>2011-08-12T09:36:07Z</time>
      </trkpt>
      <trkpt lat="43.87878" lon="6.62603">
        <ele>1542.57</ele>
        <time>2011-08-12T09:36:08Z</time>
      </trkpt>
      <trkpt lat="43.87878" lon="6.62603">
        <ele>1544.01</ele>
        <time>2011-08-12T09:36:12Z</time>
      </trkpt>
      <trkpt lat="43.87876" lon="6.62606">
        <ele>1544.5</ele>
        <time>2011-08-12T09:36:16Z</time>
      </trkpt>
      <trkpt lat="43.87871" lon="6.62607">
        <ele>1546.42</ele>
        <time>2011-08-12T09:36:28Z</time>
      </trkpt>
      <trkpt lat="43.87871" lon="6.62607">
        <ele>1542.57</ele>
        <time>2011-08-12T09:36:34Z</time>
      </trkpt>
      <trkpt lat="43.87869" lon="6.6261">
        <ele>1546.42</ele>
        <time>2011-08-12T09:36:36Z</time>
      </trkpt>
      <trkpt lat="43.87868" lon="6.62612">
        <ele>1549.78</ele>
        <time>2011-08-12T09:36:38Z</time>
      </trkpt>
      <trkpt lat="43.87867" lon="6.62613">
        <ele>1546.42</ele>
        <time>2011-08-12T09:36:39Z</time>
      </trkpt>
      <trkpt lat="43.87866" lon="6.62614">
        <ele>1545.94</ele>
        <time>2011-08-12T09:36:41Z</time>
      </trkpt>
      <trkpt lat="43.87861" lon="6.62614">
        <ele>1546.42</ele>
        <time>2011-08-12T09:36:45Z</time>
      </trkpt>
      <trkpt lat="43.87855" lon="6.62613">
        <ele>1545.94</ele>
        <time>2011-08-12T09:36:47Z</time>
      </trkpt>
      <trkpt lat="43.87849" lon="6.62611">
        <ele>1548.82</ele>
        <time>2011-08-12T09:36:54Z</time>
      </trkpt>
      <trkpt lat="43.87849" lon="6.62611">
        <ele>1544.5</ele>
        <time>2011-08-12T09:36:56Z</time>
      </trkpt>
      <trkpt lat="43.87849" lon="6.62611">
        <ele>1545.94</ele>
        <time>2011-08-12T09:36:57Z</time>
      </trkpt>
      <trkpt lat="43.87849" lon="6.62611">
        <ele>1546.9</ele>
        <time>2011-08-12T09:36:59Z</time>
      </trkpt>
      <trkpt lat="43.87849" lon="6.62611">
        <ele>1547.86</ele>
        <time>2011-08-12T09:37:12Z</time>
      </trkpt>
      <trkpt lat="43.8784" lon="6.62612">
        <ele>1542.57</ele>
        <time>2011-08-12T09:37:17Z</time>
      </trkpt>
      <trkpt lat="43.87838" lon="6.62611">
        <ele>1547.86</ele>
        <time>2011-08-12T09:37:18Z</time>
      </trkpt>
      <trkpt lat="43.87835" lon="6.6261">
        <ele>1544.98</ele>
        <time>2011-08-12T09:37:23Z</time>
      </trkpt>
      <trkpt lat="43.87834" lon="6.6261">
        <ele>1549.3</ele>
        <time>2011-08-12T09:37:24Z</time>
      </trkpt>
      <trkpt lat="43.87831" lon="6.62604">
        <ele>1548.82</ele>
        <time>2011-08-12T09:37:29Z</time>
      </trkpt>
      <trkpt lat="43.87832" lon="6.62595">
        <ele>1549.78</ele>
        <time>2011-08-12T09:37:40Z</time>
      </trkpt>
      <trkpt lat="43.87829" lon="6.62587">
        <ele>1548.82</ele>
        <time>2011-08-12T09:37:51Z</time>
      </trkpt>
      <trkpt lat="43.87829" lon="6.62587">
        <ele>1550.74</ele>
        <time>2011-08-12T09:37:55Z</time>
      </trkpt>
      <trkpt lat="43.87829" lon="6.62587">
        <ele>1554.11</ele>
        <time>2011-08-12T09:38:01Z</time>
      </trkpt>
      <trkpt lat="43.87829" lon="6.62587">
        <ele>1553.15</ele>
        <time>2011-08-12T09:38:02Z</time>
      </trkpt>
      <trkpt lat="43.87829" lon="6.62587">
        <ele>1548.34</ele>
        <time>2011-08-12T09:38:04Z</time>
      </trkpt>
      <trkpt lat="43.87829" lon="6.62587">
        <ele>1554.59</ele>
        <time>2011-08-12T09:38:05Z</time>
      </trkpt>
      <trkpt lat="43.87829" lon="6.62587">
        <ele>1551.71</ele>
        <time>2011-08-12T09:38:06Z</time>
      </trkpt>
      <trkpt lat="43.87829" lon="6.62587">
        <ele>1548.82</ele>
        <time>2011-08-12T09:38:07Z</time>
      </trkpt>
      <trkpt lat="43.87829" lon="6.62587">
        <ele>1548.82</ele>
        <time>2011-08-12T09:38:08Z</time>
      </trkpt>
      <trkpt lat="43.87829" lon="6.62587">
        <ele>1549.78</ele>
        <time>2011-08-12T09:38:23Z</time>
      </trkpt>
      <trkpt lat="43.87829" lon="6.62588">
        <ele>1553.63</ele>
        <time>2011-08-12T09:38:43Z</time>
      </trkpt>
      <trkpt lat="43.87829" lon="6.62588">
        <ele>1549.78</ele>
        <time>2011-08-12T09:38:44Z</time>
      </trkpt>
      <trkpt lat="43.87829" lon="6.62588">
        <ele>1551.22</ele>
        <time>2011-08-12T09:38:47Z</time>
      </trkpt>
      <trkpt lat="43.87829" lon="6.62588">
        <ele>1549.78</ele>
        <time>2011-08-12T09:38:49Z</time>
      </trkpt>
      <trkpt lat="43.87829" lon="6.62588">
        <ele>1550.74</ele>
        <time>2011-08-12T09:38:59Z</time>
      </trkpt>
      <trkpt lat="43.87828" lon="6.62587">
        <ele>1552.67</ele>
        <time>2011-08-12T09:39:14Z</time>
      </trkpt>
      <trkpt lat="43.87828" lon="6.62587">
        <ele>1549.3</ele>
        <time>2011-08-12T09:39:18Z</time>
      </trkpt>
      <trkpt lat="43.87829" lon="6.62586">
        <ele>1551.71</ele>
        <time>2011-08-12T09:40:05Z</time>
      </trkpt>
      <trkpt lat="43.87829" lon="6.62571">
        <ele>1552.67</ele>
        <time>2011-08-12T09:40:16Z</time>
      </trkpt>
      <trkpt lat="43.87826" lon="6.62563">
        <ele>1553.15</ele>
        <time>2011-08-12T09:40:27Z</time>
      </trkpt>
      <trkpt lat="43.87826" lon="6.62563">
        <ele>1554.11</ele>
        <time>2011-08-12T09:41:21Z</time>
      </trkpt>
      <trkpt lat="43.87826" lon="6.62563">
        <ele>1558.43</ele>
        <time>2011-08-12T09:41:23Z</time>
      </trkpt>
      <trkpt lat="43.87826" lon="6.62563">
        <ele>1553.63</ele>
        <time>2011-08-12T09:41:24Z</time>
      </trkpt>
      <trkpt lat="43.87826" lon="6.62563">
        <ele>1553.15</ele>
        <time>2011-08-12T09:41:29Z</time>
      </trkpt>
      <trkpt lat="43.87825" lon="6.6256">
        <ele>1555.07</ele>
        <time>2011-08-12T09:42:49Z</time>
      </trkpt>
      <trkpt lat="43.87826" lon="6.62552">
        <ele>1555.55</ele>
        <time>2011-08-12T09:43:00Z</time>
      </trkpt>
      <trkpt lat="43.87826" lon="6.62536">
        <ele>1556.99</ele>
        <time>2011-08-12T09:43:11Z</time>
      </trkpt>
      <trkpt lat="43.87825" lon="6.62524">
        <ele>1557.95</ele>
        <time>2011-08-12T09:43:23Z</time>
      </trkpt>
      <trkpt lat="43.87826" lon="6.62517">
        <ele>1559.4</ele>
        <time>2011-08-12T09:43:34Z</time>
      </trkpt>
      <trkpt lat="43.87825" lon="6.62508">
        <ele>1559.88</ele>
        <time>2011-08-12T09:43:44Z</time>
      </trkpt>
      <trkpt lat="43.87822" lon="6.62498">
        <ele>1560.84</ele>
        <time>2011-08-12T09:43:55Z</time>
      </trkpt>
      <trkpt lat="43.87822" lon="6.62487">
        <ele>1563.24</ele>
        <time>2011-08-12T09:44:07Z</time>
      </trkpt>
      <trkpt lat="43.87821" lon="6.62477">
        <ele>1565.16</ele>
        <time>2011-08-12T09:44:19Z</time>
      </trkpt>
      <trkpt lat="43.87816" lon="6.6247">
        <ele>1566.12</ele>
        <time>2011-08-12T09:44:32Z</time>
      </trkpt>
      <trkpt lat="43.87813" lon="6.62456">
        <ele>1567.09</ele>
        <time>2011-08-12T09:44:45Z</time>
      </trkpt>
      <trkpt lat="43.87811" lon="6.62444">
        <ele>1567.57</ele>
        <time>2011-08-12T09:44:57Z</time>
      </trkpt>
      <trkpt lat="43.8781" lon="6.62437">
        <ele>1568.53</ele>
        <time>2011-08-12T09:45:09Z</time>
      </trkpt>
      <trkpt lat="43.87809" lon="6.62427">
        <ele>1569.49</ele>
        <time>2011-08-12T09:45:21Z</time>
      </trkpt>
      <trkpt lat="43.87809" lon="6.62422">
        <ele>1570.45</ele>
        <time>2011-08-12T09:45:38Z</time>
      </trkpt>
      <trkpt lat="43.87807" lon="6.62412">
        <ele>1571.41</ele>
        <time>2011-08-12T09:45:49Z</time>
      </trkpt>
      <trkpt lat="43.87807" lon="6.62404">
        <ele>1572.37</ele>
        <time>2011-08-12T09:45:59Z</time>
      </trkpt>
      <trkpt lat="43.87806" lon="6.62394">
        <ele>1573.33</ele>
        <time>2011-08-12T09:46:10Z</time>
      </trkpt>
      <trkpt lat="43.87805" lon="6.62383">
        <ele>1574.3</ele>
        <time>2011-08-12T09:46:21Z</time>
      </trkpt>
      <trkpt lat="43.87806" lon="6.62374">
        <ele>1575.74</ele>
        <time>2011-08-12T09:46:32Z</time>
      </trkpt>
      <trkpt lat="43.87809" lon="6.62367">
        <ele>1575.74</ele>
        <time>2011-08-12T09:46:41Z</time>
      </trkpt>
      <trkpt lat="43.87811" lon="6.62365">
        <ele>1576.22</ele>
        <time>2011-08-12T09:46:44Z</time>
      </trkpt>
      <trkpt lat="43.87813" lon="6.62363">
        <ele>1576.7</ele>
        <time>2011-08-12T09:46:47Z</time>
      </trkpt>
      <trkpt lat="43.87817" lon="6.62356">
        <ele>1578.14</ele>
        <time>2011-08-12T09:46:57Z</time>
      </trkpt>
      <trkpt lat="43.8782" lon="6.6235">
        <ele>1579.1</ele>
        <time>2011-08-12T09:47:09Z</time>
      </trkpt>
      <trkpt lat="43.87822" lon="6.62341">
        <ele>1580.54</ele>
        <time>2011-08-12T09:47:20Z</time>
      </trkpt>
      <trkpt lat="43.87826" lon="6.62333">
        <ele>1580.54</ele>
        <time>2011-08-12T09:47:33Z</time>
      </trkpt>
      <trkpt lat="43.87825" lon="6.62327">
        <ele>1581.51</ele>
        <time>2011-08-12T09:47:48Z</time>
      </trkpt>
      <trkpt lat="43.87825" lon="6.62325">
        <ele>1581.99</ele>
        <time>2011-08-12T09:47:51Z</time>
      </trkpt>
      <trkpt lat="43.87824" lon="6.62312">
        <ele>1581.99</ele>
        <time>2011-08-12T09:48:03Z</time>
      </trkpt>
      <trkpt lat="43.87825" lon="6.62303">
        <ele>1583.91</ele>
        <time>2011-08-12T09:48:14Z</time>
      </trkpt>
      <trkpt lat="43.87826" lon="6.62297">
        <ele>1584.39</ele>
        <time>2011-08-12T09:48:27Z</time>
      </trkpt>
      <trkpt lat="43.87829" lon="6.62291">
        <ele>1585.83</ele>
        <time>2011-08-12T09:48:50Z</time>
      </trkpt>
      <trkpt lat="43.8783" lon="6.62281">
        <ele>1586.79</ele>
        <time>2011-08-12T09:49:00Z</time>
      </trkpt>
      <trkpt lat="43.87829" lon="6.62277">
        <ele>1586.79</ele>
        <time>2011-08-12T09:49:03Z</time>
      </trkpt>
      <trkpt lat="43.87828" lon="6.62263">
        <ele>1587.75</ele>
        <time>2011-08-12T09:49:14Z</time>
      </trkpt>
      <trkpt lat="43.87826" lon="6.62252">
        <ele>1588.72</ele>
        <time>2011-08-12T09:49:26Z</time>
      </trkpt>
      <trkpt lat="43.87825" lon="6.62247">
        <ele>1589.68</ele>
        <time>2011-08-12T09:49:40Z</time>
      </trkpt>
      <trkpt lat="43.87823" lon="6.62237">
        <ele>1590.16</ele>
        <time>2011-08-12T09:49:51Z</time>
      </trkpt>
      <trkpt lat="43.87825" lon="6.6224">
        <ele>1591.12</ele>
        <time>2011-08-12T09:50:02Z</time>
      </trkpt>
      <trkpt lat="43.87829" lon="6.62246">
        <ele>1592.08</ele>
        <time>2011-08-12T09:50:13Z</time>
      </trkpt>
      <trkpt lat="43.87833" lon="6.62254">
        <ele>1593.52</ele>
        <time>2011-08-12T09:50:24Z</time>
      </trkpt>
      <trkpt lat="43.87837" lon="6.62263">
        <ele>1594</ele>
        <time>2011-08-12T09:50:35Z</time>
      </trkpt>
      <trkpt lat="43.87841" lon="6.62274">
        <ele>1594.96</ele>
        <time>2011-08-12T09:50:48Z</time>
      </trkpt>
      <trkpt lat="43.87843" lon="6.62281">
        <ele>1595.93</ele>
        <time>2011-08-12T09:50:55Z</time>
      </trkpt>
      <trkpt lat="43.87845" lon="6.6229">
        <ele>1596.89</ele>
        <time>2011-08-12T09:51:07Z</time>
      </trkpt>
      <trkpt lat="43.8785" lon="6.62299">
        <ele>1597.37</ele>
        <time>2011-08-12T09:51:17Z</time>
      </trkpt>
      <trkpt lat="43.87852" lon="6.62308">
        <ele>1598.33</ele>
        <time>2011-08-12T09:51:28Z</time>
      </trkpt>
      <trkpt lat="43.87855" lon="6.62317">
        <ele>1599.29</ele>
        <time>2011-08-12T09:51:39Z</time>
      </trkpt>
      <trkpt lat="43.87857" lon="6.62325">
        <ele>1600.73</ele>
        <time>2011-08-12T09:51:51Z</time>
      </trkpt>
      <trkpt lat="43.87857" lon="6.62335">
        <ele>1600.73</ele>
        <time>2011-08-12T09:52:04Z</time>
      </trkpt>
      <trkpt lat="43.87857" lon="6.6234">
        <ele>1601.21</ele>
        <time>2011-08-12T09:52:08Z</time>
      </trkpt>
      <trkpt lat="43.87858" lon="6.62354">
        <ele>1602.17</ele>
        <time>2011-08-12T09:52:21Z</time>
      </trkpt>
      <trkpt lat="43.87859" lon="6.62361">
        <ele>1602.17</ele>
        <time>2011-08-12T09:52:27Z</time>
      </trkpt>
      <trkpt lat="43.87862" lon="6.62373">
        <ele>1603.62</ele>
        <time>2011-08-12T09:52:38Z</time>
      </trkpt>
      <trkpt lat="43.87867" lon="6.62385">
        <ele>1604.58</ele>
        <time>2011-08-12T09:52:51Z</time>
      </trkpt>
      <trkpt lat="43.87873" lon="6.62391">
        <ele>1606.5</ele>
        <time>2011-08-12T09:53:01Z</time>
      </trkpt>
      <trkpt lat="43.87875" lon="6.62392">
        <ele>1607.46</ele>
        <time>2011-08-12T09:53:07Z</time>
      </trkpt>
      <trkpt lat="43.87876" lon="6.62393">
        <ele>1607.94</ele>
        <time>2011-08-12T09:53:09Z</time>
      </trkpt>
      <trkpt lat="43.87882" lon="6.62407">
        <ele>1609.38</ele>
        <time>2011-08-12T09:53:22Z</time>
      </trkpt>
      <trkpt lat="43.87886" lon="6.62413">
        <ele>1611.31</ele>
        <time>2011-08-12T09:53:33Z</time>
      </trkpt>
      <trkpt lat="43.87886" lon="6.62414">
        <ele>1611.31</ele>
        <time>2011-08-12T09:53:34Z</time>
      </trkpt>
      <trkpt lat="43.87891" lon="6.62422">
        <ele>1612.27</ele>
        <time>2011-08-12T09:53:45Z</time>
      </trkpt>
      <trkpt lat="43.87896" lon="6.62427">
        <ele>1612.75</ele>
        <time>2011-08-12T09:53:57Z</time>
      </trkpt>
      <trkpt lat="43.87905" lon="6.62434">
        <ele>1613.71</ele>
        <time>2011-08-12T09:54:09Z</time>
      </trkpt>
      <trkpt lat="43.87908" lon="6.62439">
        <ele>1615.15</ele>
        <time>2011-08-12T09:54:19Z</time>
      </trkpt>
      <trkpt lat="43.87906" lon="6.62432">
        <ele>1616.11</ele>
        <time>2011-08-12T09:54:32Z</time>
      </trkpt>
      <trkpt lat="43.87903" lon="6.62428">
        <ele>1617.07</ele>
        <time>2011-08-12T09:54:43Z</time>
      </trkpt>
      <trkpt lat="43.87902" lon="6.62421">
        <ele>1617.56</ele>
        <time>2011-08-12T09:54:52Z</time>
      </trkpt>
      <trkpt lat="43.879" lon="6.62413">
        <ele>1619.48</ele>
        <time>2011-08-12T09:55:04Z</time>
      </trkpt>
      <trkpt lat="43.879" lon="6.6241">
        <ele>1619.96</ele>
        <time>2011-08-12T09:55:08Z</time>
      </trkpt>
      <trkpt lat="43.87898" lon="6.62398">
        <ele>1622.36</ele>
        <time>2011-08-12T09:55:19Z</time>
      </trkpt>
      <trkpt lat="43.87896" lon="6.62392">
        <ele>1622.36</ele>
        <time>2011-08-12T09:55:26Z</time>
      </trkpt>
      <trkpt lat="43.87895" lon="6.62384">
        <ele>1622.84</ele>
        <time>2011-08-12T09:55:37Z</time>
      </trkpt>
      <trkpt lat="43.87894" lon="6.62374">
        <ele>1623.32</ele>
        <time>2011-08-12T09:55:48Z</time>
      </trkpt>
      <trkpt lat="43.87893" lon="6.62367">
        <ele>1623.32</ele>
        <time>2011-08-12T09:55:58Z</time>
      </trkpt>
      <trkpt lat="43.87894" lon="6.62356">
        <ele>1623.8</ele>
        <time>2011-08-12T09:56:09Z</time>
      </trkpt>
      <trkpt lat="43.87895" lon="6.62348">
        <ele>1625.25</ele>
        <time>2011-08-12T09:56:19Z</time>
      </trkpt>
      <trkpt lat="43.87895" lon="6.62338">
        <ele>1626.21</ele>
        <time>2011-08-12T09:56:28Z</time>
      </trkpt>
      <trkpt lat="43.87895" lon="6.62327">
        <ele>1627.65</ele>
        <time>2011-08-12T09:56:39Z</time>
      </trkpt>
      <trkpt lat="43.87894" lon="6.62326">
        <ele>1628.13</ele>
        <time>2011-08-12T09:56:40Z</time>
      </trkpt>
      <trkpt lat="43.87895" lon="6.62316">
        <ele>1627.65</ele>
        <time>2011-08-12T09:56:58Z</time>
      </trkpt>
      <trkpt lat="43.87895" lon="6.62303">
        <ele>1629.09</ele>
        <time>2011-08-12T09:57:12Z</time>
      </trkpt>
      <trkpt lat="43.87893" lon="6.62301">
        <ele>1629.09</ele>
        <time>2011-08-12T09:57:13Z</time>
      </trkpt>
      <trkpt lat="43.87889" lon="6.62282">
        <ele>1630.05</ele>
        <time>2011-08-12T09:57:26Z</time>
      </trkpt>
      <trkpt lat="43.87888" lon="6.62276">
        <ele>1630.53</ele>
        <time>2011-08-12T09:57:37Z</time>
      </trkpt>
      <trkpt lat="43.87888" lon="6.62268">
        <ele>1631.01</ele>
        <time>2011-08-12T09:57:47Z</time>
      </trkpt>
      <trkpt lat="43.87888" lon="6.62257">
        <ele>1631.49</ele>
        <time>2011-08-12T09:57:58Z</time>
      </trkpt>
      <trkpt lat="43.87887" lon="6.62254">
        <ele>1631.98</ele>
        <time>2011-08-12T09:58:09Z</time>
      </trkpt>
      <trkpt lat="43.87887" lon="6.62245">
        <ele>1633.42</ele>
        <time>2011-08-12T09:58:20Z</time>
      </trkpt>
      <trkpt lat="43.87886" lon="6.62237">
        <ele>1633.9</ele>
        <time>2011-08-12T09:58:31Z</time>
      </trkpt>
      <trkpt lat="43.87885" lon="6.62229">
        <ele>1635.82</ele>
        <time>2011-08-12T09:58:41Z</time>
      </trkpt>
      <trkpt lat="43.87883" lon="6.62222">
        <ele>1635.34</ele>
        <time>2011-08-12T09:58:50Z</time>
      </trkpt>
      <trkpt lat="43.87879" lon="6.62215">
        <ele>1635.82</ele>
        <time>2011-08-12T09:59:00Z</time>
      </trkpt>
      <trkpt lat="43.87875" lon="6.62208">
        <ele>1636.3</ele>
        <time>2011-08-12T09:59:10Z</time>
      </trkpt>
      <trkpt lat="43.87872" lon="6.62198">
        <ele>1637.26</ele>
        <time>2011-08-12T09:59:21Z</time>
      </trkpt>
      <trkpt lat="43.87866" lon="6.62189">
        <ele>1638.22</ele>
        <time>2011-08-12T09:59:31Z</time>
      </trkpt>
      <trkpt lat="43.87863" lon="6.62179">
        <ele>1638.22</ele>
        <time>2011-08-12T09:59:43Z</time>
      </trkpt>
      <trkpt lat="43.87861" lon="6.62169">
        <ele>1638.7</ele>
        <time>2011-08-12T09:59:54Z</time>
      </trkpt>
      <trkpt lat="43.87861" lon="6.62167">
        <ele>1638.7</ele>
        <time>2011-08-12T09:59:56Z</time>
      </trkpt>
      <trkpt lat="43.8786" lon="6.62162">
        <ele>1639.19</ele>
        <time>2011-08-12T10:00:08Z</time>
      </trkpt>
      <trkpt lat="43.87858" lon="6.62149">
        <ele>1640.15</ele>
        <time>2011-08-12T10:00:20Z</time>
      </trkpt>
      <trkpt lat="43.87856" lon="6.62142">
        <ele>1639.67</ele>
        <time>2011-08-12T10:00:32Z</time>
      </trkpt>
      <trkpt lat="43.87858" lon="6.62131">
        <ele>1641.11</ele>
        <time>2011-08-12T10:00:53Z</time>
      </trkpt>
      <trkpt lat="43.87856" lon="6.62113">
        <ele>1640.63</ele>
        <time>2011-08-12T10:01:04Z</time>
      </trkpt>
      <trkpt lat="43.87857" lon="6.62099">
        <ele>1641.59</ele>
        <time>2011-08-12T10:01:16Z</time>
      </trkpt>
      <trkpt lat="43.87856" lon="6.62091">
        <ele>1642.55</ele>
        <time>2011-08-12T10:01:27Z</time>
      </trkpt>
      <trkpt lat="43.87854" lon="6.62082">
        <ele>1643.51</ele>
        <time>2011-08-12T10:01:38Z</time>
      </trkpt>
      <trkpt lat="43.87855" lon="6.6207">
        <ele>1644.47</ele>
        <time>2011-08-12T10:01:50Z</time>
      </trkpt>
      <trkpt lat="43.87856" lon="6.62058">
        <ele>1646.88</ele>
        <time>2011-08-12T10:02:01Z</time>
      </trkpt>
      <trkpt lat="43.8786" lon="6.62049">
        <ele>1647.36</ele>
        <time>2011-08-12T10:02:12Z</time>
      </trkpt>
      <trkpt lat="43.87862" lon="6.62048">
        <ele>1648.8</ele>
        <time>2011-08-12T10:02:20Z</time>
      </trkpt>
      <trkpt lat="43.87858" lon="6.62042">
        <ele>1649.76</ele>
        <time>2011-08-12T10:02:31Z</time>
      </trkpt>
      <trkpt lat="43.87853" lon="6.62032">
        <ele>1651.2</ele>
        <time>2011-08-12T10:02:42Z</time>
      </trkpt>
      <trkpt lat="43.87853" lon="6.6203">
        <ele>1651.2</ele>
        <time>2011-08-12T10:02:43Z</time>
      </trkpt>
      <trkpt lat="43.8785" lon="6.62022">
        <ele>1651.68</ele>
        <time>2011-08-12T10:02:50Z</time>
      </trkpt>
      <trkpt lat="43.87848" lon="6.62011">
        <ele>1652.64</ele>
        <time>2011-08-12T10:03:02Z</time>
      </trkpt>
      <trkpt lat="43.87848" lon="6.62006">
        <ele>1653.12</ele>
        <time>2011-08-12T10:03:11Z</time>
      </trkpt>
      <trkpt lat="43.87848" lon="6.61998">
        <ele>1654.57</ele>
        <time>2011-08-12T10:03:23Z</time>
      </trkpt>
      <trkpt lat="43.87848" lon="6.61993">
        <ele>1655.53</ele>
        <time>2011-08-12T10:03:35Z</time>
      </trkpt>
      <trkpt lat="43.87848" lon="6.6199">
        <ele>1656.49</ele>
        <time>2011-08-12T10:04:06Z</time>
      </trkpt>
      <trkpt lat="43.87846" lon="6.61983">
        <ele>1656.97</ele>
        <time>2011-08-12T10:04:17Z</time>
      </trkpt>
      <trkpt lat="43.87846" lon="6.61974">
        <ele>1656.97</ele>
        <time>2011-08-12T10:04:22Z</time>
      </trkpt>
      <trkpt lat="43.87845" lon="6.61965">
        <ele>1658.41</ele>
        <time>2011-08-12T10:04:35Z</time>
      </trkpt>
      <trkpt lat="43.87843" lon="6.61958">
        <ele>1659.37</ele>
        <time>2011-08-12T10:04:48Z</time>
      </trkpt>
      <trkpt lat="43.8784" lon="6.61951">
        <ele>1660.81</ele>
        <time>2011-08-12T10:05:05Z</time>
      </trkpt>
      <trkpt lat="43.87835" lon="6.61942">
        <ele>1661.78</ele>
        <time>2011-08-12T10:05:15Z</time>
      </trkpt>
      <trkpt lat="43.87832" lon="6.61929">
        <ele>1663.7</ele>
        <time>2011-08-12T10:05:27Z</time>
      </trkpt>
      <trkpt lat="43.87831" lon="6.61922">
        <ele>1664.18</ele>
        <time>2011-08-12T10:05:37Z</time>
      </trkpt>
      <trkpt lat="43.87829" lon="6.61917">
        <ele>1664.66</ele>
        <time>2011-08-12T10:05:52Z</time>
      </trkpt>
      <trkpt lat="43.87827" lon="6.61913">
        <ele>1665.62</ele>
        <time>2011-08-12T10:05:59Z</time>
      </trkpt>
      <trkpt lat="43.87817" lon="6.61906">
        <ele>1667.06</ele>
        <time>2011-08-12T10:06:12Z</time>
      </trkpt>
      <trkpt lat="43.87818" lon="6.61899">
        <ele>1668.02</ele>
        <time>2011-08-12T10:06:22Z</time>
      </trkpt>
      <trkpt lat="43.87823" lon="6.61899">
        <ele>1668.51</ele>
        <time>2011-08-12T10:06:35Z</time>
      </trkpt>
      <trkpt lat="43.87826" lon="6.61896">
        <ele>1669.95</ele>
        <time>2011-08-12T10:06:46Z</time>
      </trkpt>
      <trkpt lat="43.87826" lon="6.61896">
        <ele>1669.95</ele>
        <time>2011-08-12T10:06:47Z</time>
      </trkpt>
      <trkpt lat="43.87827" lon="6.61894">
        <ele>1670.91</ele>
        <time>2011-08-12T10:06:51Z</time>
      </trkpt>
      <trkpt lat="43.87831" lon="6.61893">
        <ele>1670.43</ele>
        <time>2011-08-12T10:06:56Z</time>
      </trkpt>
      <trkpt lat="43.87833" lon="6.61892">
        <ele>1671.39</ele>
        <time>2011-08-12T10:07:07Z</time>
      </trkpt>
      <trkpt lat="43.87835" lon="6.61892">
        <ele>1671.39</ele>
        <time>2011-08-12T10:07:11Z</time>
      </trkpt>
      <trkpt lat="43.8784" lon="6.61889">
        <ele>1671.39</ele>
        <time>2011-08-12T10:07:17Z</time>
      </trkpt>
      <trkpt lat="43.87853" lon="6.61884">
        <ele>1673.31</ele>
        <time>2011-08-12T10:07:32Z</time>
      </trkpt>
      <trkpt lat="43.87854" lon="6.6188">
        <ele>1673.31</ele>
        <time>2011-08-12T10:07:46Z</time>
      </trkpt>
      <trkpt lat="43.87859" lon="6.6188">
        <ele>1674.27</ele>
        <time>2011-08-12T10:07:59Z</time>
      </trkpt>
      <trkpt lat="43.87862" lon="6.61875">
        <ele>1675.72</ele>
        <time>2011-08-12T10:08:10Z</time>
      </trkpt>
      <trkpt lat="43.87868" lon="6.6187">
        <ele>1676.68</ele>
        <time>2011-08-12T10:08:22Z</time>
      </trkpt>
      <trkpt lat="43.87873" lon="6.61866">
        <ele>1678.12</ele>
        <time>2011-08-12T10:08:32Z</time>
      </trkpt>
      <trkpt lat="43.87878" lon="6.61858">
        <ele>1679.56</ele>
        <time>2011-08-12T10:08:45Z</time>
      </trkpt>
      <trkpt lat="43.87883" lon="6.6185">
        <ele>1681.96</ele>
        <time>2011-08-12T10:08:56Z</time>
      </trkpt>
      <trkpt lat="43.87889" lon="6.61844">
        <ele>1683.41</ele>
        <time>2011-08-12T10:09:06Z</time>
      </trkpt>
      <trkpt lat="43.87892" lon="6.61836">
        <ele>1683.89</ele>
        <time>2011-08-12T10:09:16Z</time>
      </trkpt>
      <trkpt lat="43.879" lon="6.61833">
        <ele>1683.89</ele>
        <time>2011-08-12T10:09:27Z</time>
      </trkpt>
      <trkpt lat="43.87908" lon="6.61834">
        <ele>1685.33</ele>
        <time>2011-08-12T10:09:39Z</time>
      </trkpt>
      <trkpt lat="43.87912" lon="6.61833">
        <ele>1683.89</ele>
        <time>2011-08-12T10:09:47Z</time>
      </trkpt>
      <trkpt lat="43.87914" lon="6.61832">
        <ele>1687.25</ele>
        <time>2011-08-12T10:09:52Z</time>
      </trkpt>
      <trkpt lat="43.8792" lon="6.61829">
        <ele>1687.25</ele>
        <time>2011-08-12T10:10:03Z</time>
      </trkpt>
      <trkpt lat="43.87921" lon="6.61828">
        <ele>1686.29</ele>
        <time>2011-08-12T10:10:07Z</time>
      </trkpt>
      <trkpt lat="43.87923" lon="6.61826">
        <ele>1688.21</ele>
        <time>2011-08-12T10:10:18Z</time>
      </trkpt>
      <trkpt lat="43.87923" lon="6.61826">
        <ele>1685.81</ele>
        <time>2011-08-12T10:10:21Z</time>
      </trkpt>
      <trkpt lat="43.87923" lon="6.61827">
        <ele>1687.25</ele>
        <time>2011-08-12T10:11:55Z</time>
      </trkpt>
      <trkpt lat="43.87923" lon="6.61827">
        <ele>1683.89</ele>
        <time>2011-08-12T10:12:08Z</time>
      </trkpt>
      <trkpt lat="43.87923" lon="6.61827">
        <ele>1687.25</ele>
        <time>2011-08-12T10:12:11Z</time>
      </trkpt>
      <trkpt lat="43.87924" lon="6.61827">
        <ele>1683.89</ele>
        <time>2011-08-12T10:12:23Z</time>
      </trkpt>
      <trkpt lat="43.87924" lon="6.61827">
        <ele>1687.25</ele>
        <time>2011-08-12T10:12:25Z</time>
      </trkpt>
      <trkpt lat="43.87924" lon="6.61827">
        <ele>1687.25</ele>
        <time>2011-08-12T10:12:49Z</time>
      </trkpt>
      <trkpt lat="43.87924" lon="6.61827">
        <ele>1688.21</ele>
        <time>2011-08-12T10:12:58Z</time>
      </trkpt>
      <trkpt lat="43.87924" lon="6.61827">
        <ele>1686.77</ele>
        <time>2011-08-12T10:13:00Z</time>
      </trkpt>
      <trkpt lat="43.87927" lon="6.61827">
        <ele>1687.25</ele>
        <time>2011-08-12T10:13:30Z</time>
      </trkpt>
      <trkpt lat="43.87929" lon="6.61828">
        <ele>1688.21</ele>
        <time>2011-08-12T10:13:33Z</time>
      </trkpt>
      <trkpt lat="43.87931" lon="6.61829">
        <ele>1689.17</ele>
        <time>2011-08-12T10:13:35Z</time>
      </trkpt>
      <trkpt lat="43.87933" lon="6.61831">
        <ele>1690.62</ele>
        <time>2011-08-12T10:13:48Z</time>
      </trkpt>
      <trkpt lat="43.87936" lon="6.61831">
        <ele>1693.5</ele>
        <time>2011-08-12T10:14:09Z</time>
      </trkpt>
      <trkpt lat="43.87939" lon="6.61828">
        <ele>1696.86</ele>
        <time>2011-08-12T10:14:26Z</time>
      </trkpt>
      <trkpt lat="43.87942" lon="6.61829">
        <ele>1694.94</ele>
        <time>2011-08-12T10:14:34Z</time>
      </trkpt>
      <trkpt lat="43.87945" lon="6.61831">
        <ele>1696.86</ele>
        <time>2011-08-12T10:14:37Z</time>
      </trkpt>
      <trkpt lat="43.87948" lon="6.61831">
        <ele>1695.9</ele>
        <time>2011-08-12T10:14:41Z</time>
      </trkpt>
      <trkpt lat="43.87952" lon="6.61831">
        <ele>1697.83</ele>
        <time>2011-08-12T10:14:47Z</time>
      </trkpt>
      <trkpt lat="43.87958" lon="6.61834">
        <ele>1698.79</ele>
        <time>2011-08-12T10:15:05Z</time>
      </trkpt>
      <trkpt lat="43.87959" lon="6.61836">
        <ele>1700.71</ele>
        <time>2011-08-12T10:15:12Z</time>
      </trkpt>
      <trkpt lat="43.87961" lon="6.61838">
        <ele>1702.63</ele>
        <time>2011-08-12T10:15:17Z</time>
      </trkpt>
      <trkpt lat="43.87967" lon="6.6184">
        <ele>1703.59</ele>
        <time>2011-08-12T10:15:31Z</time>
      </trkpt>
      <trkpt lat="43.87967" lon="6.6184">
        <ele>1704.07</ele>
        <time>2011-08-12T10:15:39Z</time>
      </trkpt>
      <trkpt lat="43.8798" lon="6.61837">
        <ele>1704.55</ele>
        <time>2011-08-12T10:15:52Z</time>
      </trkpt>
      <trkpt lat="43.87981" lon="6.61836">
        <ele>1705.04</ele>
        <time>2011-08-12T10:15:56Z</time>
      </trkpt>
      <trkpt lat="43.87983" lon="6.61833">
        <ele>1704.07</ele>
        <time>2011-08-12T10:16:08Z</time>
      </trkpt>
      <trkpt lat="43.87984" lon="6.61833">
        <ele>1707.44</ele>
        <time>2011-08-12T10:16:10Z</time>
      </trkpt>
      <trkpt lat="43.87985" lon="6.61832">
        <ele>1706</ele>
        <time>2011-08-12T10:16:11Z</time>
      </trkpt>
      <trkpt lat="43.87987" lon="6.61833">
        <ele>1706.48</ele>
        <time>2011-08-12T10:16:28Z</time>
      </trkpt>
      <trkpt lat="43.87992" lon="6.61831">
        <ele>1707.44</ele>
        <time>2011-08-12T10:16:39Z</time>
      </trkpt>
      <trkpt lat="43.87997" lon="6.61827">
        <ele>1706.48</ele>
        <time>2011-08-12T10:16:49Z</time>
      </trkpt>
      <trkpt lat="43.87999" lon="6.61827">
        <ele>1709.36</ele>
        <time>2011-08-12T10:16:52Z</time>
      </trkpt>
      <trkpt lat="43.87999" lon="6.61827">
        <ele>1710.8</ele>
        <time>2011-08-12T10:16:54Z</time>
      </trkpt>
      <trkpt lat="43.88" lon="6.61826">
        <ele>1707.92</ele>
        <time>2011-08-12T10:16:56Z</time>
      </trkpt>
      <trkpt lat="43.88001" lon="6.61825">
        <ele>1708.88</ele>
        <time>2011-08-12T10:16:57Z</time>
      </trkpt>
      <trkpt lat="43.88004" lon="6.61823">
        <ele>1708.88</ele>
        <time>2011-08-12T10:17:05Z</time>
      </trkpt>
      <trkpt lat="43.88005" lon="6.61819">
        <ele>1711.28</ele>
        <time>2011-08-12T10:17:09Z</time>
      </trkpt>
      <trkpt lat="43.88005" lon="6.61818">
        <ele>1711.76</ele>
        <time>2011-08-12T10:17:16Z</time>
      </trkpt>
      <trkpt lat="43.88005" lon="6.61816">
        <ele>1712.73</ele>
        <time>2011-08-12T10:17:25Z</time>
      </trkpt>
      <trkpt lat="43.88009" lon="6.61814">
        <ele>1713.69</ele>
        <time>2011-08-12T10:17:35Z</time>
      </trkpt>
      <trkpt lat="43.88012" lon="6.61814">
        <ele>1715.61</ele>
        <time>2011-08-12T10:17:41Z</time>
      </trkpt>
      <trkpt lat="43.88013" lon="6.61814">
        <ele>1714.17</ele>
        <time>2011-08-12T10:17:43Z</time>
      </trkpt>
      <trkpt lat="43.88013" lon="6.61814">
        <ele>1710.32</ele>
        <time>2011-08-12T10:17:54Z</time>
      </trkpt>
      <trkpt lat="43.88013" lon="6.61814">
        <ele>1713.21</ele>
        <time>2011-08-12T10:17:55Z</time>
      </trkpt>
      <trkpt lat="43.88017" lon="6.61809">
        <ele>1712.73</ele>
        <time>2011-08-12T10:18:28Z</time>
      </trkpt>
      <trkpt lat="43.88021" lon="6.61804">
        <ele>1712.25</ele>
        <time>2011-08-12T10:18:39Z</time>
      </trkpt>
      <trkpt lat="43.88021" lon="6.61804">
        <ele>1713.69</ele>
        <time>2011-08-12T10:18:56Z</time>
      </trkpt>
      <trkpt lat="43.88022" lon="6.61804">
        <ele>1715.61</ele>
        <time>2011-08-12T10:19:02Z</time>
      </trkpt>
      <trkpt lat="43.88022" lon="6.61803">
        <ele>1712.25</ele>
        <time>2011-08-12T10:19:21Z</time>
      </trkpt>
      <trkpt lat="43.88021" lon="6.61799">
        <ele>1714.17</ele>
        <time>2011-08-12T10:19:54Z</time>
      </trkpt>
      <trkpt lat="43.88015" lon="6.61792">
        <ele>1714.17</ele>
        <time>2011-08-12T10:20:13Z</time>
      </trkpt>
      <trkpt lat="43.88013" lon="6.6179">
        <ele>1709.36</ele>
        <time>2011-08-12T10:20:16Z</time>
      </trkpt>
      <trkpt lat="43.88013" lon="6.61788">
        <ele>1713.21</ele>
        <time>2011-08-12T10:20:18Z</time>
      </trkpt>
      <trkpt lat="43.88012" lon="6.61787">
        <ele>1710.32</ele>
        <time>2011-08-12T10:20:19Z</time>
      </trkpt>
      <trkpt lat="43.88009" lon="6.61784">
        <ele>1714.17</ele>
        <time>2011-08-12T10:20:23Z</time>
      </trkpt>
      <trkpt lat="43.88009" lon="6.61782">
        <ele>1707.44</ele>
        <time>2011-08-12T10:20:25Z</time>
      </trkpt>
      <trkpt lat="43.88008" lon="6.61781">
        <ele>1708.88</ele>
        <time>2011-08-12T10:20:26Z</time>
      </trkpt>
      <trkpt lat="43.88002" lon="6.61772">
        <ele>1707.44</ele>
        <time>2011-08-12T10:20:37Z</time>
      </trkpt>
      <trkpt lat="43.88001" lon="6.61772">
        <ele>1708.4</ele>
        <time>2011-08-12T10:20:39Z</time>
      </trkpt>
      <trkpt lat="43.87999" lon="6.6177">
        <ele>1711.76</ele>
        <time>2011-08-12T10:20:42Z</time>
      </trkpt>
      <trkpt lat="43.87997" lon="6.6177">
        <ele>1712.73</ele>
        <time>2011-08-12T10:20:44Z</time>
      </trkpt>
      <trkpt lat="43.87997" lon="6.61769">
        <ele>1708.88</ele>
        <time>2011-08-12T10:20:45Z</time>
      </trkpt>
      <trkpt lat="43.87992" lon="6.61763">
        <ele>1706.48</ele>
        <time>2011-08-12T10:20:52Z</time>
      </trkpt>
      <trkpt lat="43.8799" lon="6.61762">
        <ele>1706.48</ele>
        <time>2011-08-12T10:20:55Z</time>
      </trkpt>
      <trkpt lat="43.87988" lon="6.6176">
        <ele>1709.84</ele>
        <time>2011-08-12T10:20:57Z</time>
      </trkpt>
      <trkpt lat="43.87988" lon="6.61759">
        <ele>1704.07</ele>
        <time>2011-08-12T10:20:58Z</time>
      </trkpt>
      <trkpt lat="43.87987" lon="6.61758">
        <ele>1705.04</ele>
        <time>2011-08-12T10:20:59Z</time>
      </trkpt>
      <trkpt lat="43.87986" lon="6.61757">
        <ele>1710.32</ele>
        <time>2011-08-12T10:21:01Z</time>
      </trkpt>
      <trkpt lat="43.87985" lon="6.61756">
        <ele>1706.96</ele>
        <time>2011-08-12T10:21:02Z</time>
      </trkpt>
      <trkpt lat="43.87983" lon="6.61754">
        <ele>1711.28</ele>
        <time>2011-08-12T10:21:08Z</time>
      </trkpt>
      <trkpt lat="43.87982" lon="6.61753">
        <ele>1709.84</ele>
        <time>2011-08-12T10:21:09Z</time>
      </trkpt>
      <trkpt lat="43.87981" lon="6.61752">
        <ele>1705.04</ele>
        <time>2011-08-12T10:21:10Z</time>
      </trkpt>
      <trkpt lat="43.87981" lon="6.61751">
        <ele>1707.92</ele>
        <time>2011-08-12T10:21:11Z</time>
      </trkpt>
      <trkpt lat="43.87977" lon="6.61749">
        <ele>1706.48</ele>
        <time>2011-08-12T10:21:17Z</time>
      </trkpt>
      <trkpt lat="43.87975" lon="6.61747">
        <ele>1705.04</ele>
        <time>2011-08-12T10:21:20Z</time>
      </trkpt>
      <trkpt lat="43.87974" lon="6.61745">
        <ele>1699.75</ele>
        <time>2011-08-12T10:21:23Z</time>
      </trkpt>
      <trkpt lat="43.87971" lon="6.61742">
        <ele>1701.19</ele>
        <time>2011-08-12T10:21:28Z</time>
      </trkpt>
      <trkpt lat="43.87969" lon="6.61741">
        <ele>1700.71</ele>
        <time>2011-08-12T10:21:30Z</time>
      </trkpt>
      <trkpt lat="43.87968" lon="6.61738">
        <ele>1703.59</ele>
        <time>2011-08-12T10:21:33Z</time>
      </trkpt>
      <trkpt lat="43.87967" lon="6.61738">
        <ele>1696.86</ele>
        <time>2011-08-12T10:21:34Z</time>
      </trkpt>
      <trkpt lat="43.87965" lon="6.61737">
        <ele>1700.71</ele>
        <time>2011-08-12T10:21:36Z</time>
      </trkpt>
      <trkpt lat="43.87965" lon="6.61737">
        <ele>1704.07</ele>
        <time>2011-08-12T10:21:37Z</time>
      </trkpt>
      <trkpt lat="43.87964" lon="6.61736">
        <ele>1698.79</ele>
        <time>2011-08-12T10:21:38Z</time>
      </trkpt>
      <trkpt lat="43.87962" lon="6.61736">
        <ele>1705.52</ele>
        <time>2011-08-12T10:21:41Z</time>
      </trkpt>
      <trkpt lat="43.87961" lon="6.61736">
        <ele>1705.04</ele>
        <time>2011-08-12T10:21:42Z</time>
      </trkpt>
      <trkpt lat="43.87961" lon="6.61736">
        <ele>1696.38</ele>
        <time>2011-08-12T10:21:43Z</time>
      </trkpt>
      <trkpt lat="43.87959" lon="6.61734">
        <ele>1702.15</ele>
        <time>2011-08-12T10:21:45Z</time>
      </trkpt>
      <trkpt lat="43.87959" lon="6.61733">
        <ele>1698.31</ele>
        <time>2011-08-12T10:21:46Z</time>
      </trkpt>
      <trkpt lat="43.87959" lon="6.61732">
        <ele>1697.83</ele>
        <time>2011-08-12T10:21:47Z</time>
      </trkpt>
      <trkpt lat="43.87956" lon="6.61729">
        <ele>1697.34</ele>
        <time>2011-08-12T10:21:52Z</time>
      </trkpt>
      <trkpt lat="43.87956" lon="6.61729">
        <ele>1695.42</ele>
        <time>2011-08-12T10:21:55Z</time>
      </trkpt>
      <trkpt lat="43.87956" lon="6.61728">
        <ele>1696.86</ele>
        <time>2011-08-12T10:21:59Z</time>
      </trkpt>
      <trkpt lat="43.87954" lon="6.61726">
        <ele>1702.15</ele>
        <time>2011-08-12T10:22:04Z</time>
      </trkpt>
      <trkpt lat="43.87953" lon="6.61725">
        <ele>1703.11</ele>
        <time>2011-08-12T10:22:06Z</time>
      </trkpt>
      <trkpt lat="43.87953" lon="6.61725">
        <ele>1698.31</ele>
        <time>2011-08-12T10:22:07Z</time>
      </trkpt>
      <trkpt lat="43.87949" lon="6.61721">
        <ele>1702.15</ele>
        <time>2011-08-12T10:22:13Z</time>
      </trkpt>
      <trkpt lat="43.87948" lon="6.6172">
        <ele>1698.79</ele>
        <time>2011-08-12T10:22:14Z</time>
      </trkpt>
      <trkpt lat="43.87948" lon="6.61719">
        <ele>1695.42</ele>
        <time>2011-08-12T10:22:15Z</time>
      </trkpt>
      <trkpt lat="43.87947" lon="6.61719">
        <ele>1690.14</ele>
        <time>2011-08-12T10:22:16Z</time>
      </trkpt>
      <trkpt lat="43.87946" lon="6.61718">
        <ele>1690.62</ele>
        <time>2011-08-12T10:22:17Z</time>
      </trkpt>
      <trkpt lat="43.87942" lon="6.61715">
        <ele>1696.86</ele>
        <time>2011-08-12T10:22:23Z</time>
      </trkpt>
      <trkpt lat="43.87942" lon="6.61715">
        <ele>1696.86</ele>
        <time>2011-08-12T10:22:24Z</time>
      </trkpt>
      <trkpt lat="43.87941" lon="6.61714">
        <ele>1693.02</ele>
        <time>2011-08-12T10:22:25Z</time>
      </trkpt>
      <trkpt lat="43.8794" lon="6.61714">
        <ele>1690.14</ele>
        <time>2011-08-12T10:22:26Z</time>
      </trkpt>
      <trkpt lat="43.8794" lon="6.61713">
        <ele>1692.06</ele>
        <time>2011-08-12T10:22:27Z</time>
      </trkpt>
      <trkpt lat="43.8794" lon="6.61713">
        <ele>1694.46</ele>
        <time>2011-08-12T10:22:29Z</time>
      </trkpt>
      <trkpt lat="43.87939" lon="6.61713">
        <ele>1686.77</ele>
        <time>2011-08-12T10:22:30Z</time>
      </trkpt>
      <trkpt lat="43.87938" lon="6.61712">
        <ele>1690.14</ele>
        <time>2011-08-12T10:22:31Z</time>
      </trkpt>
      <trkpt lat="43.87937" lon="6.61712">
        <ele>1694.46</ele>
        <time>2011-08-12T10:22:32Z</time>
      </trkpt>
      <trkpt lat="43.87936" lon="6.61711">
        <ele>1692.06</ele>
        <time>2011-08-12T10:22:33Z</time>
      </trkpt>
      <trkpt lat="43.87934" lon="6.61709">
        <ele>1688.21</ele>
        <time>2011-08-12T10:22:36Z</time>
      </trkpt>
      <trkpt lat="43.87933" lon="6.61709">
        <ele>1688.21</ele>
        <time>2011-08-12T10:22:37Z</time>
      </trkpt>
      <trkpt lat="43.87932" lon="6.61708">
        <ele>1691.58</ele>
        <time>2011-08-12T10:22:38Z</time>
      </trkpt>
      <trkpt lat="43.87932" lon="6.61708">
        <ele>1691.1</ele>
        <time>2011-08-12T10:22:39Z</time>
      </trkpt>
      <trkpt lat="43.87928" lon="6.61705">
        <ele>1687.73</ele>
        <time>2011-08-12T10:22:43Z</time>
      </trkpt>
      <trkpt lat="43.87927" lon="6.61705">
        <ele>1688.69</ele>
        <time>2011-08-12T10:22:44Z</time>
      </trkpt>
      <trkpt lat="43.87924" lon="6.61703">
        <ele>1691.1</ele>
        <time>2011-08-12T10:22:47Z</time>
      </trkpt>
      <trkpt lat="43.87923" lon="6.61702">
        <ele>1684.37</ele>
        <time>2011-08-12T10:22:49Z</time>
      </trkpt>
      <trkpt lat="43.87922" lon="6.61701">
        <ele>1686.29</ele>
        <time>2011-08-12T10:22:50Z</time>
      </trkpt>
      <trkpt lat="43.87922" lon="6.61701">
        <ele>1685.33</ele>
        <time>2011-08-12T10:22:51Z</time>
      </trkpt>
      <trkpt lat="43.87919" lon="6.61698">
        <ele>1685.33</ele>
        <time>2011-08-12T10:22:54Z</time>
      </trkpt>
      <trkpt lat="43.87917" lon="6.61697">
        <ele>1689.65</ele>
        <time>2011-08-12T10:22:57Z</time>
      </trkpt>
      <trkpt lat="43.87916" lon="6.61696">
        <ele>1685.33</ele>
        <time>2011-08-12T10:22:59Z</time>
      </trkpt>
      <trkpt lat="43.87914" lon="6.61694">
        <ele>1689.17</ele>
        <time>2011-08-12T10:23:02Z</time>
      </trkpt>
      <trkpt lat="43.8791" lon="6.61691">
        <ele>1681</ele>
        <time>2011-08-12T10:23:07Z</time>
      </trkpt>
      <trkpt lat="43.87909" lon="6.61691">
        <ele>1684.85</ele>
        <time>2011-08-12T10:23:08Z</time>
      </trkpt>
      <trkpt lat="43.87908" lon="6.6169">
        <ele>1689.65</ele>
        <time>2011-08-12T10:23:09Z</time>
      </trkpt>
      <trkpt lat="43.87908" lon="6.6169">
        <ele>1688.21</ele>
        <time>2011-08-12T10:23:10Z</time>
      </trkpt>
      <trkpt lat="43.87907" lon="6.61689">
        <ele>1684.37</ele>
        <time>2011-08-12T10:23:11Z</time>
      </trkpt>
      <trkpt lat="43.87907" lon="6.61688">
        <ele>1684.37</ele>
        <time>2011-08-12T10:23:12Z</time>
      </trkpt>
      <trkpt lat="43.87908" lon="6.61687">
        <ele>1680.04</ele>
        <time>2011-08-12T10:23:21Z</time>
      </trkpt>
      <trkpt lat="43.87908" lon="6.61686">
        <ele>1680.52</ele>
        <time>2011-08-12T10:23:22Z</time>
      </trkpt>
      <trkpt lat="43.87909" lon="6.61686">
        <ele>1687.25</ele>
        <time>2011-08-12T10:23:23Z</time>
      </trkpt>
      <trkpt lat="43.87909" lon="6.61686">
        <ele>1682.93</ele>
        <time>2011-08-12T10:23:24Z</time>
      </trkpt>
      <trkpt lat="43.87909" lon="6.61686">
        <ele>1688.21</ele>
        <time>2011-08-12T10:23:26Z</time>
      </trkpt>
      <trkpt lat="43.87909" lon="6.61686">
        <ele>1681</ele>
        <time>2011-08-12T10:23:27Z</time>
      </trkpt>
      <trkpt lat="43.87909" lon="6.61686">
        <ele>1686.77</ele>
        <time>2011-08-12T10:23:28Z</time>
      </trkpt>
      <trkpt lat="43.87908" lon="6.61685">
        <ele>1683.89</ele>
        <time>2011-08-12T10:23:30Z</time>
      </trkpt>
      <trkpt lat="43.87905" lon="6.61685">
        <ele>1687.25</ele>
        <time>2011-08-12T10:23:34Z</time>
      </trkpt>
      <trkpt lat="43.87904" lon="6.61684">
        <ele>1680.52</ele>
        <time>2011-08-12T10:23:35Z</time>
      </trkpt>
      <trkpt lat="43.87904" lon="6.61683">
        <ele>1673.79</ele>
        <time>2011-08-12T10:23:36Z</time>
      </trkpt>
      <trkpt lat="43.87903" lon="6.61682">
        <ele>1685.33</ele>
        <time>2011-08-12T10:23:37Z</time>
      </trkpt>
      <trkpt lat="43.87903" lon="6.61681">
        <ele>1680.04</ele>
        <time>2011-08-12T10:23:45Z</time>
      </trkpt>
      <trkpt lat="43.87903" lon="6.61681">
        <ele>1683.41</ele>
        <time>2011-08-12T10:23:46Z</time>
      </trkpt>
      <trkpt lat="43.87899" lon="6.61678">
        <ele>1677.16</ele>
        <time>2011-08-12T10:23:52Z</time>
      </trkpt>
      <trkpt lat="43.87898" lon="6.61678">
        <ele>1681.48</ele>
        <time>2011-08-12T10:23:53Z</time>
      </trkpt>
      <trkpt lat="43.87897" lon="6.61677">
        <ele>1686.29</ele>
        <time>2011-08-12T10:23:55Z</time>
      </trkpt>
      <trkpt lat="43.87896" lon="6.61676">
        <ele>1681</ele>
        <time>2011-08-12T10:23:56Z</time>
      </trkpt>
      <trkpt lat="43.87895" lon="6.61675">
        <ele>1684.85</ele>
        <time>2011-08-12T10:23:58Z</time>
      </trkpt>
      <trkpt lat="43.87895" lon="6.61674">
        <ele>1684.85</ele>
        <time>2011-08-12T10:23:59Z</time>
      </trkpt>
      <trkpt lat="43.87897" lon="6.61673">
        <ele>1681.48</ele>
        <time>2011-08-12T10:24:04Z</time>
      </trkpt>
      <trkpt lat="43.87899" lon="6.61673">
        <ele>1689.17</ele>
        <time>2011-08-12T10:24:07Z</time>
      </trkpt>
      <trkpt lat="43.879" lon="6.61673">
        <ele>1670.43</ele>
        <time>2011-08-12T10:24:08Z</time>
      </trkpt>
      <trkpt lat="43.87901" lon="6.61673">
        <ele>1676.2</ele>
        <time>2011-08-12T10:24:09Z</time>
      </trkpt>
      <trkpt lat="43.87902" lon="6.61673">
        <ele>1679.56</ele>
        <time>2011-08-12T10:24:10Z</time>
      </trkpt>
      <trkpt lat="43.87902" lon="6.61672">
        <ele>1685.33</ele>
        <time>2011-08-12T10:24:11Z</time>
      </trkpt>
      <trkpt lat="43.87903" lon="6.61672">
        <ele>1685.33</ele>
        <time>2011-08-12T10:24:12Z</time>
      </trkpt>
      <trkpt lat="43.87904" lon="6.61672">
        <ele>1680.04</ele>
        <time>2011-08-12T10:24:13Z</time>
      </trkpt>
      <trkpt lat="43.87905" lon="6.61671">
        <ele>1681</ele>
        <time>2011-08-12T10:24:14Z</time>
      </trkpt>
      <trkpt lat="43.87907" lon="6.6167">
        <ele>1677.16</ele>
        <time>2011-08-12T10:24:20Z</time>
      </trkpt>
      <trkpt lat="43.87908" lon="6.6167">
        <ele>1681.96</ele>
        <time>2011-08-12T10:24:21Z</time>
      </trkpt>
      <trkpt lat="43.87911" lon="6.6167">
        <ele>1677.64</ele>
        <time>2011-08-12T10:24:25Z</time>
      </trkpt>
      <trkpt lat="43.87912" lon="6.6167">
        <ele>1678.12</ele>
        <time>2011-08-12T10:24:26Z</time>
      </trkpt>
      <trkpt lat="43.87913" lon="6.6167">
        <ele>1673.79</ele>
        <time>2011-08-12T10:24:28Z</time>
      </trkpt>
      <trkpt lat="43.87913" lon="6.6167">
        <ele>1678.6</ele>
        <time>2011-08-12T10:24:29Z</time>
      </trkpt>
      <trkpt lat="43.87913" lon="6.6167">
        <ele>1675.23</ele>
        <time>2011-08-12T10:24:30Z</time>
      </trkpt>
      <trkpt lat="43.87914" lon="6.6167">
        <ele>1679.56</ele>
        <time>2011-08-12T10:24:31Z</time>
      </trkpt>
      <trkpt lat="43.87915" lon="6.6167">
        <ele>1683.89</ele>
        <time>2011-08-12T10:24:32Z</time>
      </trkpt>
      <trkpt lat="43.87916" lon="6.6167">
        <ele>1680.52</ele>
        <time>2011-08-12T10:24:33Z</time>
      </trkpt>
      <trkpt lat="43.87917" lon="6.61671">
        <ele>1675.23</ele>
        <time>2011-08-12T10:24:35Z</time>
      </trkpt>
      <trkpt lat="43.87918" lon="6.61671">
        <ele>1679.56</ele>
        <time>2011-08-12T10:24:36Z</time>
      </trkpt>
      <trkpt lat="43.87918" lon="6.61671">
        <ele>1682.93</ele>
        <time>2011-08-12T10:24:37Z</time>
      </trkpt>
      <trkpt lat="43.87918" lon="6.61672">
        <ele>1675.72</ele>
        <time>2011-08-12T10:24:38Z</time>
      </trkpt>
      <trkpt lat="43.87918" lon="6.61672">
        <ele>1679.08</ele>
        <time>2011-08-12T10:24:39Z</time>
      </trkpt>
      <trkpt lat="43.87918" lon="6.61672">
        <ele>1675.72</ele>
        <time>2011-08-12T10:24:41Z</time>
      </trkpt>
      <trkpt lat="43.87918" lon="6.61672">
        <ele>1675.72</ele>
        <time>2011-08-12T10:24:42Z</time>
      </trkpt>
      <trkpt lat="43.87917" lon="6.6167">
        <ele>1671.39</ele>
        <time>2011-08-12T10:24:49Z</time>
      </trkpt>
      <trkpt lat="43.87917" lon="6.6167">
        <ele>1675.23</ele>
        <time>2011-08-12T10:24:50Z</time>
      </trkpt>
      <trkpt lat="43.87917" lon="6.61669">
        <ele>1675.23</ele>
        <time>2011-08-12T10:24:51Z</time>
      </trkpt>
      <trkpt lat="43.87915" lon="6.61665">
        <ele>1673.31</ele>
        <time>2011-08-12T10:25:00Z</time>
      </trkpt>
      <trkpt lat="43.87915" lon="6.61665">
        <ele>1677.64</ele>
        <time>2011-08-12T10:25:04Z</time>
      </trkpt>
      <trkpt lat="43.87915" lon="6.61665">
        <ele>1673.79</ele>
        <time>2011-08-12T10:25:05Z</time>
      </trkpt>
      <trkpt lat="43.8792" lon="6.61661">
        <ele>1671.87</ele>
        <time>2011-08-12T10:25:13Z</time>
      </trkpt>
      <trkpt lat="43.87925" lon="6.61658">
        <ele>1666.58</ele>
        <time>2011-08-12T10:25:20Z</time>
      </trkpt>
      <trkpt lat="43.87925" lon="6.61657">
        <ele>1668.51</ele>
        <time>2011-08-12T10:25:21Z</time>
      </trkpt>
      <trkpt lat="43.87925" lon="6.61655">
        <ele>1664.66</ele>
        <time>2011-08-12T10:25:27Z</time>
      </trkpt>
      <trkpt lat="43.87926" lon="6.61654">
        <ele>1668.51</ele>
        <time>2011-08-12T10:25:28Z</time>
      </trkpt>
      <trkpt lat="43.87924" lon="6.6165">
        <ele>1672.35</ele>
        <time>2011-08-12T10:25:34Z</time>
      </trkpt>
      <trkpt lat="43.87925" lon="6.61649">
        <ele>1667.54</ele>
        <time>2011-08-12T10:25:35Z</time>
      </trkpt>
      <trkpt lat="43.87928" lon="6.61646">
        <ele>1672.83</ele>
        <time>2011-08-12T10:25:38Z</time>
      </trkpt>
      <trkpt lat="43.87928" lon="6.61645">
        <ele>1667.06</ele>
        <time>2011-08-12T10:25:39Z</time>
      </trkpt>
      <trkpt lat="43.87928" lon="6.61644">
        <ele>1664.66</ele>
        <time>2011-08-12T10:25:41Z</time>
      </trkpt>
      <trkpt lat="43.87926" lon="6.61643">
        <ele>1669.95</ele>
        <time>2011-08-12T10:25:43Z</time>
      </trkpt>
      <trkpt lat="43.87926" lon="6.61643">
        <ele>1661.78</ele>
        <time>2011-08-12T10:25:44Z</time>
      </trkpt>
      <trkpt lat="43.87926" lon="6.61643">
        <ele>1666.1</ele>
        <time>2011-08-12T10:25:46Z</time>
      </trkpt>
      <trkpt lat="43.87927" lon="6.61642">
        <ele>1666.58</ele>
        <time>2011-08-12T10:25:48Z</time>
      </trkpt>
      <trkpt lat="43.87927" lon="6.61641">
        <ele>1663.22</ele>
        <time>2011-08-12T10:25:49Z</time>
      </trkpt>
      <trkpt lat="43.87927" lon="6.6164">
        <ele>1668.99</ele>
        <time>2011-08-12T10:25:52Z</time>
      </trkpt>
      <trkpt lat="43.87925" lon="6.61638">
        <ele>1670.91</ele>
        <time>2011-08-12T10:25:54Z</time>
      </trkpt>
      <trkpt lat="43.87924" lon="6.61637">
        <ele>1661.78</ele>
        <time>2011-08-12T10:25:56Z</time>
      </trkpt>
      <trkpt lat="43.87923" lon="6.61636">
        <ele>1662.74</ele>
        <time>2011-08-12T10:25:57Z</time>
      </trkpt>
      <trkpt lat="43.87919" lon="6.61631">
        <ele>1658.41</ele>
        <time>2011-08-12T10:26:03Z</time>
      </trkpt>
      <trkpt lat="43.87919" lon="6.61631">
        <ele>1667.54</ele>
        <time>2011-08-12T10:26:04Z</time>
      </trkpt>
      <trkpt lat="43.87918" lon="6.6163">
        <ele>1663.7</ele>
        <time>2011-08-12T10:26:05Z</time>
      </trkpt>
      <trkpt lat="43.87918" lon="6.61629">
        <ele>1660.33</ele>
        <time>2011-08-12T10:26:06Z</time>
      </trkpt>
      <trkpt lat="43.87917" lon="6.61629">
        <ele>1660.33</ele>
        <time>2011-08-12T10:26:07Z</time>
      </trkpt>
      <trkpt lat="43.87916" lon="6.61628">
        <ele>1656.01</ele>
        <time>2011-08-12T10:26:08Z</time>
      </trkpt>
      <trkpt lat="43.87916" lon="6.61627">
        <ele>1658.89</ele>
        <time>2011-08-12T10:26:09Z</time>
      </trkpt>
      <trkpt lat="43.87915" lon="6.61627">
        <ele>1667.06</ele>
        <time>2011-08-12T10:26:10Z</time>
      </trkpt>
      <trkpt lat="43.87915" lon="6.61626">
        <ele>1662.74</ele>
        <time>2011-08-12T10:26:11Z</time>
      </trkpt>
      <trkpt lat="43.87913" lon="6.61624">
        <ele>1660.33</ele>
        <time>2011-08-12T10:26:13Z</time>
      </trkpt>
      <trkpt lat="43.87912" lon="6.61624">
        <ele>1655.53</ele>
        <time>2011-08-12T10:26:14Z</time>
      </trkpt>
      <trkpt lat="43.87912" lon="6.61624">
        <ele>1656.97</ele>
        <time>2011-08-12T10:26:15Z</time>
      </trkpt>
      <trkpt lat="43.87912" lon="6.61623">
        <ele>1660.81</ele>
        <time>2011-08-12T10:26:16Z</time>
      </trkpt>
      <trkpt lat="43.87911" lon="6.61623">
        <ele>1658.89</ele>
        <time>2011-08-12T10:26:17Z</time>
      </trkpt>
      <trkpt lat="43.8791" lon="6.61623">
        <ele>1657.45</ele>
        <time>2011-08-12T10:26:19Z</time>
      </trkpt>
      <trkpt lat="43.87909" lon="6.61623">
        <ele>1663.7</ele>
        <time>2011-08-12T10:26:20Z</time>
      </trkpt>
      <trkpt lat="43.87908" lon="6.61621">
        <ele>1657.93</ele>
        <time>2011-08-12T10:26:22Z</time>
      </trkpt>
      <trkpt lat="43.87907" lon="6.6162">
        <ele>1657.93</ele>
        <time>2011-08-12T10:26:23Z</time>
      </trkpt>
      <trkpt lat="43.87905" lon="6.61618">
        <ele>1658.89</ele>
        <time>2011-08-12T10:26:28Z</time>
      </trkpt>
      <trkpt lat="43.87903" lon="6.61617">
        <ele>1652.16</ele>
        <time>2011-08-12T10:26:32Z</time>
      </trkpt>
      <trkpt lat="43.87903" lon="6.61617">
        <ele>1656.49</ele>
        <time>2011-08-12T10:26:33Z</time>
      </trkpt>
      <trkpt lat="43.87903" lon="6.61616">
        <ele>1661.3</ele>
        <time>2011-08-12T10:26:34Z</time>
      </trkpt>
      <trkpt lat="43.87903" lon="6.61616">
        <ele>1655.53</ele>
        <time>2011-08-12T10:26:35Z</time>
      </trkpt>
      <trkpt lat="43.87905" lon="6.61614">
        <ele>1658.89</ele>
        <time>2011-08-12T10:26:38Z</time>
      </trkpt>
      <trkpt lat="43.87906" lon="6.61614">
        <ele>1663.22</ele>
        <time>2011-08-12T10:26:39Z</time>
      </trkpt>
      <trkpt lat="43.87907" lon="6.61613">
        <ele>1661.78</ele>
        <time>2011-08-12T10:26:40Z</time>
      </trkpt>
      <trkpt lat="43.87908" lon="6.61613">
        <ele>1654.09</ele>
        <time>2011-08-12T10:26:41Z</time>
      </trkpt>
      <trkpt lat="43.87909" lon="6.61612">
        <ele>1655.05</ele>
        <time>2011-08-12T10:26:42Z</time>
      </trkpt>
      <trkpt lat="43.87909" lon="6.61611">
        <ele>1660.81</ele>
        <time>2011-08-12T10:26:43Z</time>
      </trkpt>
      <trkpt lat="43.8791" lon="6.6161">
        <ele>1655.53</ele>
        <time>2011-08-12T10:26:45Z</time>
      </trkpt>
      <trkpt lat="43.87911" lon="6.61609">
        <ele>1650.24</ele>
        <time>2011-08-12T10:26:46Z</time>
      </trkpt>
      <trkpt lat="43.87911" lon="6.61608">
        <ele>1658.41</ele>
        <time>2011-08-12T10:26:47Z</time>
      </trkpt>
      <trkpt lat="43.87912" lon="6.61605">
        <ele>1654.57</ele>
        <time>2011-08-12T10:26:50Z</time>
      </trkpt>
      <trkpt lat="43.87912" lon="6.61605">
        <ele>1650.24</ele>
        <time>2011-08-12T10:26:51Z</time>
      </trkpt>
      <trkpt lat="43.87912" lon="6.61604">
        <ele>1652.64</ele>
        <time>2011-08-12T10:26:52Z</time>
      </trkpt>
      <trkpt lat="43.87911" lon="6.61603">
        <ele>1649.28</ele>
        <time>2011-08-12T10:26:53Z</time>
      </trkpt>
      <trkpt lat="43.8791" lon="6.61602">
        <ele>1655.05</ele>
        <time>2011-08-12T10:26:55Z</time>
      </trkpt>
      <trkpt lat="43.8791" lon="6.61601">
        <ele>1651.2</ele>
        <time>2011-08-12T10:26:57Z</time>
      </trkpt>
      <trkpt lat="43.8791" lon="6.61601">
        <ele>1653.6</ele>
        <time>2011-08-12T10:26:58Z</time>
      </trkpt>
      <trkpt lat="43.87911" lon="6.616">
        <ele>1649.76</ele>
        <time>2011-08-12T10:27:00Z</time>
      </trkpt>
      <trkpt lat="43.87912" lon="6.616">
        <ele>1654.09</ele>
        <time>2011-08-12T10:27:01Z</time>
      </trkpt>
      <trkpt lat="43.87913" lon="6.616">
        <ele>1652.64</ele>
        <time>2011-08-12T10:27:02Z</time>
      </trkpt>
      <trkpt lat="43.87914" lon="6.616">
        <ele>1651.68</ele>
        <time>2011-08-12T10:27:04Z</time>
      </trkpt>
      <trkpt lat="43.87913" lon="6.61597">
        <ele>1650.24</ele>
        <time>2011-08-12T10:27:13Z</time>
      </trkpt>
      <trkpt lat="43.8791" lon="6.61594">
        <ele>1654.57</ele>
        <time>2011-08-12T10:27:17Z</time>
      </trkpt>
      <trkpt lat="43.8791" lon="6.61594">
        <ele>1650.24</ele>
        <time>2011-08-12T10:27:18Z</time>
      </trkpt>
      <trkpt lat="43.8791" lon="6.61592">
        <ele>1644.95</ele>
        <time>2011-08-12T10:27:20Z</time>
      </trkpt>
      <trkpt lat="43.8791" lon="6.61592">
        <ele>1647.84</ele>
        <time>2011-08-12T10:27:21Z</time>
      </trkpt>
      <trkpt lat="43.87909" lon="6.6159">
        <ele>1649.76</ele>
        <time>2011-08-12T10:27:23Z</time>
      </trkpt>
      <trkpt lat="43.87908" lon="6.61588">
        <ele>1654.57</ele>
        <time>2011-08-12T10:27:31Z</time>
      </trkpt>
      <trkpt lat="43.87908" lon="6.61587">
        <ele>1647.36</ele>
        <time>2011-08-12T10:27:32Z</time>
      </trkpt>
      <trkpt lat="43.87908" lon="6.61587">
        <ele>1648.32</ele>
        <time>2011-08-12T10:27:33Z</time>
      </trkpt>
      <trkpt lat="43.87907" lon="6.61584">
        <ele>1653.6</ele>
        <time>2011-08-12T10:27:41Z</time>
      </trkpt>
      <trkpt lat="43.87907" lon="6.61583">
        <ele>1640.63</ele>
        <time>2011-08-12T10:27:42Z</time>
      </trkpt>
      <trkpt lat="43.87907" lon="6.61582">
        <ele>1645.91</ele>
        <time>2011-08-12T10:27:43Z</time>
      </trkpt>
      <trkpt lat="43.87907" lon="6.61578">
        <ele>1648.32</ele>
        <time>2011-08-12T10:27:48Z</time>
      </trkpt>
      <trkpt lat="43.87906" lon="6.61577">
        <ele>1649.28</ele>
        <time>2011-08-12T10:27:49Z</time>
      </trkpt>
      <trkpt lat="43.87898" lon="6.61569">
        <ele>1642.07</ele>
        <time>2011-08-12T10:27:58Z</time>
      </trkpt>
      <trkpt lat="43.87895" lon="6.61565">
        <ele>1645.43</ele>
        <time>2011-08-12T10:28:02Z</time>
      </trkpt>
      <trkpt lat="43.87894" lon="6.61564">
        <ele>1645.43</ele>
        <time>2011-08-12T10:28:03Z</time>
      </trkpt>
      <trkpt lat="43.87889" lon="6.61557">
        <ele>1641.11</ele>
        <time>2011-08-12T10:28:10Z</time>
      </trkpt>
      <trkpt lat="43.87888" lon="6.61556">
        <ele>1637.74</ele>
        <time>2011-08-12T10:28:11Z</time>
      </trkpt>
      <trkpt lat="43.87887" lon="6.61556">
        <ele>1639.67</ele>
        <time>2011-08-12T10:28:12Z</time>
      </trkpt>
      <trkpt lat="43.87885" lon="6.61554">
        <ele>1643.03</ele>
        <time>2011-08-12T10:28:14Z</time>
      </trkpt>
      <trkpt lat="43.87885" lon="6.61552">
        <ele>1642.07</ele>
        <time>2011-08-12T10:28:15Z</time>
      </trkpt>
      <trkpt lat="43.87883" lon="6.61551">
        <ele>1646.88</ele>
        <time>2011-08-12T10:28:17Z</time>
      </trkpt>
      <trkpt lat="43.87882" lon="6.6155">
        <ele>1641.11</ele>
        <time>2011-08-12T10:28:18Z</time>
      </trkpt>
      <trkpt lat="43.87881" lon="6.61549">
        <ele>1637.26</ele>
        <time>2011-08-12T10:28:19Z</time>
      </trkpt>
      <trkpt lat="43.8788" lon="6.61546">
        <ele>1641.59</ele>
        <time>2011-08-12T10:28:21Z</time>
      </trkpt>
      <trkpt lat="43.8788" lon="6.61545">
        <ele>1640.15</ele>
        <time>2011-08-12T10:28:22Z</time>
      </trkpt>
      <trkpt lat="43.87877" lon="6.61543">
        <ele>1643.99</ele>
        <time>2011-08-12T10:28:25Z</time>
      </trkpt>
      <trkpt lat="43.87876" lon="6.61542">
        <ele>1634.38</ele>
        <time>2011-08-12T10:28:26Z</time>
      </trkpt>
      <trkpt lat="43.87876" lon="6.61542">
        <ele>1637.74</ele>
        <time>2011-08-12T10:28:27Z</time>
      </trkpt>
      <trkpt lat="43.87875" lon="6.61541">
        <ele>1642.07</ele>
        <time>2011-08-12T10:28:28Z</time>
      </trkpt>
      <trkpt lat="43.87874" lon="6.61541">
        <ele>1648.8</ele>
        <time>2011-08-12T10:28:29Z</time>
      </trkpt>
      <trkpt lat="43.87874" lon="6.61541">
        <ele>1639.19</ele>
        <time>2011-08-12T10:28:30Z</time>
      </trkpt>
      <trkpt lat="43.87872" lon="6.61537">
        <ele>1637.74</ele>
        <time>2011-08-12T10:28:33Z</time>
      </trkpt>
      <trkpt lat="43.8787" lon="6.61535">
        <ele>1643.99</ele>
        <time>2011-08-12T10:28:35Z</time>
      </trkpt>
      <trkpt lat="43.87868" lon="6.61531">
        <ele>1638.7</ele>
        <time>2011-08-12T10:28:38Z</time>
      </trkpt>
      <trkpt lat="43.87868" lon="6.61531">
        <ele>1632.46</ele>
        <time>2011-08-12T10:28:39Z</time>
      </trkpt>
      <trkpt lat="43.87867" lon="6.6153">
        <ele>1636.3</ele>
        <time>2011-08-12T10:28:40Z</time>
      </trkpt>
      <trkpt lat="43.87866" lon="6.61529">
        <ele>1639.67</ele>
        <time>2011-08-12T10:28:43Z</time>
      </trkpt>
      <trkpt lat="43.87866" lon="6.61528">
        <ele>1634.86</ele>
        <time>2011-08-12T10:28:44Z</time>
      </trkpt>
      <trkpt lat="43.87864" lon="6.61527">
        <ele>1641.59</ele>
        <time>2011-08-12T10:28:46Z</time>
      </trkpt>
      <trkpt lat="43.87863" lon="6.61524">
        <ele>1634.38</ele>
        <time>2011-08-12T10:28:48Z</time>
      </trkpt>
      <trkpt lat="43.8786" lon="6.6152">
        <ele>1642.07</ele>
        <time>2011-08-12T10:28:53Z</time>
      </trkpt>
      <trkpt lat="43.87859" lon="6.61518">
        <ele>1641.11</ele>
        <time>2011-08-12T10:28:54Z</time>
      </trkpt>
      <trkpt lat="43.87858" lon="6.61516">
        <ele>1631.98</ele>
        <time>2011-08-12T10:28:56Z</time>
      </trkpt>
      <trkpt lat="43.87855" lon="6.61511">
        <ele>1634.86</ele>
        <time>2011-08-12T10:29:02Z</time>
      </trkpt>
      <trkpt lat="43.87854" lon="6.61509">
        <ele>1641.11</ele>
        <time>2011-08-12T10:29:04Z</time>
      </trkpt>
      <trkpt lat="43.87853" lon="6.61509">
        <ele>1634.86</ele>
        <time>2011-08-12T10:29:05Z</time>
      </trkpt>
      <trkpt lat="43.8785" lon="6.61505">
        <ele>1637.74</ele>
        <time>2011-08-12T10:29:12Z</time>
      </trkpt>
      <trkpt lat="43.87848" lon="6.61504">
        <ele>1634.86</ele>
        <time>2011-08-12T10:29:14Z</time>
      </trkpt>
      <trkpt lat="43.87844" lon="6.61503">
        <ele>1637.74</ele>
        <time>2011-08-12T10:29:18Z</time>
      </trkpt>
      <trkpt lat="43.87842" lon="6.61502">
        <ele>1634.86</ele>
        <time>2011-08-12T10:29:20Z</time>
      </trkpt>
      <trkpt lat="43.87841" lon="6.61499">
        <ele>1630.05</ele>
        <time>2011-08-12T10:29:24Z</time>
      </trkpt>
      <trkpt lat="43.87841" lon="6.61498">
        <ele>1635.82</ele>
        <time>2011-08-12T10:29:25Z</time>
      </trkpt>
      <trkpt lat="43.8784" lon="6.61497">
        <ele>1635.34</ele>
        <time>2011-08-12T10:29:26Z</time>
      </trkpt>
      <trkpt lat="43.87839" lon="6.61496">
        <ele>1629.57</ele>
        <time>2011-08-12T10:29:28Z</time>
      </trkpt>
      <trkpt lat="43.87838" lon="6.61495">
        <ele>1636.78</ele>
        <time>2011-08-12T10:29:29Z</time>
      </trkpt>
      <trkpt lat="43.87838" lon="6.61494">
        <ele>1640.15</ele>
        <time>2011-08-12T10:29:31Z</time>
      </trkpt>
      <trkpt lat="43.87837" lon="6.61493">
        <ele>1634.38</ele>
        <time>2011-08-12T10:29:32Z</time>
      </trkpt>
      <trkpt lat="43.87836" lon="6.61492">
        <ele>1640.15</ele>
        <time>2011-08-12T10:29:34Z</time>
      </trkpt>
      <trkpt lat="43.87835" lon="6.61492">
        <ele>1634.38</ele>
        <time>2011-08-12T10:29:35Z</time>
      </trkpt>
      <trkpt lat="43.87834" lon="6.6149">
        <ele>1630.05</ele>
        <time>2011-08-12T10:29:37Z</time>
      </trkpt>
      <trkpt lat="43.87833" lon="6.61489">
        <ele>1635.34</ele>
        <time>2011-08-12T10:29:38Z</time>
      </trkpt>
      <trkpt lat="43.87833" lon="6.61487">
        <ele>1631.49</ele>
        <time>2011-08-12T10:29:40Z</time>
      </trkpt>
      <trkpt lat="43.87832" lon="6.61486">
        <ele>1631.98</ele>
        <time>2011-08-12T10:29:41Z</time>
      </trkpt>
      <trkpt lat="43.87832" lon="6.61485">
        <ele>1635.34</ele>
        <time>2011-08-12T10:29:42Z</time>
      </trkpt>
      <trkpt lat="43.87832" lon="6.61485">
        <ele>1632.46</ele>
        <time>2011-08-12T10:29:43Z</time>
      </trkpt>
      <trkpt lat="43.87832" lon="6.61485">
        <ele>1629.09</ele>
        <time>2011-08-12T10:29:44Z</time>
      </trkpt>
      <trkpt lat="43.87832" lon="6.61484">
        <ele>1635.34</ele>
        <time>2011-08-12T10:29:45Z</time>
      </trkpt>
      <trkpt lat="43.87832" lon="6.61482">
        <ele>1630.53</ele>
        <time>2011-08-12T10:29:47Z</time>
      </trkpt>
      <trkpt lat="43.87832" lon="6.61481">
        <ele>1627.65</ele>
        <time>2011-08-12T10:29:48Z</time>
      </trkpt>
      <trkpt lat="43.87831" lon="6.61477">
        <ele>1627.17</ele>
        <time>2011-08-12T10:29:51Z</time>
      </trkpt>
      <trkpt lat="43.8783" lon="6.61476">
        <ele>1632.46</ele>
        <time>2011-08-12T10:29:52Z</time>
      </trkpt>
      <trkpt lat="43.8783" lon="6.61476">
        <ele>1633.42</ele>
        <time>2011-08-12T10:29:57Z</time>
      </trkpt>
      <trkpt lat="43.8783" lon="6.61476">
        <ele>1630.05</ele>
        <time>2011-08-12T10:29:59Z</time>
      </trkpt>
      <trkpt lat="43.8783" lon="6.61475">
        <ele>1638.7</ele>
        <time>2011-08-12T10:30:04Z</time>
      </trkpt>
      <trkpt lat="43.8783" lon="6.61475">
        <ele>1630.53</ele>
        <time>2011-08-12T10:30:05Z</time>
      </trkpt>
      <trkpt lat="43.8783" lon="6.61475">
        <ele>1634.86</ele>
        <time>2011-08-12T10:30:20Z</time>
      </trkpt>
      <trkpt lat="43.8783" lon="6.61475">
        <ele>1631.98</ele>
        <time>2011-08-12T10:30:21Z</time>
      </trkpt>
      <trkpt lat="43.87829" lon="6.61475">
        <ele>1630.53</ele>
        <time>2011-08-12T10:30:34Z</time>
      </trkpt>
      <trkpt lat="43.87829" lon="6.61475">
        <ele>1630.53</ele>
        <time>2011-08-12T10:31:31Z</time>
      </trkpt>
      <trkpt lat="43.87829" lon="6.61475">
        <ele>1629.57</ele>
        <time>2011-08-12T10:31:45Z</time>
      </trkpt>
      <trkpt lat="43.8783" lon="6.61475">
        <ele>1632.94</ele>
        <time>2011-08-12T10:31:55Z</time>
      </trkpt>
      <trkpt lat="43.8783" lon="6.61475">
        <ele>1632.94</ele>
        <time>2011-08-12T10:31:56Z</time>
      </trkpt>
      <trkpt lat="43.8783" lon="6.61475">
        <ele>1627.65</ele>
        <time>2011-08-12T10:31:57Z</time>
      </trkpt>
      <trkpt lat="43.8783" lon="6.61475">
        <ele>1631.98</ele>
        <time>2011-08-12T10:31:58Z</time>
      </trkpt>
      <trkpt lat="43.8783" lon="6.61475">
        <ele>1628.61</ele>
        <time>2011-08-12T10:32:06Z</time>
      </trkpt>
      <trkpt lat="43.8783" lon="6.61476">
        <ele>1633.42</ele>
        <time>2011-08-12T10:32:09Z</time>
      </trkpt>
      <trkpt lat="43.87831" lon="6.61478">
        <ele>1632.94</ele>
        <time>2011-08-12T10:32:17Z</time>
      </trkpt>
      <trkpt lat="43.8783" lon="6.61476">
        <ele>1631.01</ele>
        <time>2011-08-12T10:32:19Z</time>
      </trkpt>
      <trkpt lat="43.87828" lon="6.61472">
        <ele>1631.49</ele>
        <time>2011-08-12T10:32:23Z</time>
      </trkpt>
      <trkpt lat="43.87829" lon="6.61466">
        <ele>1627.17</ele>
        <time>2011-08-12T10:32:27Z</time>
      </trkpt>
      <trkpt lat="43.87828" lon="6.61463">
        <ele>1630.53</ele>
        <time>2011-08-12T10:32:29Z</time>
      </trkpt>
      <trkpt lat="43.87828" lon="6.61452">
        <ele>1624.77</ele>
        <time>2011-08-12T10:32:36Z</time>
      </trkpt>
      <trkpt lat="43.87829" lon="6.61451">
        <ele>1625.73</ele>
        <time>2011-08-12T10:32:37Z</time>
      </trkpt>
      <trkpt lat="43.87829" lon="6.6145">
        <ele>1630.05</ele>
        <time>2011-08-12T10:32:38Z</time>
      </trkpt>
      <trkpt lat="43.8783" lon="6.61449">
        <ele>1628.13</ele>
        <time>2011-08-12T10:32:39Z</time>
      </trkpt>
      <trkpt lat="43.87829" lon="6.61445">
        <ele>1628.61</ele>
        <time>2011-08-12T10:32:43Z</time>
      </trkpt>
      <trkpt lat="43.87828" lon="6.61433">
        <ele>1626.21</ele>
        <time>2011-08-12T10:32:51Z</time>
      </trkpt>
      <trkpt lat="43.87828" lon="6.61432">
        <ele>1622.84</ele>
        <time>2011-08-12T10:32:52Z</time>
      </trkpt>
      <trkpt lat="43.87828" lon="6.61431">
        <ele>1627.17</ele>
        <time>2011-08-12T10:32:53Z</time>
      </trkpt>
      <trkpt lat="43.87827" lon="6.6143">
        <ele>1627.65</ele>
        <time>2011-08-12T10:32:54Z</time>
      </trkpt>
      <trkpt lat="43.87825" lon="6.61421">
        <ele>1624.28</ele>
        <time>2011-08-12T10:33:00Z</time>
      </trkpt>
      <trkpt lat="43.87824" lon="6.6142">
        <ele>1625.73</ele>
        <time>2011-08-12T10:33:01Z</time>
      </trkpt>
      <trkpt lat="43.87823" lon="6.61412">
        <ele>1627.17</ele>
        <time>2011-08-12T10:33:07Z</time>
      </trkpt>
      <trkpt lat="43.87825" lon="6.61406">
        <ele>1621.88</ele>
        <time>2011-08-12T10:33:12Z</time>
      </trkpt>
      <trkpt lat="43.87824" lon="6.61403">
        <ele>1623.8</ele>
        <time>2011-08-12T10:33:14Z</time>
      </trkpt>
      <trkpt lat="43.87824" lon="6.61396">
        <ele>1626.21</ele>
        <time>2011-08-12T10:33:20Z</time>
      </trkpt>
      <trkpt lat="43.87825" lon="6.61392">
        <ele>1622.36</ele>
        <time>2011-08-12T10:33:22Z</time>
      </trkpt>
      <trkpt lat="43.87826" lon="6.61389">
        <ele>1620.44</ele>
        <time>2011-08-12T10:33:24Z</time>
      </trkpt>
      <trkpt lat="43.87826" lon="6.61387">
        <ele>1619.96</ele>
        <time>2011-08-12T10:33:25Z</time>
      </trkpt>
      <trkpt lat="43.87826" lon="6.61384">
        <ele>1623.8</ele>
        <time>2011-08-12T10:33:27Z</time>
      </trkpt>
      <trkpt lat="43.87827" lon="6.61375">
        <ele>1620.44</ele>
        <time>2011-08-12T10:33:33Z</time>
      </trkpt>
      <trkpt lat="43.87827" lon="6.61362">
        <ele>1622.36</ele>
        <time>2011-08-12T10:33:39Z</time>
      </trkpt>
      <trkpt lat="43.8783" lon="6.6135">
        <ele>1620.92</ele>
        <time>2011-08-12T10:33:48Z</time>
      </trkpt>
      <trkpt lat="43.87831" lon="6.61335">
        <ele>1619.48</ele>
        <time>2011-08-12T10:33:59Z</time>
      </trkpt>
      <trkpt lat="43.87832" lon="6.61334">
        <ele>1622.84</ele>
        <time>2011-08-12T10:34:00Z</time>
      </trkpt>
      <trkpt lat="43.87834" lon="6.61333">
        <ele>1635.82</ele>
        <time>2011-08-12T10:34:11Z</time>
      </trkpt>
      <trkpt lat="43.87834" lon="6.61333">
        <ele>1623.8</ele>
        <time>2011-08-12T10:34:12Z</time>
      </trkpt>
      <trkpt lat="43.87834" lon="6.61333">
        <ele>1622.36</ele>
        <time>2011-08-12T10:34:14Z</time>
      </trkpt>
      <trkpt lat="43.87834" lon="6.61334">
        <ele>1622.84</ele>
        <time>2011-08-12T10:34:27Z</time>
      </trkpt>
      <trkpt lat="43.87835" lon="6.61333">
        <ele>1621.88</ele>
        <time>2011-08-12T10:34:37Z</time>
      </trkpt>
      <trkpt lat="43.87834" lon="6.61328">
        <ele>1623.32</ele>
        <time>2011-08-12T10:35:38Z</time>
      </trkpt>
      <trkpt lat="43.87835" lon="6.61323">
        <ele>1626.69</ele>
        <time>2011-08-12T10:35:44Z</time>
      </trkpt>
      <trkpt lat="43.87835" lon="6.61322">
        <ele>1622.84</ele>
        <time>2011-08-12T10:35:45Z</time>
      </trkpt>
      <trkpt lat="43.87835" lon="6.61317">
        <ele>1625.73</ele>
        <time>2011-08-12T10:35:51Z</time>
      </trkpt>
      <trkpt lat="43.87836" lon="6.61309">
        <ele>1626.21</ele>
        <time>2011-08-12T10:36:01Z</time>
      </trkpt>
      <trkpt lat="43.87837" lon="6.61304">
        <ele>1628.61</ele>
        <time>2011-08-12T10:36:11Z</time>
      </trkpt>
      <trkpt lat="43.87837" lon="6.61303">
        <ele>1627.65</ele>
        <time>2011-08-12T10:36:12Z</time>
      </trkpt>
      <trkpt lat="43.87837" lon="6.61299">
        <ele>1628.61</ele>
        <time>2011-08-12T10:36:21Z</time>
      </trkpt>
      <trkpt lat="43.87838" lon="6.61291">
        <ele>1629.09</ele>
        <time>2011-08-12T10:36:30Z</time>
      </trkpt>
      <trkpt lat="43.87841" lon="6.61286">
        <ele>1630.05</ele>
        <time>2011-08-12T10:36:40Z</time>
      </trkpt>
      <trkpt lat="43.87841" lon="6.61282">
        <ele>1631.49</ele>
        <time>2011-08-12T10:36:50Z</time>
      </trkpt>
      <trkpt lat="43.87842" lon="6.61277">
        <ele>1632.94</ele>
        <time>2011-08-12T10:36:59Z</time>
      </trkpt>
      <trkpt lat="43.87841" lon="6.61274">
        <ele>1633.9</ele>
        <time>2011-08-12T10:37:10Z</time>
      </trkpt>
      <trkpt lat="43.87837" lon="6.61263">
        <ele>1635.34</ele>
        <time>2011-08-12T10:37:21Z</time>
      </trkpt>
      <trkpt lat="43.87835" lon="6.61256">
        <ele>1635.34</ele>
        <time>2011-08-12T10:37:33Z</time>
      </trkpt>
      <trkpt lat="43.87836" lon="6.61248">
        <ele>1636.78</ele>
        <time>2011-08-12T10:37:43Z</time>
      </trkpt>
      <trkpt lat="43.87834" lon="6.6124">
        <ele>1637.26</ele>
        <time>2011-08-12T10:37:53Z</time>
      </trkpt>
      <trkpt lat="43.87833" lon="6.61236">
        <ele>1637.74</ele>
        <time>2011-08-12T10:37:59Z</time>
      </trkpt>
      <trkpt lat="43.87833" lon="6.61228">
        <ele>1638.7</ele>
        <time>2011-08-12T10:38:09Z</time>
      </trkpt>
      <trkpt lat="43.87834" lon="6.61221">
        <ele>1639.19</ele>
        <time>2011-08-12T10:38:19Z</time>
      </trkpt>
      <trkpt lat="43.87838" lon="6.61222">
        <ele>1639.67</ele>
        <time>2011-08-12T10:38:28Z</time>
      </trkpt>
      <trkpt lat="43.87834" lon="6.61219">
        <ele>1639.19</ele>
        <time>2011-08-12T10:39:09Z</time>
      </trkpt>
      <trkpt lat="43.87833" lon="6.61212">
        <ele>1637.74</ele>
        <time>2011-08-12T10:39:18Z</time>
      </trkpt>
      <trkpt lat="43.87834" lon="6.61211">
        <ele>1637.26</ele>
        <time>2011-08-12T10:39:28Z</time>
      </trkpt>
      <trkpt lat="43.87833" lon="6.6121">
        <ele>1637.26</ele>
        <time>2011-08-12T10:39:37Z</time>
      </trkpt>
      <trkpt lat="43.87827" lon="6.61202">
        <ele>1636.3</ele>
        <time>2011-08-12T10:39:46Z</time>
      </trkpt>
      <trkpt lat="43.87824" lon="6.61191">
        <ele>1635.82</ele>
        <time>2011-08-12T10:39:56Z</time>
      </trkpt>
      <trkpt lat="43.87823" lon="6.61183">
        <ele>1635.34</ele>
        <time>2011-08-12T10:40:05Z</time>
      </trkpt>
      <trkpt lat="43.87822" lon="6.61181">
        <ele>1633.9</ele>
        <time>2011-08-12T10:40:15Z</time>
      </trkpt>
      <trkpt lat="43.87821" lon="6.61179">
        <ele>1634.38</ele>
        <time>2011-08-12T10:40:26Z</time>
      </trkpt>
      <trkpt lat="43.87819" lon="6.61176">
        <ele>1633.42</ele>
        <time>2011-08-12T10:40:28Z</time>
      </trkpt>
      <trkpt lat="43.87814" lon="6.6117">
        <ele>1632.94</ele>
        <time>2011-08-12T10:40:36Z</time>
      </trkpt>
      <trkpt lat="43.87807" lon="6.61161">
        <ele>1632.94</ele>
        <time>2011-08-12T10:40:45Z</time>
      </trkpt>
      <trkpt lat="43.87802" lon="6.6115">
        <ele>1633.9</ele>
        <time>2011-08-12T10:40:55Z</time>
      </trkpt>
      <trkpt lat="43.87797" lon="6.61143">
        <ele>1635.82</ele>
        <time>2011-08-12T10:41:02Z</time>
      </trkpt>
      <trkpt lat="43.87796" lon="6.61141">
        <ele>1633.42</ele>
        <time>2011-08-12T10:41:11Z</time>
      </trkpt>
      <trkpt lat="43.87796" lon="6.61138">
        <ele>1632.94</ele>
        <time>2011-08-12T10:41:20Z</time>
      </trkpt>
      <trkpt lat="43.87795" lon="6.61138">
        <ele>1632.46</ele>
        <time>2011-08-12T10:41:28Z</time>
      </trkpt>
      <trkpt lat="43.87795" lon="6.61137">
        <ele>1631.98</ele>
        <time>2011-08-12T10:41:38Z</time>
      </trkpt>
      <trkpt lat="43.87795" lon="6.61137">
        <ele>1631.49</ele>
        <time>2011-08-12T10:41:59Z</time>
      </trkpt>
      <trkpt lat="43.87795" lon="6.61137">
        <ele>1635.82</ele>
        <time>2011-08-12T10:43:46Z</time>
      </trkpt>
      <trkpt lat="43.87795" lon="6.61138">
        <ele>1632.46</ele>
        <time>2011-08-12T10:43:47Z</time>
      </trkpt>
      <trkpt lat="43.87794" lon="6.61136">
        <ele>1631.49</ele>
        <time>2011-08-12T10:43:52Z</time>
      </trkpt>
      <trkpt lat="43.87795" lon="6.61136">
        <ele>1631.01</ele>
        <time>2011-08-12T10:44:00Z</time>
      </trkpt>
      <trkpt lat="43.87794" lon="6.61135">
        <ele>1630.53</ele>
        <time>2011-08-12T10:44:09Z</time>
      </trkpt>
      <trkpt lat="43.87792" lon="6.61134">
        <ele>1629.57</ele>
        <time>2011-08-12T10:44:21Z</time>
      </trkpt>
      <trkpt lat="43.87788" lon="6.61134">
        <ele>1628.13</ele>
        <time>2011-08-12T10:44:31Z</time>
      </trkpt>
      <trkpt lat="43.87788" lon="6.61132">
        <ele>1626.69</ele>
        <time>2011-08-12T10:44:41Z</time>
      </trkpt>
      <trkpt lat="43.87788" lon="6.61132">
        <ele>1630.05</ele>
        <time>2011-08-12T10:44:43Z</time>
      </trkpt>
      <trkpt lat="43.87788" lon="6.61132">
        <ele>1626.21</ele>
        <time>2011-08-12T10:44:44Z</time>
      </trkpt>
      <trkpt lat="43.87785" lon="6.61123">
        <ele>1624.77</ele>
        <time>2011-08-12T10:44:54Z</time>
      </trkpt>
      <trkpt lat="43.87786" lon="6.61117">
        <ele>1623.32</ele>
        <time>2011-08-12T10:45:03Z</time>
      </trkpt>
      <trkpt lat="43.87783" lon="6.61115">
        <ele>1622.84</ele>
        <time>2011-08-12T10:45:13Z</time>
      </trkpt>
      <trkpt lat="43.87782" lon="6.61107">
        <ele>1620.44</ele>
        <time>2011-08-12T10:45:23Z</time>
      </trkpt>
      <trkpt lat="43.87783" lon="6.61101">
        <ele>1618.52</ele>
        <time>2011-08-12T10:45:33Z</time>
      </trkpt>
      <trkpt lat="43.87781" lon="6.61101">
        <ele>1619</ele>
        <time>2011-08-12T10:45:43Z</time>
      </trkpt>
      <trkpt lat="43.8778" lon="6.61097">
        <ele>1616.59</ele>
        <time>2011-08-12T10:45:56Z</time>
      </trkpt>
      <trkpt lat="43.87779" lon="6.61092">
        <ele>1614.67</ele>
        <time>2011-08-12T10:46:07Z</time>
      </trkpt>
      <trkpt lat="43.87783" lon="6.61087">
        <ele>1613.23</ele>
        <time>2011-08-12T10:46:16Z</time>
      </trkpt>
      <trkpt lat="43.87781" lon="6.61085">
        <ele>1612.27</ele>
        <time>2011-08-12T10:46:26Z</time>
      </trkpt>
      <trkpt lat="43.87783" lon="6.61078">
        <ele>1609.86</ele>
        <time>2011-08-12T10:46:36Z</time>
      </trkpt>
      <trkpt lat="43.87785" lon="6.61074">
        <ele>1608.9</ele>
        <time>2011-08-12T10:46:46Z</time>
      </trkpt>
      <trkpt lat="43.87778" lon="6.6107">
        <ele>1607.46</ele>
        <time>2011-08-12T10:46:57Z</time>
      </trkpt>
      <trkpt lat="43.87771" lon="6.61064">
        <ele>1605.54</ele>
        <time>2011-08-12T10:47:09Z</time>
      </trkpt>
      <trkpt lat="43.8777" lon="6.61062">
        <ele>1605.54</ele>
        <time>2011-08-12T10:47:25Z</time>
      </trkpt>
      <trkpt lat="43.8777" lon="6.61055">
        <ele>1604.1</ele>
        <time>2011-08-12T10:47:34Z</time>
      </trkpt>
      <trkpt lat="43.8777" lon="6.61053">
        <ele>1603.14</ele>
        <time>2011-08-12T10:47:36Z</time>
      </trkpt>
      <trkpt lat="43.87773" lon="6.61048">
        <ele>1601.69</ele>
        <time>2011-08-12T10:47:41Z</time>
      </trkpt>
      <trkpt lat="43.87777" lon="6.61039">
        <ele>1599.77</ele>
        <time>2011-08-12T10:47:51Z</time>
      </trkpt>
      <trkpt lat="43.87776" lon="6.61034">
        <ele>1598.33</ele>
        <time>2011-08-12T10:48:01Z</time>
      </trkpt>
      <trkpt lat="43.87775" lon="6.61027">
        <ele>1597.37</ele>
        <time>2011-08-12T10:48:10Z</time>
      </trkpt>
      <trkpt lat="43.87779" lon="6.6102">
        <ele>1595.45</ele>
        <time>2011-08-12T10:48:19Z</time>
      </trkpt>
      <trkpt lat="43.87779" lon="6.61012">
        <ele>1594.48</ele>
        <time>2011-08-12T10:48:28Z</time>
      </trkpt>
      <trkpt lat="43.8778" lon="6.61008">
        <ele>1593.52</ele>
        <time>2011-08-12T10:48:32Z</time>
      </trkpt>
      <trkpt lat="43.87785" lon="6.60996">
        <ele>1591.12</ele>
        <time>2011-08-12T10:48:43Z</time>
      </trkpt>
      <trkpt lat="43.87784" lon="6.60993">
        <ele>1590.64</ele>
        <time>2011-08-12T10:48:47Z</time>
      </trkpt>
      <trkpt lat="43.87778" lon="6.60983">
        <ele>1589.68</ele>
        <time>2011-08-12T10:48:58Z</time>
      </trkpt>
      <trkpt lat="43.87773" lon="6.60974">
        <ele>1587.75</ele>
        <time>2011-08-12T10:49:11Z</time>
      </trkpt>
      <trkpt lat="43.87774" lon="6.60967">
        <ele>1587.27</ele>
        <time>2011-08-12T10:49:19Z</time>
      </trkpt>
      <trkpt lat="43.87775" lon="6.60965">
        <ele>1586.31</ele>
        <time>2011-08-12T10:49:21Z</time>
      </trkpt>
      <trkpt lat="43.87775" lon="6.60953">
        <ele>1585.83</ele>
        <time>2011-08-12T10:49:32Z</time>
      </trkpt>
      <trkpt lat="43.87776" lon="6.60941">
        <ele>1584.39</ele>
        <time>2011-08-12T10:49:43Z</time>
      </trkpt>
      <trkpt lat="43.87777" lon="6.60931">
        <ele>1582.47</ele>
        <time>2011-08-12T10:49:52Z</time>
      </trkpt>
      <trkpt lat="43.87776" lon="6.60919">
        <ele>1581.99</ele>
        <time>2011-08-12T10:50:02Z</time>
      </trkpt>
      <trkpt lat="43.87775" lon="6.6091">
        <ele>1581.51</ele>
        <time>2011-08-12T10:50:09Z</time>
      </trkpt>
      <trkpt lat="43.87775" lon="6.60907">
        <ele>1581.51</ele>
        <time>2011-08-12T10:50:11Z</time>
      </trkpt>
      <trkpt lat="43.87776" lon="6.60901">
        <ele>1581.03</ele>
        <time>2011-08-12T10:50:16Z</time>
      </trkpt>
      <trkpt lat="43.87775" lon="6.60892">
        <ele>1581.03</ele>
        <time>2011-08-12T10:50:26Z</time>
      </trkpt>
      <trkpt lat="43.87776" lon="6.60889">
        <ele>1581.03</ele>
        <time>2011-08-12T10:50:28Z</time>
      </trkpt>
      <trkpt lat="43.87778" lon="6.60882">
        <ele>1581.99</ele>
        <time>2011-08-12T10:50:33Z</time>
      </trkpt>
      <trkpt lat="43.87786" lon="6.6087">
        <ele>1582.95</ele>
        <time>2011-08-12T10:50:45Z</time>
      </trkpt>
      <trkpt lat="43.87791" lon="6.60862">
        <ele>1582.95</ele>
        <time>2011-08-12T10:50:55Z</time>
      </trkpt>
      <trkpt lat="43.87796" lon="6.6085">
        <ele>1583.43</ele>
        <time>2011-08-12T10:51:05Z</time>
      </trkpt>
      <trkpt lat="43.87801" lon="6.60839">
        <ele>1584.87</ele>
        <time>2011-08-12T10:51:17Z</time>
      </trkpt>
      <trkpt lat="43.87804" lon="6.60833">
        <ele>1585.35</ele>
        <time>2011-08-12T10:51:27Z</time>
      </trkpt>
      <trkpt lat="43.87804" lon="6.60832">
        <ele>1585.35</ele>
        <time>2011-08-12T10:51:32Z</time>
      </trkpt>
      <trkpt lat="43.87806" lon="6.60819">
        <ele>1587.27</ele>
        <time>2011-08-12T10:51:43Z</time>
      </trkpt>
      <trkpt lat="43.87807" lon="6.60818">
        <ele>1587.27</ele>
        <time>2011-08-12T10:51:56Z</time>
      </trkpt>
      <trkpt lat="43.87807" lon="6.60812">
        <ele>1587.75</ele>
        <time>2011-08-12T10:52:15Z</time>
      </trkpt>
      <trkpt lat="43.87809" lon="6.60801">
        <ele>1588.72</ele>
        <time>2011-08-12T10:52:25Z</time>
      </trkpt>
      <trkpt lat="43.87809" lon="6.60797">
        <ele>1587.75</ele>
        <time>2011-08-12T10:52:28Z</time>
      </trkpt>
      <trkpt lat="43.87809" lon="6.60794">
        <ele>1587.75</ele>
        <time>2011-08-12T10:52:30Z</time>
      </trkpt>
      <trkpt lat="43.8781" lon="6.60784">
        <ele>1589.2</ele>
        <time>2011-08-12T10:52:40Z</time>
      </trkpt>
      <trkpt lat="43.87812" lon="6.60775">
        <ele>1589.2</ele>
        <time>2011-08-12T10:52:48Z</time>
      </trkpt>
      <trkpt lat="43.87817" lon="6.6076">
        <ele>1588.72</ele>
        <time>2011-08-12T10:53:01Z</time>
      </trkpt>
      <trkpt lat="43.87817" lon="6.60758">
        <ele>1589.2</ele>
        <time>2011-08-12T10:53:17Z</time>
      </trkpt>
      <trkpt lat="43.87812" lon="6.6075">
        <ele>1590.16</ele>
        <time>2011-08-12T10:53:29Z</time>
      </trkpt>
      <trkpt lat="43.87811" lon="6.60748">
        <ele>1589.68</ele>
        <time>2011-08-12T10:53:43Z</time>
      </trkpt>
      <trkpt lat="43.87808" lon="6.60747">
        <ele>1590.64</ele>
        <time>2011-08-12T10:53:52Z</time>
      </trkpt>
      <trkpt lat="43.87808" lon="6.60746">
        <ele>1589.68</ele>
        <time>2011-08-12T10:54:12Z</time>
      </trkpt>
      <trkpt lat="43.87808" lon="6.60745">
        <ele>1590.16</ele>
        <time>2011-08-12T10:54:40Z</time>
      </trkpt>
      <trkpt lat="43.87808" lon="6.60746">
        <ele>1591.6</ele>
        <time>2011-08-12T10:54:55Z</time>
      </trkpt>
      <trkpt lat="43.87808" lon="6.60744">
        <ele>1590.64</ele>
        <time>2011-08-12T10:55:07Z</time>
      </trkpt>
      <trkpt lat="43.87811" lon="6.60741">
        <ele>1589.68</ele>
        <time>2011-08-12T10:55:13Z</time>
      </trkpt>
      <trkpt lat="43.87815" lon="6.60738">
        <ele>1590.16</ele>
        <time>2011-08-12T10:55:17Z</time>
      </trkpt>
      <trkpt lat="43.87817" lon="6.60735">
        <ele>1589.2</ele>
        <time>2011-08-12T10:55:20Z</time>
      </trkpt>
      <trkpt lat="43.87821" lon="6.60729">
        <ele>1589.68</ele>
        <time>2011-08-12T10:55:32Z</time>
      </trkpt>
      <trkpt lat="43.8782" lon="6.60729">
        <ele>1589.68</ele>
        <time>2011-08-12T10:55:41Z</time>
      </trkpt>
      <trkpt lat="43.87824" lon="6.60725">
        <ele>1589.2</ele>
        <time>2011-08-12T10:55:50Z</time>
      </trkpt>
      <trkpt lat="43.87825" lon="6.60724">
        <ele>1589.68</ele>
        <time>2011-08-12T10:55:51Z</time>
      </trkpt>
      <trkpt lat="43.87828" lon="6.60722">
        <ele>1589.68</ele>
        <time>2011-08-12T10:55:54Z</time>
      </trkpt>
      <trkpt lat="43.87837" lon="6.60716">
        <ele>1590.64</ele>
        <time>2011-08-12T10:56:05Z</time>
      </trkpt>
      <trkpt lat="43.87845" lon="6.60711">
        <ele>1592.08</ele>
        <time>2011-08-12T10:56:16Z</time>
      </trkpt>
      <trkpt lat="43.87853" lon="6.60705">
        <ele>1593.52</ele>
        <time>2011-08-12T10:56:27Z</time>
      </trkpt>
      <trkpt lat="43.87858" lon="6.60697">
        <ele>1594.48</ele>
        <time>2011-08-12T10:56:36Z</time>
      </trkpt>
      <trkpt lat="43.87859" lon="6.60694">
        <ele>1594.96</ele>
        <time>2011-08-12T10:56:40Z</time>
      </trkpt>
      <trkpt lat="43.87862" lon="6.60688">
        <ele>1595.45</ele>
        <time>2011-08-12T10:56:49Z</time>
      </trkpt>
      <trkpt lat="43.87864" lon="6.60678">
        <ele>1595.45</ele>
        <time>2011-08-12T10:56:58Z</time>
      </trkpt>
      <trkpt lat="43.87868" lon="6.60667">
        <ele>1596.89</ele>
        <time>2011-08-12T10:57:10Z</time>
      </trkpt>
      <trkpt lat="43.87872" lon="6.6066">
        <ele>1597.37</ele>
        <time>2011-08-12T10:57:18Z</time>
      </trkpt>
      <trkpt lat="43.87874" lon="6.60657">
        <ele>1596.89</ele>
        <time>2011-08-12T10:57:28Z</time>
      </trkpt>
      <trkpt lat="43.87872" lon="6.60658">
        <ele>1597.37</ele>
        <time>2011-08-12T10:57:40Z</time>
      </trkpt>
      <trkpt lat="43.87871" lon="6.60658">
        <ele>1598.33</ele>
        <time>2011-08-12T10:57:43Z</time>
      </trkpt>
      <trkpt lat="43.87869" lon="6.60652">
        <ele>1599.29</ele>
        <time>2011-08-12T10:57:52Z</time>
      </trkpt>
      <trkpt lat="43.87869" lon="6.60643">
        <ele>1599.77</ele>
        <time>2011-08-12T10:58:03Z</time>
      </trkpt>
      <trkpt lat="43.87865" lon="6.60643">
        <ele>1600.73</ele>
        <time>2011-08-12T10:58:12Z</time>
      </trkpt>
      <trkpt lat="43.87863" lon="6.60636">
        <ele>1602.66</ele>
        <time>2011-08-12T10:58:21Z</time>
      </trkpt>
      <trkpt lat="43.87862" lon="6.60624">
        <ele>1602.66</ele>
        <time>2011-08-12T10:58:31Z</time>
      </trkpt>
      <trkpt lat="43.87857" lon="6.60625">
        <ele>1604.1</ele>
        <time>2011-08-12T10:58:39Z</time>
      </trkpt>
      <trkpt lat="43.87855" lon="6.60625">
        <ele>1604.58</ele>
        <time>2011-08-12T10:58:43Z</time>
      </trkpt>
      <trkpt lat="43.87855" lon="6.60623">
        <ele>1605.06</ele>
        <time>2011-08-12T10:58:45Z</time>
      </trkpt>
      <trkpt lat="43.87856" lon="6.60614">
        <ele>1605.54</ele>
        <time>2011-08-12T10:58:54Z</time>
      </trkpt>
      <trkpt lat="43.87854" lon="6.60611">
        <ele>1606.02</ele>
        <time>2011-08-12T10:58:59Z</time>
      </trkpt>
      <trkpt lat="43.87853" lon="6.60604">
        <ele>1606.02</ele>
        <time>2011-08-12T10:59:06Z</time>
      </trkpt>
      <trkpt lat="43.87854" lon="6.60596">
        <ele>1607.46</ele>
        <time>2011-08-12T10:59:15Z</time>
      </trkpt>
      <trkpt lat="43.87853" lon="6.60596">
        <ele>1607.46</ele>
        <time>2011-08-12T10:59:17Z</time>
      </trkpt>
      <trkpt lat="43.87844" lon="6.60597">
        <ele>1607.94</ele>
        <time>2011-08-12T10:59:29Z</time>
      </trkpt>
      <trkpt lat="43.87847" lon="6.60586">
        <ele>1609.86</ele>
        <time>2011-08-12T10:59:40Z</time>
      </trkpt>
      <trkpt lat="43.87848" lon="6.60578">
        <ele>1611.31</ele>
        <time>2011-08-12T10:59:50Z</time>
      </trkpt>
      <trkpt lat="43.87841" lon="6.60579">
        <ele>1611.79</ele>
        <time>2011-08-12T10:59:59Z</time>
      </trkpt>
      <trkpt lat="43.87842" lon="6.60572">
        <ele>1612.27</ele>
        <time>2011-08-12T11:00:08Z</time>
      </trkpt>
      <trkpt lat="43.87845" lon="6.60563">
        <ele>1612.75</ele>
        <time>2011-08-12T11:00:18Z</time>
      </trkpt>
      <trkpt lat="43.87842" lon="6.60561">
        <ele>1615.15</ele>
        <time>2011-08-12T11:00:29Z</time>
      </trkpt>
      <trkpt lat="43.87838" lon="6.60563">
        <ele>1615.15</ele>
        <time>2011-08-12T11:00:33Z</time>
      </trkpt>
      <trkpt lat="43.87836" lon="6.60559">
        <ele>1615.63</ele>
        <time>2011-08-12T11:00:37Z</time>
      </trkpt>
      <trkpt lat="43.87838" lon="6.60554">
        <ele>1616.59</ele>
        <time>2011-08-12T11:00:42Z</time>
      </trkpt>
      <trkpt lat="43.87837" lon="6.60547">
        <ele>1617.56</ele>
        <time>2011-08-12T11:00:52Z</time>
      </trkpt>
      <trkpt lat="43.87832" lon="6.60548">
        <ele>1618.04</ele>
        <time>2011-08-12T11:01:02Z</time>
      </trkpt>
      <trkpt lat="43.87826" lon="6.60547">
        <ele>1619</ele>
        <time>2011-08-12T11:01:08Z</time>
      </trkpt>
      <trkpt lat="43.87824" lon="6.60544">
        <ele>1619.48</ele>
        <time>2011-08-12T11:01:11Z</time>
      </trkpt>
      <trkpt lat="43.87827" lon="6.60534">
        <ele>1620.44</ele>
        <time>2011-08-12T11:01:22Z</time>
      </trkpt>
      <trkpt lat="43.87827" lon="6.60525">
        <ele>1621.4</ele>
        <time>2011-08-12T11:01:30Z</time>
      </trkpt>
      <trkpt lat="43.87827" lon="6.60514">
        <ele>1621.88</ele>
        <time>2011-08-12T11:01:41Z</time>
      </trkpt>
      <trkpt lat="43.87825" lon="6.60512">
        <ele>1621.88</ele>
        <time>2011-08-12T11:01:44Z</time>
      </trkpt>
      <trkpt lat="43.87821" lon="6.60508">
        <ele>1621.88</ele>
        <time>2011-08-12T11:01:49Z</time>
      </trkpt>
      <trkpt lat="43.8782" lon="6.60502">
        <ele>1622.36</ele>
        <time>2011-08-12T11:01:58Z</time>
      </trkpt>
      <trkpt lat="43.87819" lon="6.60505">
        <ele>1622.36</ele>
        <time>2011-08-12T11:02:06Z</time>
      </trkpt>
      <trkpt lat="43.87818" lon="6.60505">
        <ele>1622.36</ele>
        <time>2011-08-12T11:02:07Z</time>
      </trkpt>
      <trkpt lat="43.87817" lon="6.60502">
        <ele>1622.84</ele>
        <time>2011-08-12T11:02:11Z</time>
      </trkpt>
      <trkpt lat="43.87818" lon="6.60498">
        <ele>1621.88</ele>
        <time>2011-08-12T11:02:22Z</time>
      </trkpt>
      <trkpt lat="43.87816" lon="6.60488">
        <ele>1621.4</ele>
        <time>2011-08-12T11:02:31Z</time>
      </trkpt>
      <trkpt lat="43.87816" lon="6.60486">
        <ele>1620.44</ele>
        <time>2011-08-12T11:02:42Z</time>
      </trkpt>
      <trkpt lat="43.87816" lon="6.60486">
        <ele>1621.88</ele>
        <time>2011-08-12T11:02:44Z</time>
      </trkpt>
      <trkpt lat="43.87817" lon="6.60486">
        <ele>1620.92</ele>
        <time>2011-08-12T11:02:54Z</time>
      </trkpt>
      <trkpt lat="43.87818" lon="6.60483">
        <ele>1621.4</ele>
        <time>2011-08-12T11:03:05Z</time>
      </trkpt>
      <trkpt lat="43.8782" lon="6.6048">
        <ele>1622.36</ele>
        <time>2011-08-12T11:03:19Z</time>
      </trkpt>
      <trkpt lat="43.87821" lon="6.60475">
        <ele>1621.4</ele>
        <time>2011-08-12T11:03:24Z</time>
      </trkpt>
      <trkpt lat="43.87826" lon="6.60464">
        <ele>1621.4</ele>
        <time>2011-08-12T11:03:35Z</time>
      </trkpt>
      <trkpt lat="43.8783" lon="6.60459">
        <ele>1620.92</ele>
        <time>2011-08-12T11:03:40Z</time>
      </trkpt>
      <trkpt lat="43.87836" lon="6.60453">
        <ele>1620.44</ele>
        <time>2011-08-12T11:03:50Z</time>
      </trkpt>
      <trkpt lat="43.87837" lon="6.60446">
        <ele>1619.48</ele>
        <time>2011-08-12T11:04:01Z</time>
      </trkpt>
      <trkpt lat="43.8784" lon="6.60439">
        <ele>1620.92</ele>
        <time>2011-08-12T11:04:09Z</time>
      </trkpt>
      <trkpt lat="43.87843" lon="6.60438">
        <ele>1619</ele>
        <time>2011-08-12T11:04:19Z</time>
      </trkpt>
      <trkpt lat="43.87844" lon="6.60436">
        <ele>1619.48</ele>
        <time>2011-08-12T11:04:41Z</time>
      </trkpt>
      <trkpt lat="43.87847" lon="6.60427">
        <ele>1619.48</ele>
        <time>2011-08-12T11:04:50Z</time>
      </trkpt>
      <trkpt lat="43.87847" lon="6.60427">
        <ele>1619</ele>
        <time>2011-08-12T11:04:51Z</time>
      </trkpt>
      <trkpt lat="43.87852" lon="6.60421">
        <ele>1618.04</ele>
        <time>2011-08-12T11:04:57Z</time>
      </trkpt>
      <trkpt lat="43.87858" lon="6.60413">
        <ele>1616.59</ele>
        <time>2011-08-12T11:05:05Z</time>
      </trkpt>
      <trkpt lat="43.87859" lon="6.60412">
        <ele>1616.59</ele>
        <time>2011-08-12T11:05:06Z</time>
      </trkpt>
      <trkpt lat="43.8786" lon="6.60411">
        <ele>1616.59</ele>
        <time>2011-08-12T11:05:08Z</time>
      </trkpt>
      <trkpt lat="43.87866" lon="6.60403">
        <ele>1616.59</ele>
        <time>2011-08-12T11:05:17Z</time>
      </trkpt>
      <trkpt lat="43.87869" lon="6.60395">
        <ele>1615.63</ele>
        <time>2011-08-12T11:05:26Z</time>
      </trkpt>
      <trkpt lat="43.87874" lon="6.60388">
        <ele>1615.15</ele>
        <time>2011-08-12T11:05:34Z</time>
      </trkpt>
      <trkpt lat="43.87875" lon="6.60384">
        <ele>1614.67</ele>
        <time>2011-08-12T11:05:36Z</time>
      </trkpt>
      <trkpt lat="43.8788" lon="6.60375">
        <ele>1614.19</ele>
        <time>2011-08-12T11:05:44Z</time>
      </trkpt>
      <trkpt lat="43.87884" lon="6.60372">
        <ele>1613.71</ele>
        <time>2011-08-12T11:05:49Z</time>
      </trkpt>
      <trkpt lat="43.87888" lon="6.6036">
        <ele>1613.71</ele>
        <time>2011-08-12T11:05:59Z</time>
      </trkpt>
      <trkpt lat="43.87891" lon="6.60354">
        <ele>1612.27</ele>
        <time>2011-08-12T11:06:05Z</time>
      </trkpt>
      <trkpt lat="43.87893" lon="6.60348">
        <ele>1613.71</ele>
        <time>2011-08-12T11:06:10Z</time>
      </trkpt>
      <trkpt lat="43.87896" lon="6.60344">
        <ele>1611.79</ele>
        <time>2011-08-12T11:06:15Z</time>
      </trkpt>
      <trkpt lat="43.879" lon="6.60338">
        <ele>1612.27</ele>
        <time>2011-08-12T11:06:24Z</time>
      </trkpt>
      <trkpt lat="43.87903" lon="6.60331">
        <ele>1612.27</ele>
        <time>2011-08-12T11:06:32Z</time>
      </trkpt>
      <trkpt lat="43.87909" lon="6.60322">
        <ele>1610.83</ele>
        <time>2011-08-12T11:06:41Z</time>
      </trkpt>
      <trkpt lat="43.87915" lon="6.60317">
        <ele>1611.79</ele>
        <time>2011-08-12T11:06:50Z</time>
      </trkpt>
      <trkpt lat="43.8792" lon="6.60309">
        <ele>1611.31</ele>
        <time>2011-08-12T11:06:59Z</time>
      </trkpt>
      <trkpt lat="43.87924" lon="6.60299">
        <ele>1611.79</ele>
        <time>2011-08-12T11:07:08Z</time>
      </trkpt>
      <trkpt lat="43.87927" lon="6.60293">
        <ele>1611.31</ele>
        <time>2011-08-12T11:07:14Z</time>
      </trkpt>
      <trkpt lat="43.87929" lon="6.60288">
        <ele>1610.35</ele>
        <time>2011-08-12T11:07:19Z</time>
      </trkpt>
      <trkpt lat="43.87933" lon="6.60281">
        <ele>1610.35</ele>
        <time>2011-08-12T11:07:25Z</time>
      </trkpt>
      <trkpt lat="43.87937" lon="6.60272">
        <ele>1610.83</ele>
        <time>2011-08-12T11:07:34Z</time>
      </trkpt>
      <trkpt lat="43.8794" lon="6.6026">
        <ele>1609.86</ele>
        <time>2011-08-12T11:07:44Z</time>
      </trkpt>
      <trkpt lat="43.87944" lon="6.60253">
        <ele>1610.35</ele>
        <time>2011-08-12T11:07:50Z</time>
      </trkpt>
      <trkpt lat="43.87948" lon="6.60242">
        <ele>1608.9</ele>
        <time>2011-08-12T11:07:59Z</time>
      </trkpt>
      <trkpt lat="43.8795" lon="6.60239">
        <ele>1608.42</ele>
        <time>2011-08-12T11:08:02Z</time>
      </trkpt>
      <trkpt lat="43.87953" lon="6.60233">
        <ele>1609.86</ele>
        <time>2011-08-12T11:08:08Z</time>
      </trkpt>
      <trkpt lat="43.87957" lon="6.6022">
        <ele>1610.83</ele>
        <time>2011-08-12T11:08:18Z</time>
      </trkpt>
      <trkpt lat="43.87962" lon="6.6021">
        <ele>1609.38</ele>
        <time>2011-08-12T11:08:29Z</time>
      </trkpt>
      <trkpt lat="43.87963" lon="6.60202">
        <ele>1609.38</ele>
        <time>2011-08-12T11:08:37Z</time>
      </trkpt>
      <trkpt lat="43.87963" lon="6.60199">
        <ele>1610.35</ele>
        <time>2011-08-12T11:08:40Z</time>
      </trkpt>
      <trkpt lat="43.87965" lon="6.60194">
        <ele>1607.94</ele>
        <time>2011-08-12T11:08:45Z</time>
      </trkpt>
      <trkpt lat="43.87966" lon="6.60188">
        <ele>1607.46</ele>
        <time>2011-08-12T11:08:51Z</time>
      </trkpt>
      <trkpt lat="43.87965" lon="6.60185">
        <ele>1608.42</ele>
        <time>2011-08-12T11:08:58Z</time>
      </trkpt>
      <trkpt lat="43.87968" lon="6.60177">
        <ele>1606.5</ele>
        <time>2011-08-12T11:09:03Z</time>
      </trkpt>
      <trkpt lat="43.8797" lon="6.60166">
        <ele>1608.42</ele>
        <time>2011-08-12T11:09:12Z</time>
      </trkpt>
      <trkpt lat="43.87973" lon="6.60157">
        <ele>1608.42</ele>
        <time>2011-08-12T11:09:20Z</time>
      </trkpt>
      <trkpt lat="43.87973" lon="6.60147">
        <ele>1607.94</ele>
        <time>2011-08-12T11:09:28Z</time>
      </trkpt>
      <trkpt lat="43.87975" lon="6.60137">
        <ele>1608.42</ele>
        <time>2011-08-12T11:09:36Z</time>
      </trkpt>
      <trkpt lat="43.87977" lon="6.60131">
        <ele>1609.38</ele>
        <time>2011-08-12T11:09:41Z</time>
      </trkpt>
      <trkpt lat="43.87979" lon="6.60124">
        <ele>1610.35</ele>
        <time>2011-08-12T11:09:50Z</time>
      </trkpt>
      <trkpt lat="43.87979" lon="6.60126">
        <ele>1609.38</ele>
        <time>2011-08-12T11:10:05Z</time>
      </trkpt>
      <trkpt lat="43.8798" lon="6.60124">
        <ele>1609.38</ele>
        <time>2011-08-12T11:10:27Z</time>
      </trkpt>
      <trkpt lat="43.87981" lon="6.60124">
        <ele>1609.86</ele>
        <time>2011-08-12T11:10:52Z</time>
      </trkpt>
      <trkpt lat="43.8798" lon="6.60121">
        <ele>1610.83</ele>
        <time>2011-08-12T11:11:28Z</time>
      </trkpt>
      <trkpt lat="43.87979" lon="6.6012">
        <ele>1610.83</ele>
        <time>2011-08-12T11:11:37Z</time>
      </trkpt>
      <trkpt lat="43.87977" lon="6.60118">
        <ele>1611.79</ele>
        <time>2011-08-12T11:11:46Z</time>
      </trkpt>
      <trkpt lat="43.87977" lon="6.60115">
        <ele>1611.79</ele>
        <time>2011-08-12T11:11:52Z</time>
      </trkpt>
      <trkpt lat="43.87976" lon="6.60111">
        <ele>1611.79</ele>
        <time>2011-08-12T11:11:55Z</time>
      </trkpt>
      <trkpt lat="43.87979" lon="6.60103">
        <ele>1611.79</ele>
        <time>2011-08-12T11:12:03Z</time>
      </trkpt>
      <trkpt lat="43.87982" lon="6.60093">
        <ele>1614.19</ele>
        <time>2011-08-12T11:12:12Z</time>
      </trkpt>
      <trkpt lat="43.87981" lon="6.60091">
        <ele>1613.71</ele>
        <time>2011-08-12T11:12:15Z</time>
      </trkpt>
      <trkpt lat="43.87981" lon="6.60083">
        <ele>1614.67</ele>
        <time>2011-08-12T11:12:25Z</time>
      </trkpt>
      <trkpt lat="43.87981" lon="6.60079">
        <ele>1614.67</ele>
        <time>2011-08-12T11:12:31Z</time>
      </trkpt>
      <trkpt lat="43.87985" lon="6.60073">
        <ele>1617.07</ele>
        <time>2011-08-12T11:12:38Z</time>
      </trkpt>
      <trkpt lat="43.87988" lon="6.6006">
        <ele>1614.67</ele>
        <time>2011-08-12T11:12:48Z</time>
      </trkpt>
      <trkpt lat="43.87991" lon="6.6005">
        <ele>1616.59</ele>
        <time>2011-08-12T11:12:55Z</time>
      </trkpt>
      <trkpt lat="43.87992" lon="6.60046">
        <ele>1615.15</ele>
        <time>2011-08-12T11:12:58Z</time>
      </trkpt>
      <trkpt lat="43.87993" lon="6.60044">
        <ele>1615.63</ele>
        <time>2011-08-12T11:13:00Z</time>
      </trkpt>
      <trkpt lat="43.87994" lon="6.60036">
        <ele>1618.04</ele>
        <time>2011-08-12T11:13:09Z</time>
      </trkpt>
      <trkpt lat="43.87996" lon="6.6003">
        <ele>1616.59</ele>
        <time>2011-08-12T11:13:15Z</time>
      </trkpt>
      <trkpt lat="43.87998" lon="6.6002">
        <ele>1615.63</ele>
        <time>2011-08-12T11:13:23Z</time>
      </trkpt>
      <trkpt lat="43.87998" lon="6.60018">
        <ele>1619</ele>
        <time>2011-08-12T11:13:25Z</time>
      </trkpt>
      <trkpt lat="43.88" lon="6.6001">
        <ele>1617.07</ele>
        <time>2011-08-12T11:13:33Z</time>
      </trkpt>
      <trkpt lat="43.88004" lon="6.60003">
        <ele>1616.11</ele>
        <time>2011-08-12T11:13:42Z</time>
      </trkpt>
      <trkpt lat="43.88004" lon="6.60003">
        <ele>1617.56</ele>
        <time>2011-08-12T11:14:02Z</time>
      </trkpt>
      <trkpt lat="43.88006" lon="6.6">
        <ele>1617.07</ele>
        <time>2011-08-12T11:14:05Z</time>
      </trkpt>
      <trkpt lat="43.88009" lon="6.59999">
        <ele>1615.63</ele>
        <time>2011-08-12T11:14:08Z</time>
      </trkpt>
      <trkpt lat="43.88011" lon="6.59997">
        <ele>1614.19</ele>
        <time>2011-08-12T11:14:11Z</time>
      </trkpt>
      <trkpt lat="43.88011" lon="6.59996">
        <ele>1615.63</ele>
        <time>2011-08-12T11:14:12Z</time>
      </trkpt>
      <trkpt lat="43.88014" lon="6.59986">
        <ele>1614.67</ele>
        <time>2011-08-12T11:14:22Z</time>
      </trkpt>
      <trkpt lat="43.88019" lon="6.59979">
        <ele>1614.67</ele>
        <time>2011-08-12T11:14:30Z</time>
      </trkpt>
      <trkpt lat="43.88021" lon="6.59976">
        <ele>1611.31</ele>
        <time>2011-08-12T11:14:33Z</time>
      </trkpt>
      <trkpt lat="43.88021" lon="6.59975">
        <ele>1614.19</ele>
        <time>2011-08-12T11:14:34Z</time>
      </trkpt>
      <trkpt lat="43.88025" lon="6.59965">
        <ele>1613.23</ele>
        <time>2011-08-12T11:14:44Z</time>
      </trkpt>
      <trkpt lat="43.88025" lon="6.59963">
        <ele>1612.75</ele>
        <time>2011-08-12T11:14:45Z</time>
      </trkpt>
      <trkpt lat="43.88029" lon="6.59953">
        <ele>1612.27</ele>
        <time>2011-08-12T11:14:55Z</time>
      </trkpt>
      <trkpt lat="43.8803" lon="6.59952">
        <ele>1613.71</ele>
        <time>2011-08-12T11:14:56Z</time>
      </trkpt>
      <trkpt lat="43.8803" lon="6.59943">
        <ele>1613.23</ele>
        <time>2011-08-12T11:15:03Z</time>
      </trkpt>
      <trkpt lat="43.88032" lon="6.59939">
        <ele>1611.31</ele>
        <time>2011-08-12T11:15:09Z</time>
      </trkpt>
      <trkpt lat="43.88032" lon="6.59938">
        <ele>1611.79</ele>
        <time>2011-08-12T11:15:23Z</time>
      </trkpt>
      <trkpt lat="43.88032" lon="6.5993">
        <ele>1612.27</ele>
        <time>2011-08-12T11:15:32Z</time>
      </trkpt>
      <trkpt lat="43.88032" lon="6.5993">
        <ele>1612.75</ele>
        <time>2011-08-12T11:15:34Z</time>
      </trkpt>
      <trkpt lat="43.88033" lon="6.59926">
        <ele>1612.75</ele>
        <time>2011-08-12T11:15:37Z</time>
      </trkpt>
      <trkpt lat="43.88034" lon="6.59914">
        <ele>1613.23</ele>
        <time>2011-08-12T11:15:46Z</time>
      </trkpt>
      <trkpt lat="43.88034" lon="6.5991">
        <ele>1613.23</ele>
        <time>2011-08-12T11:15:50Z</time>
      </trkpt>
      <trkpt lat="43.88033" lon="6.59902">
        <ele>1614.67</ele>
        <time>2011-08-12T11:15:57Z</time>
      </trkpt>
      <trkpt lat="43.88035" lon="6.59896">
        <ele>1615.15</ele>
        <time>2011-08-12T11:16:07Z</time>
      </trkpt>
      <trkpt lat="43.88038" lon="6.59884">
        <ele>1615.15</ele>
        <time>2011-08-12T11:16:17Z</time>
      </trkpt>
      <trkpt lat="43.8804" lon="6.59878">
        <ele>1614.67</ele>
        <time>2011-08-12T11:16:22Z</time>
      </trkpt>
      <trkpt lat="43.88042" lon="6.59876">
        <ele>1615.15</ele>
        <time>2011-08-12T11:16:24Z</time>
      </trkpt>
      <trkpt lat="43.88043" lon="6.59868">
        <ele>1614.67</ele>
        <time>2011-08-12T11:16:33Z</time>
      </trkpt>
      <trkpt lat="43.88044" lon="6.59868">
        <ele>1614.67</ele>
        <time>2011-08-12T11:16:34Z</time>
      </trkpt>
      <trkpt lat="43.88045" lon="6.59864">
        <ele>1615.15</ele>
        <time>2011-08-12T11:16:37Z</time>
      </trkpt>
      <trkpt lat="43.88047" lon="6.59861">
        <ele>1613.71</ele>
        <time>2011-08-12T11:16:40Z</time>
      </trkpt>
      <trkpt lat="43.88049" lon="6.59852">
        <ele>1614.67</ele>
        <time>2011-08-12T11:16:48Z</time>
      </trkpt>
      <trkpt lat="43.88052" lon="6.59846">
        <ele>1614.19</ele>
        <time>2011-08-12T11:16:56Z</time>
      </trkpt>
      <trkpt lat="43.88055" lon="6.59833">
        <ele>1614.67</ele>
        <time>2011-08-12T11:17:07Z</time>
      </trkpt>
      <trkpt lat="43.88056" lon="6.59828">
        <ele>1614.67</ele>
        <time>2011-08-12T11:17:18Z</time>
      </trkpt>
      <trkpt lat="43.88057" lon="6.59827">
        <ele>1615.15</ele>
        <time>2011-08-12T11:17:30Z</time>
      </trkpt>
      <trkpt lat="43.88057" lon="6.59825">
        <ele>1614.19</ele>
        <time>2011-08-12T11:17:44Z</time>
      </trkpt>
      <trkpt lat="43.88059" lon="6.59816">
        <ele>1613.71</ele>
        <time>2011-08-12T11:17:54Z</time>
      </trkpt>
      <trkpt lat="43.88061" lon="6.59803">
        <ele>1614.19</ele>
        <time>2011-08-12T11:18:07Z</time>
      </trkpt>
      <trkpt lat="43.88063" lon="6.59794">
        <ele>1614.19</ele>
        <time>2011-08-12T11:18:16Z</time>
      </trkpt>
      <trkpt lat="43.88064" lon="6.59789">
        <ele>1613.71</ele>
        <time>2011-08-12T11:18:26Z</time>
      </trkpt>
      <trkpt lat="43.88064" lon="6.5979">
        <ele>1613.23</ele>
        <time>2011-08-12T11:19:53Z</time>
      </trkpt>
      <trkpt lat="43.88065" lon="6.59788">
        <ele>1613.23</ele>
        <time>2011-08-12T11:20:07Z</time>
      </trkpt>
      <trkpt lat="43.88065" lon="6.59787">
        <ele>1612.75</ele>
        <time>2011-08-12T11:20:19Z</time>
      </trkpt>
      <trkpt lat="43.88065" lon="6.59787">
        <ele>1612.27</ele>
        <time>2011-08-12T11:20:28Z</time>
      </trkpt>
      <trkpt lat="43.88065" lon="6.59787">
        <ele>1607.94</ele>
        <time>2011-08-12T11:20:30Z</time>
      </trkpt>
      <trkpt lat="43.88065" lon="6.59787">
        <ele>1609.38</ele>
        <time>2011-08-12T11:20:31Z</time>
      </trkpt>
      <trkpt lat="43.88065" lon="6.59787">
        <ele>1612.75</ele>
        <time>2011-08-12T11:20:32Z</time>
      </trkpt>
      <trkpt lat="43.88065" lon="6.59787">
        <ele>1613.23</ele>
        <time>2011-08-12T11:20:33Z</time>
      </trkpt>
      <trkpt lat="43.88065" lon="6.59787">
        <ele>1608.9</ele>
        <time>2011-08-12T11:20:36Z</time>
      </trkpt>
      <trkpt lat="43.88065" lon="6.59787">
        <ele>1612.75</ele>
        <time>2011-08-12T11:20:37Z</time>
      </trkpt>
      <trkpt lat="43.88065" lon="6.59787">
        <ele>1613.23</ele>
        <time>2011-08-12T11:21:17Z</time>
      </trkpt>
      <trkpt lat="43.88068" lon="6.59779">
        <ele>1611.79</ele>
        <time>2011-08-12T11:22:36Z</time>
      </trkpt>
      <trkpt lat="43.88072" lon="6.59761">
        <ele>1613.71</ele>
        <time>2011-08-12T11:22:49Z</time>
      </trkpt>
      <trkpt lat="43.88075" lon="6.59751">
        <ele>1611.79</ele>
        <time>2011-08-12T11:23:00Z</time>
      </trkpt>
      <trkpt lat="43.88077" lon="6.59738">
        <ele>1609.86</ele>
        <time>2011-08-12T11:23:10Z</time>
      </trkpt>
      <trkpt lat="43.88078" lon="6.59734">
        <ele>1609.38</ele>
        <time>2011-08-12T11:23:14Z</time>
      </trkpt>
      <trkpt lat="43.88088" lon="6.59718">
        <ele>1607.94</ele>
        <time>2011-08-12T11:23:28Z</time>
      </trkpt>
      <trkpt lat="43.88093" lon="6.5971">
        <ele>1607.46</ele>
        <time>2011-08-12T11:23:34Z</time>
      </trkpt>
      <trkpt lat="43.88097" lon="6.59692">
        <ele>1606.02</ele>
        <time>2011-08-12T11:23:47Z</time>
      </trkpt>
      <trkpt lat="43.88101" lon="6.59677">
        <ele>1605.06</ele>
        <time>2011-08-12T11:23:57Z</time>
      </trkpt>
      <trkpt lat="43.88102" lon="6.5966">
        <ele>1605.54</ele>
        <time>2011-08-12T11:24:09Z</time>
      </trkpt>
      <trkpt lat="43.881" lon="6.59648">
        <ele>1607.46</ele>
        <time>2011-08-12T11:24:18Z</time>
      </trkpt>
      <trkpt lat="43.88103" lon="6.59631">
        <ele>1608.42</ele>
        <time>2011-08-12T11:24:30Z</time>
      </trkpt>
      <trkpt lat="43.88104" lon="6.59616">
        <ele>1609.38</ele>
        <time>2011-08-12T11:24:40Z</time>
      </trkpt>
      <trkpt lat="43.88107" lon="6.59598">
        <ele>1608.42</ele>
        <time>2011-08-12T11:24:53Z</time>
      </trkpt>
      <trkpt lat="43.88108" lon="6.59587">
        <ele>1608.42</ele>
        <time>2011-08-12T11:25:05Z</time>
      </trkpt>
      <trkpt lat="43.88111" lon="6.59577">
        <ele>1608.42</ele>
        <time>2011-08-12T11:25:11Z</time>
      </trkpt>
      <trkpt lat="43.88112" lon="6.59557">
        <ele>1608.9</ele>
        <time>2011-08-12T11:25:24Z</time>
      </trkpt>
      <trkpt lat="43.88114" lon="6.59542">
        <ele>1608.9</ele>
        <time>2011-08-12T11:25:35Z</time>
      </trkpt>
      <trkpt lat="43.88116" lon="6.59526">
        <ele>1607.94</ele>
        <time>2011-08-12T11:25:47Z</time>
      </trkpt>
      <trkpt lat="43.88119" lon="6.5952">
        <ele>1607.46</ele>
        <time>2011-08-12T11:26:01Z</time>
      </trkpt>
      <trkpt lat="43.88121" lon="6.59501">
        <ele>1606.5</ele>
        <time>2011-08-12T11:26:16Z</time>
      </trkpt>
      <trkpt lat="43.88121" lon="6.59498">
        <ele>1606.98</ele>
        <time>2011-08-12T11:26:32Z</time>
      </trkpt>
      <trkpt lat="43.88122" lon="6.5949">
        <ele>1606.98</ele>
        <time>2011-08-12T11:26:37Z</time>
      </trkpt>
      <trkpt lat="43.88125" lon="6.5948">
        <ele>1605.54</ele>
        <time>2011-08-12T11:26:49Z</time>
      </trkpt>
      <trkpt lat="43.88131" lon="6.59469">
        <ele>1605.06</ele>
        <time>2011-08-12T11:27:01Z</time>
      </trkpt>
      <trkpt lat="43.88134" lon="6.59462">
        <ele>1602.17</ele>
        <time>2011-08-12T11:27:08Z</time>
      </trkpt>
      <trkpt lat="43.88136" lon="6.59459">
        <ele>1605.06</ele>
        <time>2011-08-12T11:27:12Z</time>
      </trkpt>
      <trkpt lat="43.88138" lon="6.59456">
        <ele>1602.17</ele>
        <time>2011-08-12T11:27:16Z</time>
      </trkpt>
      <trkpt lat="43.88139" lon="6.59454">
        <ele>1604.1</ele>
        <time>2011-08-12T11:27:18Z</time>
      </trkpt>
      <trkpt lat="43.8814" lon="6.59451">
        <ele>1598.81</ele>
        <time>2011-08-12T11:27:21Z</time>
      </trkpt>
      <trkpt lat="43.88143" lon="6.59446">
        <ele>1602.17</ele>
        <time>2011-08-12T11:27:26Z</time>
      </trkpt>
      <trkpt lat="43.88144" lon="6.59439">
        <ele>1601.21</ele>
        <time>2011-08-12T11:27:33Z</time>
      </trkpt>
      <trkpt lat="43.88145" lon="6.59436">
        <ele>1605.06</ele>
        <time>2011-08-12T11:27:36Z</time>
      </trkpt>
      <trkpt lat="43.88146" lon="6.59434">
        <ele>1600.73</ele>
        <time>2011-08-12T11:27:38Z</time>
      </trkpt>
      <trkpt lat="43.88147" lon="6.59433">
        <ele>1601.21</ele>
        <time>2011-08-12T11:27:39Z</time>
      </trkpt>
      <trkpt lat="43.88149" lon="6.59425">
        <ele>1598.81</ele>
        <time>2011-08-12T11:27:49Z</time>
      </trkpt>
      <trkpt lat="43.88151" lon="6.59416">
        <ele>1602.66</ele>
        <time>2011-08-12T11:27:56Z</time>
      </trkpt>
      <trkpt lat="43.88152" lon="6.59413">
        <ele>1599.77</ele>
        <time>2011-08-12T11:27:58Z</time>
      </trkpt>
      <trkpt lat="43.88152" lon="6.5941">
        <ele>1600.73</ele>
        <time>2011-08-12T11:28:01Z</time>
      </trkpt>
      <trkpt lat="43.88153" lon="6.59405">
        <ele>1604.1</ele>
        <time>2011-08-12T11:28:05Z</time>
      </trkpt>
      <trkpt lat="43.88153" lon="6.59404">
        <ele>1601.21</ele>
        <time>2011-08-12T11:28:06Z</time>
      </trkpt>
      <trkpt lat="43.88153" lon="6.59396">
        <ele>1602.66</ele>
        <time>2011-08-12T11:28:16Z</time>
      </trkpt>
      <trkpt lat="43.88154" lon="6.59395">
        <ele>1599.29</ele>
        <time>2011-08-12T11:28:18Z</time>
      </trkpt>
      <trkpt lat="43.88154" lon="6.59394">
        <ele>1599.77</ele>
        <time>2011-08-12T11:28:19Z</time>
      </trkpt>
      <trkpt lat="43.88154" lon="6.59393">
        <ele>1601.21</ele>
        <time>2011-08-12T11:28:21Z</time>
      </trkpt>
      <trkpt lat="43.88154" lon="6.5938">
        <ele>1600.73</ele>
        <time>2011-08-12T11:28:31Z</time>
      </trkpt>
      <trkpt lat="43.88152" lon="6.59369">
        <ele>1604.58</ele>
        <time>2011-08-12T11:28:39Z</time>
      </trkpt>
      <trkpt lat="43.88152" lon="6.59366">
        <ele>1601.69</ele>
        <time>2011-08-12T11:28:41Z</time>
      </trkpt>
      <trkpt lat="43.88153" lon="6.59363">
        <ele>1603.62</ele>
        <time>2011-08-12T11:28:43Z</time>
      </trkpt>
      <trkpt lat="43.88152" lon="6.59357">
        <ele>1604.1</ele>
        <time>2011-08-12T11:28:48Z</time>
      </trkpt>
      <trkpt lat="43.88153" lon="6.59343">
        <ele>1602.66</ele>
        <time>2011-08-12T11:28:59Z</time>
      </trkpt>
      <trkpt lat="43.88153" lon="6.59341">
        <ele>1604.58</ele>
        <time>2011-08-12T11:29:01Z</time>
      </trkpt>
      <trkpt lat="43.88153" lon="6.59339">
        <ele>1602.66</ele>
        <time>2011-08-12T11:29:16Z</time>
      </trkpt>
      <trkpt lat="43.88156" lon="6.5933">
        <ele>1602.17</ele>
        <time>2011-08-12T11:29:35Z</time>
      </trkpt>
      <trkpt lat="43.8816" lon="6.59322">
        <ele>1598.81</ele>
        <time>2011-08-12T11:29:42Z</time>
      </trkpt>
      <trkpt lat="43.8816" lon="6.59321">
        <ele>1600.25</ele>
        <time>2011-08-12T11:29:43Z</time>
      </trkpt>
      <trkpt lat="43.88165" lon="6.59305">
        <ele>1599.77</ele>
        <time>2011-08-12T11:29:57Z</time>
      </trkpt>
      <trkpt lat="43.88169" lon="6.59294">
        <ele>1597.37</ele>
        <time>2011-08-12T11:30:07Z</time>
      </trkpt>
      <trkpt lat="43.88171" lon="6.59283">
        <ele>1599.29</ele>
        <time>2011-08-12T11:30:16Z</time>
      </trkpt>
      <trkpt lat="43.88175" lon="6.59272">
        <ele>1596.89</ele>
        <time>2011-08-12T11:30:28Z</time>
      </trkpt>
      <trkpt lat="43.88176" lon="6.59268">
        <ele>1596.41</ele>
        <time>2011-08-12T11:30:32Z</time>
      </trkpt>
      <trkpt lat="43.88178" lon="6.59254">
        <ele>1596.41</ele>
        <time>2011-08-12T11:30:44Z</time>
      </trkpt>
      <trkpt lat="43.88182" lon="6.59237">
        <ele>1595.93</ele>
        <time>2011-08-12T11:30:58Z</time>
      </trkpt>
      <trkpt lat="43.88182" lon="6.59235">
        <ele>1595.93</ele>
        <time>2011-08-12T11:30:59Z</time>
      </trkpt>
      <trkpt lat="43.88184" lon="6.59222">
        <ele>1596.89</ele>
        <time>2011-08-12T11:31:10Z</time>
      </trkpt>
      <trkpt lat="43.88186" lon="6.59212">
        <ele>1598.33</ele>
        <time>2011-08-12T11:31:21Z</time>
      </trkpt>
      <trkpt lat="43.88186" lon="6.59209">
        <ele>1596.41</ele>
        <time>2011-08-12T11:31:23Z</time>
      </trkpt>
      <trkpt lat="43.88189" lon="6.592">
        <ele>1596.89</ele>
        <time>2011-08-12T11:31:34Z</time>
      </trkpt>
      <trkpt lat="43.88189" lon="6.59198">
        <ele>1598.81</ele>
        <time>2011-08-12T11:31:40Z</time>
      </trkpt>
      <trkpt lat="43.88191" lon="6.59186">
        <ele>1597.37</ele>
        <time>2011-08-12T11:31:49Z</time>
      </trkpt>
      <trkpt lat="43.88192" lon="6.59184">
        <ele>1594</ele>
        <time>2011-08-12T11:31:51Z</time>
      </trkpt>
      <trkpt lat="43.88193" lon="6.5918">
        <ele>1597.85</ele>
        <time>2011-08-12T11:31:53Z</time>
      </trkpt>
      <trkpt lat="43.88193" lon="6.59179">
        <ele>1597.37</ele>
        <time>2011-08-12T11:31:54Z</time>
      </trkpt>
      <trkpt lat="43.88195" lon="6.59165">
        <ele>1597.85</ele>
        <time>2011-08-12T11:32:04Z</time>
      </trkpt>
      <trkpt lat="43.88198" lon="6.59151">
        <ele>1596.89</ele>
        <time>2011-08-12T11:32:15Z</time>
      </trkpt>
      <trkpt lat="43.88198" lon="6.5915">
        <ele>1596.89</ele>
        <time>2011-08-12T11:32:16Z</time>
      </trkpt>
      <trkpt lat="43.88199" lon="6.59142">
        <ele>1603.62</ele>
        <time>2011-08-12T11:32:23Z</time>
      </trkpt>
      <trkpt lat="43.882" lon="6.5914">
        <ele>1601.21</ele>
        <time>2011-08-12T11:32:24Z</time>
      </trkpt>
      <trkpt lat="43.882" lon="6.59139">
        <ele>1597.37</ele>
        <time>2011-08-12T11:32:25Z</time>
      </trkpt>
      <trkpt lat="43.882" lon="6.59138">
        <ele>1598.33</ele>
        <time>2011-08-12T11:32:26Z</time>
      </trkpt>
      <trkpt lat="43.882" lon="6.59134">
        <ele>1596.89</ele>
        <time>2011-08-12T11:32:29Z</time>
      </trkpt>
      <trkpt lat="43.882" lon="6.59131">
        <ele>1600.73</ele>
        <time>2011-08-12T11:32:32Z</time>
      </trkpt>
      <trkpt lat="43.882" lon="6.59128">
        <ele>1597.85</ele>
        <time>2011-08-12T11:32:34Z</time>
      </trkpt>
      <trkpt lat="43.88202" lon="6.59122">
        <ele>1594.96</ele>
        <time>2011-08-12T11:32:38Z</time>
      </trkpt>
      <trkpt lat="43.88202" lon="6.59121">
        <ele>1598.81</ele>
        <time>2011-08-12T11:32:39Z</time>
      </trkpt>
      <trkpt lat="43.88204" lon="6.59111">
        <ele>1600.25</ele>
        <time>2011-08-12T11:32:46Z</time>
      </trkpt>
      <trkpt lat="43.88206" lon="6.59095">
        <ele>1602.17</ele>
        <time>2011-08-12T11:32:59Z</time>
      </trkpt>
      <trkpt lat="43.88207" lon="6.59092">
        <ele>1600.73</ele>
        <time>2011-08-12T11:33:01Z</time>
      </trkpt>
      <trkpt lat="43.8821" lon="6.59084">
        <ele>1600.73</ele>
        <time>2011-08-12T11:33:07Z</time>
      </trkpt>
      <trkpt lat="43.88212" lon="6.59072">
        <ele>1600.73</ele>
        <time>2011-08-12T11:33:18Z</time>
      </trkpt>
      <trkpt lat="43.88215" lon="6.59062">
        <ele>1600.73</ele>
        <time>2011-08-12T11:33:30Z</time>
      </trkpt>
      <trkpt lat="43.88217" lon="6.59055">
        <ele>1601.69</ele>
        <time>2011-08-12T11:33:46Z</time>
      </trkpt>
      <trkpt lat="43.88218" lon="6.59049">
        <ele>1602.17</ele>
        <time>2011-08-12T11:33:50Z</time>
      </trkpt>
      <trkpt lat="43.8822" lon="6.59036">
        <ele>1602.66</ele>
        <time>2011-08-12T11:34:00Z</time>
      </trkpt>
      <trkpt lat="43.8822" lon="6.59028">
        <ele>1603.62</ele>
        <time>2011-08-12T11:34:06Z</time>
      </trkpt>
      <trkpt lat="43.88222" lon="6.59019">
        <ele>1603.14</ele>
        <time>2011-08-12T11:34:18Z</time>
      </trkpt>
      <trkpt lat="43.88222" lon="6.59016">
        <ele>1602.17</ele>
        <time>2011-08-12T11:34:33Z</time>
      </trkpt>
      <trkpt lat="43.88222" lon="6.59014">
        <ele>1603.14</ele>
        <time>2011-08-12T11:34:46Z</time>
      </trkpt>
      <trkpt lat="43.88223" lon="6.59011">
        <ele>1603.62</ele>
        <time>2011-08-12T11:34:57Z</time>
      </trkpt>
      <trkpt lat="43.88226" lon="6.58999">
        <ele>1604.1</ele>
        <time>2011-08-12T11:35:09Z</time>
      </trkpt>
      <trkpt lat="43.88227" lon="6.58988">
        <ele>1604.58</ele>
        <time>2011-08-12T11:35:17Z</time>
      </trkpt>
      <trkpt lat="43.88229" lon="6.58978">
        <ele>1604.1</ele>
        <time>2011-08-12T11:35:26Z</time>
      </trkpt>
      <trkpt lat="43.88234" lon="6.58961">
        <ele>1604.58</ele>
        <time>2011-08-12T11:35:40Z</time>
      </trkpt>
      <trkpt lat="43.88238" lon="6.58944">
        <ele>1603.62</ele>
        <time>2011-08-12T11:35:54Z</time>
      </trkpt>
      <trkpt lat="43.88244" lon="6.5893">
        <ele>1602.66</ele>
        <time>2011-08-12T11:36:06Z</time>
      </trkpt>
      <trkpt lat="43.88244" lon="6.58929">
        <ele>1602.66</ele>
        <time>2011-08-12T11:36:07Z</time>
      </trkpt>
      <trkpt lat="43.88246" lon="6.58914">
        <ele>1603.62</ele>
        <time>2011-08-12T11:36:18Z</time>
      </trkpt>
      <trkpt lat="43.88251" lon="6.58894">
        <ele>1605.54</ele>
        <time>2011-08-12T11:36:35Z</time>
      </trkpt>
      <trkpt lat="43.88253" lon="6.58884">
        <ele>1605.06</ele>
        <time>2011-08-12T11:36:45Z</time>
      </trkpt>
      <trkpt lat="43.88255" lon="6.58871">
        <ele>1606.02</ele>
        <time>2011-08-12T11:36:56Z</time>
      </trkpt>
      <trkpt lat="43.88259" lon="6.58855">
        <ele>1605.54</ele>
        <time>2011-08-12T11:37:09Z</time>
      </trkpt>
      <trkpt lat="43.8826" lon="6.58837">
        <ele>1606.98</ele>
        <time>2011-08-12T11:37:24Z</time>
      </trkpt>
      <trkpt lat="43.88261" lon="6.58835">
        <ele>1606.98</ele>
        <time>2011-08-12T11:37:33Z</time>
      </trkpt>
      <trkpt lat="43.88264" lon="6.58824">
        <ele>1606.5</ele>
        <time>2011-08-12T11:37:42Z</time>
      </trkpt>
      <trkpt lat="43.88269" lon="6.58814">
        <ele>1607.46</ele>
        <time>2011-08-12T11:37:51Z</time>
      </trkpt>
      <trkpt lat="43.88269" lon="6.58812">
        <ele>1606.5</ele>
        <time>2011-08-12T11:37:53Z</time>
      </trkpt>
      <trkpt lat="43.88271" lon="6.58796">
        <ele>1607.46</ele>
        <time>2011-08-12T11:38:05Z</time>
      </trkpt>
      <trkpt lat="43.8827" lon="6.58781">
        <ele>1608.42</ele>
        <time>2011-08-12T11:38:17Z</time>
      </trkpt>
      <trkpt lat="43.88275" lon="6.58768">
        <ele>1609.38</ele>
        <time>2011-08-12T11:38:29Z</time>
      </trkpt>
      <trkpt lat="43.88277" lon="6.58762">
        <ele>1609.38</ele>
        <time>2011-08-12T11:38:43Z</time>
      </trkpt>
      <trkpt lat="43.88278" lon="6.58757">
        <ele>1609.86</ele>
        <time>2011-08-12T11:39:07Z</time>
      </trkpt>
      <trkpt lat="43.88279" lon="6.58741">
        <ele>1610.83</ele>
        <time>2011-08-12T11:39:20Z</time>
      </trkpt>
      <trkpt lat="43.8828" lon="6.58736">
        <ele>1612.27</ele>
        <time>2011-08-12T11:39:33Z</time>
      </trkpt>
      <trkpt lat="43.8828" lon="6.58736">
        <ele>1611.31</ele>
        <time>2011-08-12T11:40:06Z</time>
      </trkpt>
      <trkpt lat="43.88283" lon="6.58728">
        <ele>1612.27</ele>
        <time>2011-08-12T11:40:17Z</time>
      </trkpt>
      <trkpt lat="43.88287" lon="6.58717">
        <ele>1611.79</ele>
        <time>2011-08-12T11:40:30Z</time>
      </trkpt>
      <trkpt lat="43.88293" lon="6.58705">
        <ele>1612.75</ele>
        <time>2011-08-12T11:40:40Z</time>
      </trkpt>
      <trkpt lat="43.88298" lon="6.58697">
        <ele>1612.27</ele>
        <time>2011-08-12T11:40:51Z</time>
      </trkpt>
      <trkpt lat="43.88298" lon="6.58693">
        <ele>1613.23</ele>
        <time>2011-08-12T11:40:55Z</time>
      </trkpt>
      <trkpt lat="43.88299" lon="6.58691">
        <ele>1613.71</ele>
        <time>2011-08-12T11:40:57Z</time>
      </trkpt>
      <trkpt lat="43.88302" lon="6.58679">
        <ele>1613.23</ele>
        <time>2011-08-12T11:41:08Z</time>
      </trkpt>
      <trkpt lat="43.88307" lon="6.58669">
        <ele>1614.67</ele>
        <time>2011-08-12T11:41:18Z</time>
      </trkpt>
      <trkpt lat="43.88307" lon="6.58666">
        <ele>1615.15</ele>
        <time>2011-08-12T11:41:31Z</time>
      </trkpt>
      <trkpt lat="43.8831" lon="6.58656">
        <ele>1615.63</ele>
        <time>2011-08-12T11:41:41Z</time>
      </trkpt>
      <trkpt lat="43.88311" lon="6.58649">
        <ele>1617.07</ele>
        <time>2011-08-12T11:41:46Z</time>
      </trkpt>
      <trkpt lat="43.88312" lon="6.58638">
        <ele>1616.59</ele>
        <time>2011-08-12T11:41:56Z</time>
      </trkpt>
      <trkpt lat="43.88309" lon="6.58625">
        <ele>1618.04</ele>
        <time>2011-08-12T11:42:08Z</time>
      </trkpt>
      <trkpt lat="43.88313" lon="6.58619">
        <ele>1617.56</ele>
        <time>2011-08-12T11:42:14Z</time>
      </trkpt>
      <trkpt lat="43.88318" lon="6.58608">
        <ele>1618.52</ele>
        <time>2011-08-12T11:42:24Z</time>
      </trkpt>
      <trkpt lat="43.88319" lon="6.58607">
        <ele>1619</ele>
        <time>2011-08-12T11:42:26Z</time>
      </trkpt>
      <trkpt lat="43.88325" lon="6.58596">
        <ele>1619.96</ele>
        <time>2011-08-12T11:42:37Z</time>
      </trkpt>
      <trkpt lat="43.88325" lon="6.58593">
        <ele>1618.52</ele>
        <time>2011-08-12T11:42:41Z</time>
      </trkpt>
      <trkpt lat="43.88326" lon="6.58591">
        <ele>1618.04</ele>
        <time>2011-08-12T11:42:51Z</time>
      </trkpt>
      <trkpt lat="43.8833" lon="6.5858">
        <ele>1619.48</ele>
        <time>2011-08-12T11:43:02Z</time>
      </trkpt>
      <trkpt lat="43.8833" lon="6.58576">
        <ele>1621.4</ele>
        <time>2011-08-12T11:43:06Z</time>
      </trkpt>
      <trkpt lat="43.88333" lon="6.58563">
        <ele>1619</ele>
        <time>2011-08-12T11:43:17Z</time>
      </trkpt>
      <trkpt lat="43.88333" lon="6.5856">
        <ele>1619.96</ele>
        <time>2011-08-12T11:43:19Z</time>
      </trkpt>
      <trkpt lat="43.88337" lon="6.58549">
        <ele>1619.96</ele>
        <time>2011-08-12T11:43:29Z</time>
      </trkpt>
      <trkpt lat="43.88338" lon="6.58549">
        <ele>1622.84</ele>
        <time>2011-08-12T11:43:30Z</time>
      </trkpt>
      <trkpt lat="43.88339" lon="6.58548">
        <ele>1619.48</ele>
        <time>2011-08-12T11:43:32Z</time>
      </trkpt>
      <trkpt lat="43.8834" lon="6.58544">
        <ele>1621.4</ele>
        <time>2011-08-12T11:43:37Z</time>
      </trkpt>
      <trkpt lat="43.88342" lon="6.58536">
        <ele>1621.88</ele>
        <time>2011-08-12T11:43:46Z</time>
      </trkpt>
      <trkpt lat="43.88346" lon="6.58532">
        <ele>1623.8</ele>
        <time>2011-08-12T11:43:55Z</time>
      </trkpt>
      <trkpt lat="43.88347" lon="6.58531">
        <ele>1623.8</ele>
        <time>2011-08-12T11:43:56Z</time>
      </trkpt>
      <trkpt lat="43.88347" lon="6.5853">
        <ele>1624.77</ele>
        <time>2011-08-12T11:43:57Z</time>
      </trkpt>
      <trkpt lat="43.88349" lon="6.58526">
        <ele>1624.77</ele>
        <time>2011-08-12T11:44:01Z</time>
      </trkpt>
      <trkpt lat="43.88356" lon="6.58525">
        <ele>1625.73</ele>
        <time>2011-08-12T11:44:11Z</time>
      </trkpt>
      <trkpt lat="43.88357" lon="6.58522">
        <ele>1626.69</ele>
        <time>2011-08-12T11:44:20Z</time>
      </trkpt>
      <trkpt lat="43.88355" lon="6.58508">
        <ele>1626.69</ele>
        <time>2011-08-12T11:44:31Z</time>
      </trkpt>
      <trkpt lat="43.88354" lon="6.58503">
        <ele>1629.57</ele>
        <time>2011-08-12T11:44:36Z</time>
      </trkpt>
      <trkpt lat="43.88355" lon="6.58498">
        <ele>1629.57</ele>
        <time>2011-08-12T11:44:40Z</time>
      </trkpt>
      <trkpt lat="43.88357" lon="6.58491">
        <ele>1630.05</ele>
        <time>2011-08-12T11:44:49Z</time>
      </trkpt>
      <trkpt lat="43.88361" lon="6.58488">
        <ele>1630.53</ele>
        <time>2011-08-12T11:44:54Z</time>
      </trkpt>
      <trkpt lat="43.88363" lon="6.58487">
        <ele>1630.53</ele>
        <time>2011-08-12T11:44:57Z</time>
      </trkpt>
      <trkpt lat="43.88372" lon="6.58478">
        <ele>1631.49</ele>
        <time>2011-08-12T11:45:08Z</time>
      </trkpt>
      <trkpt lat="43.88373" lon="6.58476">
        <ele>1632.94</ele>
        <time>2011-08-12T11:45:10Z</time>
      </trkpt>
      <trkpt lat="43.88377" lon="6.58467">
        <ele>1633.42</ele>
        <time>2011-08-12T11:45:19Z</time>
      </trkpt>
      <trkpt lat="43.88378" lon="6.58464">
        <ele>1631.49</ele>
        <time>2011-08-12T11:45:21Z</time>
      </trkpt>
      <trkpt lat="43.88379" lon="6.58463">
        <ele>1633.42</ele>
        <time>2011-08-12T11:45:23Z</time>
      </trkpt>
      <trkpt lat="43.88378" lon="6.58457">
        <ele>1634.86</ele>
        <time>2011-08-12T11:45:27Z</time>
      </trkpt>
      <trkpt lat="43.88375" lon="6.58451">
        <ele>1637.26</ele>
        <time>2011-08-12T11:45:32Z</time>
      </trkpt>
      <trkpt lat="43.88375" lon="6.58447">
        <ele>1632.94</ele>
        <time>2011-08-12T11:45:35Z</time>
      </trkpt>
      <trkpt lat="43.88376" lon="6.58439">
        <ele>1635.34</ele>
        <time>2011-08-12T11:45:40Z</time>
      </trkpt>
      <trkpt lat="43.88376" lon="6.58438">
        <ele>1632.94</ele>
        <time>2011-08-12T11:45:41Z</time>
      </trkpt>
      <trkpt lat="43.88374" lon="6.58427">
        <ele>1631.98</ele>
        <time>2011-08-12T11:45:49Z</time>
      </trkpt>
      <trkpt lat="43.88373" lon="6.58423">
        <ele>1636.3</ele>
        <time>2011-08-12T11:45:52Z</time>
      </trkpt>
      <trkpt lat="43.88372" lon="6.58422">
        <ele>1634.38</ele>
        <time>2011-08-12T11:45:53Z</time>
      </trkpt>
      <trkpt lat="43.88371" lon="6.58419">
        <ele>1632.94</ele>
        <time>2011-08-12T11:45:55Z</time>
      </trkpt>
      <trkpt lat="43.88372" lon="6.58415">
        <ele>1633.42</ele>
        <time>2011-08-12T11:45:58Z</time>
      </trkpt>
      <trkpt lat="43.88374" lon="6.58411">
        <ele>1633.42</ele>
        <time>2011-08-12T11:46:02Z</time>
      </trkpt>
      <trkpt lat="43.88374" lon="6.58405">
        <ele>1634.38</ele>
        <time>2011-08-12T11:46:07Z</time>
      </trkpt>
      <trkpt lat="43.88372" lon="6.584">
        <ele>1634.38</ele>
        <time>2011-08-12T11:46:11Z</time>
      </trkpt>
      <trkpt lat="43.88373" lon="6.58394">
        <ele>1635.34</ele>
        <time>2011-08-12T11:46:16Z</time>
      </trkpt>
      <trkpt lat="43.88374" lon="6.58389">
        <ele>1634.38</ele>
        <time>2011-08-12T11:46:20Z</time>
      </trkpt>
      <trkpt lat="43.88374" lon="6.58376">
        <ele>1634.86</ele>
        <time>2011-08-12T11:46:31Z</time>
      </trkpt>
      <trkpt lat="43.88376" lon="6.58365">
        <ele>1635.34</ele>
        <time>2011-08-12T11:46:41Z</time>
      </trkpt>
      <trkpt lat="43.88377" lon="6.58364">
        <ele>1636.3</ele>
        <time>2011-08-12T11:46:43Z</time>
      </trkpt>
      <trkpt lat="43.88377" lon="6.58355">
        <ele>1637.26</ele>
        <time>2011-08-12T11:46:52Z</time>
      </trkpt>
      <trkpt lat="43.88377" lon="6.58351">
        <ele>1636.78</ele>
        <time>2011-08-12T11:46:55Z</time>
      </trkpt>
      <trkpt lat="43.88381" lon="6.58341">
        <ele>1640.15</ele>
        <time>2011-08-12T11:47:04Z</time>
      </trkpt>
      <trkpt lat="43.88381" lon="6.58338">
        <ele>1636.78</ele>
        <time>2011-08-12T11:47:07Z</time>
      </trkpt>
      <trkpt lat="43.88381" lon="6.58337">
        <ele>1638.22</ele>
        <time>2011-08-12T11:47:08Z</time>
      </trkpt>
      <trkpt lat="43.88383" lon="6.58324">
        <ele>1638.7</ele>
        <time>2011-08-12T11:47:19Z</time>
      </trkpt>
      <trkpt lat="43.88385" lon="6.58314">
        <ele>1639.19</ele>
        <time>2011-08-12T11:47:30Z</time>
      </trkpt>
      <trkpt lat="43.88386" lon="6.58307">
        <ele>1640.15</ele>
        <time>2011-08-12T11:47:42Z</time>
      </trkpt>
      <trkpt lat="43.88386" lon="6.58302">
        <ele>1639.19</ele>
        <time>2011-08-12T11:47:52Z</time>
      </trkpt>
      <trkpt lat="43.88385" lon="6.58294">
        <ele>1639.67</ele>
        <time>2011-08-12T11:47:58Z</time>
      </trkpt>
      <trkpt lat="43.88383" lon="6.58283">
        <ele>1639.67</ele>
        <time>2011-08-12T11:48:07Z</time>
      </trkpt>
      <trkpt lat="43.88382" lon="6.58277">
        <ele>1638.7</ele>
        <time>2011-08-12T11:48:12Z</time>
      </trkpt>
      <trkpt lat="43.88381" lon="6.58263">
        <ele>1638.22</ele>
        <time>2011-08-12T11:48:24Z</time>
      </trkpt>
      <trkpt lat="43.88381" lon="6.58261">
        <ele>1639.19</ele>
        <time>2011-08-12T11:48:26Z</time>
      </trkpt>
      <trkpt lat="43.88384" lon="6.58253">
        <ele>1638.22</ele>
        <time>2011-08-12T11:48:34Z</time>
      </trkpt>
      <trkpt lat="43.88384" lon="6.58253">
        <ele>1637.26</ele>
        <time>2011-08-12T11:48:55Z</time>
      </trkpt>
      <trkpt lat="43.88383" lon="6.5825">
        <ele>1637.26</ele>
        <time>2011-08-12T11:49:39Z</time>
      </trkpt>
      <trkpt lat="43.88383" lon="6.58248">
        <ele>1640.15</ele>
        <time>2011-08-12T11:49:45Z</time>
      </trkpt>
      <trkpt lat="43.88383" lon="6.58244">
        <ele>1638.22</ele>
        <time>2011-08-12T11:49:48Z</time>
      </trkpt>
      <trkpt lat="43.88384" lon="6.58233">
        <ele>1638.7</ele>
        <time>2011-08-12T11:49:56Z</time>
      </trkpt>
      <trkpt lat="43.88384" lon="6.5823">
        <ele>1638.22</ele>
        <time>2011-08-12T11:49:59Z</time>
      </trkpt>
      <trkpt lat="43.88384" lon="6.58221">
        <ele>1639.67</ele>
        <time>2011-08-12T11:50:08Z</time>
      </trkpt>
      <trkpt lat="43.88386" lon="6.5822">
        <ele>1639.67</ele>
        <time>2011-08-12T11:50:19Z</time>
      </trkpt>
      <trkpt lat="43.88383" lon="6.58219">
        <ele>1640.63</ele>
        <time>2011-08-12T11:50:31Z</time>
      </trkpt>
      <trkpt lat="43.88383" lon="6.58215">
        <ele>1640.15</ele>
        <time>2011-08-12T11:50:42Z</time>
      </trkpt>
      <trkpt lat="43.88382" lon="6.58214">
        <ele>1640.63</ele>
        <time>2011-08-12T11:50:45Z</time>
      </trkpt>
      <trkpt lat="43.8838" lon="6.58204">
        <ele>1641.11</ele>
        <time>2011-08-12T11:50:55Z</time>
      </trkpt>
      <trkpt lat="43.88377" lon="6.58196">
        <ele>1642.07</ele>
        <time>2011-08-12T11:51:03Z</time>
      </trkpt>
      <trkpt lat="43.88379" lon="6.58193">
        <ele>1642.55</ele>
        <time>2011-08-12T11:51:06Z</time>
      </trkpt>
      <trkpt lat="43.88382" lon="6.58186">
        <ele>1643.03</ele>
        <time>2011-08-12T11:51:14Z</time>
      </trkpt>
      <trkpt lat="43.88378" lon="6.58179">
        <ele>1643.99</ele>
        <time>2011-08-12T11:51:25Z</time>
      </trkpt>
      <trkpt lat="43.88378" lon="6.58179">
        <ele>1644.47</ele>
        <time>2011-08-12T11:51:26Z</time>
      </trkpt>
      <trkpt lat="43.88377" lon="6.58176">
        <ele>1643.51</ele>
        <time>2011-08-12T11:51:29Z</time>
      </trkpt>
      <trkpt lat="43.8838" lon="6.58168">
        <ele>1644.47</ele>
        <time>2011-08-12T11:51:37Z</time>
      </trkpt>
      <trkpt lat="43.88387" lon="6.58158">
        <ele>1646.88</ele>
        <time>2011-08-12T11:51:49Z</time>
      </trkpt>
      <trkpt lat="43.88386" lon="6.58151">
        <ele>1647.84</ele>
        <time>2011-08-12T11:51:56Z</time>
      </trkpt>
      <trkpt lat="43.88385" lon="6.58146">
        <ele>1647.84</ele>
        <time>2011-08-12T11:52:01Z</time>
      </trkpt>
      <trkpt lat="43.88381" lon="6.58138">
        <ele>1647.36</ele>
        <time>2011-08-12T11:52:08Z</time>
      </trkpt>
      <trkpt lat="43.8838" lon="6.58134">
        <ele>1648.32</ele>
        <time>2011-08-12T11:52:11Z</time>
      </trkpt>
      <trkpt lat="43.88384" lon="6.58127">
        <ele>1649.76</ele>
        <time>2011-08-12T11:52:21Z</time>
      </trkpt>
      <trkpt lat="43.88384" lon="6.58125">
        <ele>1650.24</ele>
        <time>2011-08-12T11:52:23Z</time>
      </trkpt>
      <trkpt lat="43.88383" lon="6.58121">
        <ele>1650.24</ele>
        <time>2011-08-12T11:52:26Z</time>
      </trkpt>
      <trkpt lat="43.8839" lon="6.58114">
        <ele>1650.24</ele>
        <time>2011-08-12T11:52:38Z</time>
      </trkpt>
      <trkpt lat="43.88389" lon="6.58112">
        <ele>1651.2</ele>
        <time>2011-08-12T11:52:39Z</time>
      </trkpt>
      <trkpt lat="43.88385" lon="6.58101">
        <ele>1652.64</ele>
        <time>2011-08-12T11:52:50Z</time>
      </trkpt>
      <trkpt lat="43.88387" lon="6.58097">
        <ele>1652.16</ele>
        <time>2011-08-12T11:52:53Z</time>
      </trkpt>
      <trkpt lat="43.88392" lon="6.58092">
        <ele>1654.09</ele>
        <time>2011-08-12T11:53:02Z</time>
      </trkpt>
      <trkpt lat="43.88391" lon="6.58086">
        <ele>1655.05</ele>
        <time>2011-08-12T11:53:09Z</time>
      </trkpt>
      <trkpt lat="43.8839" lon="6.58082">
        <ele>1655.05</ele>
        <time>2011-08-12T11:53:12Z</time>
      </trkpt>
      <trkpt lat="43.88389" lon="6.58072">
        <ele>1655.53</ele>
        <time>2011-08-12T11:53:20Z</time>
      </trkpt>
      <trkpt lat="43.88396" lon="6.58067">
        <ele>1656.97</ele>
        <time>2011-08-12T11:53:30Z</time>
      </trkpt>
      <trkpt lat="43.88398" lon="6.58062">
        <ele>1658.41</ele>
        <time>2011-08-12T11:53:38Z</time>
      </trkpt>
      <trkpt lat="43.8839" lon="6.58051">
        <ele>1658.89</ele>
        <time>2011-08-12T11:53:49Z</time>
      </trkpt>
      <trkpt lat="43.88389" lon="6.5805">
        <ele>1658.89</ele>
        <time>2011-08-12T11:53:50Z</time>
      </trkpt>
      <trkpt lat="43.88392" lon="6.58045">
        <ele>1658.89</ele>
        <time>2011-08-12T11:53:57Z</time>
      </trkpt>
      <trkpt lat="43.88395" lon="6.58043">
        <ele>1660.33</ele>
        <time>2011-08-12T11:54:01Z</time>
      </trkpt>
      <trkpt lat="43.88399" lon="6.58035">
        <ele>1661.3</ele>
        <time>2011-08-12T11:54:11Z</time>
      </trkpt>
      <trkpt lat="43.88404" lon="6.58026">
        <ele>1662.74</ele>
        <time>2011-08-12T11:54:20Z</time>
      </trkpt>
      <trkpt lat="43.88403" lon="6.58019">
        <ele>1662.74</ele>
        <time>2011-08-12T11:54:28Z</time>
      </trkpt>
      <trkpt lat="43.88398" lon="6.58009">
        <ele>1663.7</ele>
        <time>2011-08-12T11:54:38Z</time>
      </trkpt>
      <trkpt lat="43.88397" lon="6.58005">
        <ele>1664.66</ele>
        <time>2011-08-12T11:54:42Z</time>
      </trkpt>
      <trkpt lat="43.88402" lon="6.58">
        <ele>1666.1</ele>
        <time>2011-08-12T11:54:51Z</time>
      </trkpt>
      <trkpt lat="43.8841" lon="6.57992">
        <ele>1666.58</ele>
        <time>2011-08-12T11:55:02Z</time>
      </trkpt>
      <trkpt lat="43.88416" lon="6.57984">
        <ele>1667.06</ele>
        <time>2011-08-12T11:55:13Z</time>
      </trkpt>
      <trkpt lat="43.8842" lon="6.57978">
        <ele>1668.02</ele>
        <time>2011-08-12T11:55:21Z</time>
      </trkpt>
      <trkpt lat="43.88418" lon="6.5797">
        <ele>1669.47</ele>
        <time>2011-08-12T11:55:30Z</time>
      </trkpt>
      <trkpt lat="43.88416" lon="6.57968">
        <ele>1668.99</ele>
        <time>2011-08-12T11:55:33Z</time>
      </trkpt>
      <trkpt lat="43.88411" lon="6.57957">
        <ele>1670.91</ele>
        <time>2011-08-12T11:55:44Z</time>
      </trkpt>
      <trkpt lat="43.88412" lon="6.57952">
        <ele>1671.87</ele>
        <time>2011-08-12T11:55:51Z</time>
      </trkpt>
      <trkpt lat="43.88418" lon="6.57944">
        <ele>1672.35</ele>
        <time>2011-08-12T11:56:01Z</time>
      </trkpt>
      <trkpt lat="43.88419" lon="6.57943">
        <ele>1672.35</ele>
        <time>2011-08-12T11:56:04Z</time>
      </trkpt>
      <trkpt lat="43.88418" lon="6.57939">
        <ele>1673.31</ele>
        <time>2011-08-12T11:56:08Z</time>
      </trkpt>
      <trkpt lat="43.88415" lon="6.57936">
        <ele>1673.79</ele>
        <time>2011-08-12T11:56:12Z</time>
      </trkpt>
      <trkpt lat="43.88414" lon="6.57933">
        <ele>1674.27</ele>
        <time>2011-08-12T11:56:15Z</time>
      </trkpt>
      <trkpt lat="43.88419" lon="6.57925">
        <ele>1675.23</ele>
        <time>2011-08-12T11:56:25Z</time>
      </trkpt>
      <trkpt lat="43.88423" lon="6.5792">
        <ele>1675.72</ele>
        <time>2011-08-12T11:56:34Z</time>
      </trkpt>
      <trkpt lat="43.88425" lon="6.57916">
        <ele>1676.2</ele>
        <time>2011-08-12T11:56:43Z</time>
      </trkpt>
      <trkpt lat="43.88425" lon="6.57916">
        <ele>1676.68</ele>
        <time>2011-08-12T11:56:55Z</time>
      </trkpt>
      <trkpt lat="43.88427" lon="6.57911">
        <ele>1676.2</ele>
        <time>2011-08-12T11:57:03Z</time>
      </trkpt>
      <trkpt lat="43.88431" lon="6.57909">
        <ele>1676.68</ele>
        <time>2011-08-12T11:57:22Z</time>
      </trkpt>
      <trkpt lat="43.88436" lon="6.57901">
        <ele>1676.2</ele>
        <time>2011-08-12T11:57:31Z</time>
      </trkpt>
      <trkpt lat="43.88437" lon="6.579">
        <ele>1675.72</ele>
        <time>2011-08-12T11:57:41Z</time>
      </trkpt>
      <trkpt lat="43.88442" lon="6.57896">
        <ele>1675.23</ele>
        <time>2011-08-12T11:57:48Z</time>
      </trkpt>
      <trkpt lat="43.88448" lon="6.57893">
        <ele>1673.79</ele>
        <time>2011-08-12T11:57:57Z</time>
      </trkpt>
      <trkpt lat="43.88448" lon="6.57892">
        <ele>1673.79</ele>
        <time>2011-08-12T11:58:01Z</time>
      </trkpt>
      <trkpt lat="43.8845" lon="6.57878">
        <ele>1673.79</ele>
        <time>2011-08-12T11:58:10Z</time>
      </trkpt>
      <trkpt lat="43.8845" lon="6.57876">
        <ele>1674.27</ele>
        <time>2011-08-12T11:58:13Z</time>
      </trkpt>
      <trkpt lat="43.88454" lon="6.57866">
        <ele>1673.31</ele>
        <time>2011-08-12T11:58:21Z</time>
      </trkpt>
      <trkpt lat="43.88458" lon="6.57859">
        <ele>1672.35</ele>
        <time>2011-08-12T11:58:28Z</time>
      </trkpt>
      <trkpt lat="43.88464" lon="6.57852">
        <ele>1672.35</ele>
        <time>2011-08-12T11:58:37Z</time>
      </trkpt>
      <trkpt lat="43.8847" lon="6.5785">
        <ele>1670.91</ele>
        <time>2011-08-12T11:58:44Z</time>
      </trkpt>
      <trkpt lat="43.88477" lon="6.57842">
        <ele>1671.39</ele>
        <time>2011-08-12T11:58:54Z</time>
      </trkpt>
      <trkpt lat="43.8848" lon="6.5784">
        <ele>1671.87</ele>
        <time>2011-08-12T11:58:59Z</time>
      </trkpt>
      <trkpt lat="43.88482" lon="6.57834">
        <ele>1672.83</ele>
        <time>2011-08-12T11:59:05Z</time>
      </trkpt>
      <trkpt lat="43.88485" lon="6.5783">
        <ele>1673.31</ele>
        <time>2011-08-12T11:59:14Z</time>
      </trkpt>
      <trkpt lat="43.88486" lon="6.5783">
        <ele>1673.79</ele>
        <time>2011-08-12T11:59:24Z</time>
      </trkpt>
      <trkpt lat="43.88487" lon="6.57824">
        <ele>1674.27</ele>
        <time>2011-08-12T11:59:36Z</time>
      </trkpt>
      <trkpt lat="43.8849" lon="6.57819">
        <ele>1675.72</ele>
        <time>2011-08-12T11:59:42Z</time>
      </trkpt>
      <trkpt lat="43.88497" lon="6.57813">
        <ele>1676.2</ele>
        <time>2011-08-12T11:59:52Z</time>
      </trkpt>
      <trkpt lat="43.885" lon="6.57811">
        <ele>1677.16</ele>
        <time>2011-08-12T11:59:58Z</time>
      </trkpt>
      <trkpt lat="43.88502" lon="6.57807">
        <ele>1677.64</ele>
        <time>2011-08-12T12:00:04Z</time>
      </trkpt>
      <trkpt lat="43.88508" lon="6.578">
        <ele>1678.6</ele>
        <time>2011-08-12T12:00:14Z</time>
      </trkpt>
      <trkpt lat="43.88509" lon="6.57797">
        <ele>1678.6</ele>
        <time>2011-08-12T12:00:17Z</time>
      </trkpt>
      <trkpt lat="43.88509" lon="6.57787">
        <ele>1679.56</ele>
        <time>2011-08-12T12:00:27Z</time>
      </trkpt>
      <trkpt lat="43.8851" lon="6.57779">
        <ele>1679.56</ele>
        <time>2011-08-12T12:00:36Z</time>
      </trkpt>
      <trkpt lat="43.88512" lon="6.57769">
        <ele>1680.04</ele>
        <time>2011-08-12T12:00:46Z</time>
      </trkpt>
      <trkpt lat="43.88514" lon="6.57761">
        <ele>1680.04</ele>
        <time>2011-08-12T12:00:54Z</time>
      </trkpt>
      <trkpt lat="43.88517" lon="6.5775">
        <ele>1680.52</ele>
        <time>2011-08-12T12:01:04Z</time>
      </trkpt>
      <trkpt lat="43.8852" lon="6.57739">
        <ele>1680.04</ele>
        <time>2011-08-12T12:01:13Z</time>
      </trkpt>
      <trkpt lat="43.88521" lon="6.57734">
        <ele>1680.04</ele>
        <time>2011-08-12T12:01:20Z</time>
      </trkpt>
      <trkpt lat="43.8852" lon="6.57733">
        <ele>1680.52</ele>
        <time>2011-08-12T12:01:32Z</time>
      </trkpt>
      <trkpt lat="43.8852" lon="6.57733">
        <ele>1680.52</ele>
        <time>2011-08-12T12:01:51Z</time>
      </trkpt>
      <trkpt lat="43.8852" lon="6.57733">
        <ele>1680.04</ele>
        <time>2011-08-12T12:02:12Z</time>
      </trkpt>
      <trkpt lat="43.8852" lon="6.57733">
        <ele>1680.52</ele>
        <time>2011-08-12T12:02:26Z</time>
      </trkpt>
      <trkpt lat="43.8852" lon="6.57733">
        <ele>1681</ele>
        <time>2011-08-12T12:02:37Z</time>
      </trkpt>
      <trkpt lat="43.8852" lon="6.57732">
        <ele>1680.52</ele>
        <time>2011-08-12T12:02:48Z</time>
      </trkpt>
      <trkpt lat="43.88524" lon="6.5773">
        <ele>1680.52</ele>
        <time>2011-08-12T12:03:13Z</time>
      </trkpt>
      <trkpt lat="43.88532" lon="6.57725">
        <ele>1681</ele>
        <time>2011-08-12T12:03:23Z</time>
      </trkpt>
      <trkpt lat="43.88539" lon="6.5772">
        <ele>1680.04</ele>
        <time>2011-08-12T12:03:34Z</time>
      </trkpt>
      <trkpt lat="43.88544" lon="6.57711">
        <ele>1681.96</ele>
        <time>2011-08-12T12:03:46Z</time>
      </trkpt>
      <trkpt lat="43.88548" lon="6.57702">
        <ele>1681.96</ele>
        <time>2011-08-12T12:03:58Z</time>
      </trkpt>
      <trkpt lat="43.88548" lon="6.57698">
        <ele>1681.48</ele>
        <time>2011-08-12T12:04:05Z</time>
      </trkpt>
      <trkpt lat="43.88547" lon="6.5769">
        <ele>1681.48</ele>
        <time>2011-08-12T12:04:12Z</time>
      </trkpt>
      <trkpt lat="43.88548" lon="6.57673">
        <ele>1681</ele>
        <time>2011-08-12T12:04:25Z</time>
      </trkpt>
      <trkpt lat="43.88548" lon="6.57668">
        <ele>1680.52</ele>
        <time>2011-08-12T12:04:35Z</time>
      </trkpt>
      <trkpt lat="43.88549" lon="6.57666">
        <ele>1680.04</ele>
        <time>2011-08-12T12:04:47Z</time>
      </trkpt>
      <trkpt lat="43.8855" lon="6.57665">
        <ele>1679.56</ele>
        <time>2011-08-12T12:04:53Z</time>
      </trkpt>
      <trkpt lat="43.88557" lon="6.57655">
        <ele>1678.6</ele>
        <time>2011-08-12T12:05:02Z</time>
      </trkpt>
      <trkpt lat="43.88562" lon="6.57647">
        <ele>1680.04</ele>
        <time>2011-08-12T12:05:10Z</time>
      </trkpt>
      <trkpt lat="43.88566" lon="6.5764">
        <ele>1681</ele>
        <time>2011-08-12T12:05:21Z</time>
      </trkpt>
      <trkpt lat="43.88567" lon="6.57638">
        <ele>1682.44</ele>
        <time>2011-08-12T12:05:29Z</time>
      </trkpt>
      <trkpt lat="43.88567" lon="6.57632">
        <ele>1682.93</ele>
        <time>2011-08-12T12:05:36Z</time>
      </trkpt>
      <trkpt lat="43.88571" lon="6.57629">
        <ele>1683.89</ele>
        <time>2011-08-12T12:05:47Z</time>
      </trkpt>
      <trkpt lat="43.88571" lon="6.57628">
        <ele>1684.85</ele>
        <time>2011-08-12T12:05:52Z</time>
      </trkpt>
      <trkpt lat="43.8857" lon="6.57624">
        <ele>1685.33</ele>
        <time>2011-08-12T12:05:57Z</time>
      </trkpt>
      <trkpt lat="43.88571" lon="6.57618">
        <ele>1685.81</ele>
        <time>2011-08-12T12:06:06Z</time>
      </trkpt>
      <trkpt lat="43.88575" lon="6.57615">
        <ele>1688.21</ele>
        <time>2011-08-12T12:06:16Z</time>
      </trkpt>
      <trkpt lat="43.88577" lon="6.57613">
        <ele>1690.14</ele>
        <time>2011-08-12T12:06:24Z</time>
      </trkpt>
      <trkpt lat="43.88583" lon="6.57609">
        <ele>1689.65</ele>
        <time>2011-08-12T12:06:33Z</time>
      </trkpt>
      <trkpt lat="43.88584" lon="6.57607">
        <ele>1689.17</ele>
        <time>2011-08-12T12:06:35Z</time>
      </trkpt>
      <trkpt lat="43.88588" lon="6.57598">
        <ele>1690.14</ele>
        <time>2011-08-12T12:06:42Z</time>
      </trkpt>
      <trkpt lat="43.88589" lon="6.57593">
        <ele>1689.17</ele>
        <time>2011-08-12T12:06:52Z</time>
      </trkpt>
      <trkpt lat="43.88591" lon="6.57586">
        <ele>1689.65</ele>
        <time>2011-08-12T12:07:00Z</time>
      </trkpt>
      <trkpt lat="43.88594" lon="6.57578">
        <ele>1688.69</ele>
        <time>2011-08-12T12:07:07Z</time>
      </trkpt>
      <trkpt lat="43.88594" lon="6.57577">
        <ele>1688.69</ele>
        <time>2011-08-12T12:07:08Z</time>
      </trkpt>
      <trkpt lat="43.88594" lon="6.57573">
        <ele>1688.69</ele>
        <time>2011-08-12T12:07:12Z</time>
      </trkpt>
      <trkpt lat="43.88596" lon="6.57568">
        <ele>1688.69</ele>
        <time>2011-08-12T12:07:17Z</time>
      </trkpt>
      <trkpt lat="43.88599" lon="6.57562">
        <ele>1689.65</ele>
        <time>2011-08-12T12:07:25Z</time>
      </trkpt>
      <trkpt lat="43.88599" lon="6.5755">
        <ele>1689.65</ele>
        <time>2011-08-12T12:07:34Z</time>
      </trkpt>
      <trkpt lat="43.88602" lon="6.57543">
        <ele>1689.65</ele>
        <time>2011-08-12T12:07:42Z</time>
      </trkpt>
      <trkpt lat="43.88605" lon="6.57535">
        <ele>1689.17</ele>
        <time>2011-08-12T12:07:53Z</time>
      </trkpt>
      <trkpt lat="43.88607" lon="6.5753">
        <ele>1689.17</ele>
        <time>2011-08-12T12:08:01Z</time>
      </trkpt>
      <trkpt lat="43.88607" lon="6.57528">
        <ele>1688.69</ele>
        <time>2011-08-12T12:08:02Z</time>
      </trkpt>
      <trkpt lat="43.88609" lon="6.5752">
        <ele>1688.69</ele>
        <time>2011-08-12T12:08:11Z</time>
      </trkpt>
      <trkpt lat="43.88609" lon="6.57517">
        <ele>1688.69</ele>
        <time>2011-08-12T12:08:19Z</time>
      </trkpt>
      <trkpt lat="43.88612" lon="6.5751">
        <ele>1688.69</ele>
        <time>2011-08-12T12:08:27Z</time>
      </trkpt>
      <trkpt lat="43.88611" lon="6.57504">
        <ele>1688.69</ele>
        <time>2011-08-12T12:08:39Z</time>
      </trkpt>
      <trkpt lat="43.8861" lon="6.57509">
        <ele>1687.25</ele>
        <time>2011-08-12T12:09:29Z</time>
      </trkpt>
      <trkpt lat="43.88609" lon="6.57509">
        <ele>1687.25</ele>
        <time>2011-08-12T12:09:39Z</time>
      </trkpt>
      <trkpt lat="43.8861" lon="6.57509">
        <ele>1685.81</ele>
        <time>2011-08-12T12:10:25Z</time>
      </trkpt>
      <trkpt lat="43.88609" lon="6.5751">
        <ele>1686.77</ele>
        <time>2011-08-12T12:17:48Z</time>
      </trkpt>
      <trkpt lat="43.88606" lon="6.57506">
        <ele>1688.21</ele>
        <time>2011-08-12T12:18:48Z</time>
      </trkpt>
      <trkpt lat="43.886" lon="6.57509">
        <ele>1689.17</ele>
        <time>2011-08-12T12:19:00Z</time>
      </trkpt>
      <trkpt lat="43.88597" lon="6.57514">
        <ele>1690.14</ele>
        <time>2011-08-12T12:19:09Z</time>
      </trkpt>
      <trkpt lat="43.88594" lon="6.57518">
        <ele>1691.1</ele>
        <time>2011-08-12T12:19:19Z</time>
      </trkpt>
      <trkpt lat="43.88594" lon="6.57518">
        <ele>1690.62</ele>
        <time>2011-08-12T12:20:10Z</time>
      </trkpt>
      <trkpt lat="43.88595" lon="6.57518">
        <ele>1690.62</ele>
        <time>2011-08-12T12:27:25Z</time>
      </trkpt>
      <trkpt lat="43.88596" lon="6.57518">
        <ele>1690.62</ele>
        <time>2011-08-12T12:30:13Z</time>
      </trkpt>
      <trkpt lat="43.88596" lon="6.57519">
        <ele>1690.62</ele>
        <time>2011-08-12T12:33:48Z</time>
      </trkpt>
      <trkpt lat="43.88596" lon="6.57519">
        <ele>1691.58</ele>
        <time>2011-08-12T12:33:57Z</time>
      </trkpt>
      <trkpt lat="43.88596" lon="6.57519">
        <ele>1691.58</ele>
        <time>2011-08-12T12:34:45Z</time>
      </trkpt>
      <trkpt lat="43.88596" lon="6.57519">
        <ele>1691.1</ele>
        <time>2011-08-12T12:35:56Z</time>
      </trkpt>
      <trkpt lat="43.88596" lon="6.57519">
        <ele>1691.1</ele>
        <time>2011-08-12T12:36:07Z</time>
      </trkpt>
      <trkpt lat="43.88598" lon="6.57516">
        <ele>1691.58</ele>
        <time>2011-08-12T12:37:36Z</time>
      </trkpt>
      <trkpt lat="43.886" lon="6.57511">
        <ele>1690.14</ele>
        <time>2011-08-12T12:37:46Z</time>
      </trkpt>
      <trkpt lat="43.88603" lon="6.57507">
        <ele>1690.14</ele>
        <time>2011-08-12T12:37:55Z</time>
      </trkpt>
      <trkpt lat="43.88605" lon="6.57506">
        <ele>1690.14</ele>
        <time>2011-08-12T12:38:08Z</time>
      </trkpt>
      <trkpt lat="43.88605" lon="6.57504">
        <ele>1690.14</ele>
        <time>2011-08-12T12:38:23Z</time>
      </trkpt>
      <trkpt lat="43.88608" lon="6.57504">
        <ele>1688.69</ele>
        <time>2011-08-12T12:38:32Z</time>
      </trkpt>
      <trkpt lat="43.88617" lon="6.57505">
        <ele>1688.21</ele>
        <time>2011-08-12T12:38:43Z</time>
      </trkpt>
      <trkpt lat="43.88624" lon="6.57507">
        <ele>1687.25</ele>
        <time>2011-08-12T12:38:50Z</time>
      </trkpt>
      <trkpt lat="43.88627" lon="6.57501">
        <ele>1686.77</ele>
        <time>2011-08-12T12:38:56Z</time>
      </trkpt>
      <trkpt lat="43.88637" lon="6.57493">
        <ele>1684.37</ele>
        <time>2011-08-12T12:39:08Z</time>
      </trkpt>
      <trkpt lat="43.88644" lon="6.5748">
        <ele>1683.41</ele>
        <time>2011-08-12T12:39:20Z</time>
      </trkpt>
      <trkpt lat="43.88647" lon="6.57474">
        <ele>1682.93</ele>
        <time>2011-08-12T12:39:25Z</time>
      </trkpt>
      <trkpt lat="43.8865" lon="6.57471">
        <ele>1682.93</ele>
        <time>2011-08-12T12:39:30Z</time>
      </trkpt>
      <trkpt lat="43.88653" lon="6.57465">
        <ele>1682.44</ele>
        <time>2011-08-12T12:39:36Z</time>
      </trkpt>
      <trkpt lat="43.88656" lon="6.5746">
        <ele>1680.52</ele>
        <time>2011-08-12T12:39:45Z</time>
      </trkpt>
      <trkpt lat="43.8866" lon="6.57452">
        <ele>1680.04</ele>
        <time>2011-08-12T12:39:55Z</time>
      </trkpt>
      <trkpt lat="43.88663" lon="6.57449">
        <ele>1678.6</ele>
        <time>2011-08-12T12:40:05Z</time>
      </trkpt>
      <trkpt lat="43.88663" lon="6.57442">
        <ele>1678.6</ele>
        <time>2011-08-12T12:40:17Z</time>
      </trkpt>
      <trkpt lat="43.88664" lon="6.57435">
        <ele>1677.64</ele>
        <time>2011-08-12T12:40:26Z</time>
      </trkpt>
      <trkpt lat="43.88667" lon="6.57432">
        <ele>1677.16</ele>
        <time>2011-08-12T12:40:35Z</time>
      </trkpt>
      <trkpt lat="43.88668" lon="6.57429">
        <ele>1676.68</ele>
        <time>2011-08-12T12:40:39Z</time>
      </trkpt>
      <trkpt lat="43.88671" lon="6.57419">
        <ele>1675.23</ele>
        <time>2011-08-12T12:40:49Z</time>
      </trkpt>
      <trkpt lat="43.88674" lon="6.57413">
        <ele>1674.27</ele>
        <time>2011-08-12T12:40:58Z</time>
      </trkpt>
      <trkpt lat="43.88675" lon="6.57401">
        <ele>1673.79</ele>
        <time>2011-08-12T12:41:10Z</time>
      </trkpt>
      <trkpt lat="43.88675" lon="6.5739">
        <ele>1672.83</ele>
        <time>2011-08-12T12:41:20Z</time>
      </trkpt>
      <trkpt lat="43.88677" lon="6.57379">
        <ele>1670.91</ele>
        <time>2011-08-12T12:41:31Z</time>
      </trkpt>
      <trkpt lat="43.88681" lon="6.5737">
        <ele>1669.95</ele>
        <time>2011-08-12T12:41:41Z</time>
      </trkpt>
      <trkpt lat="43.88684" lon="6.57361">
        <ele>1668.02</ele>
        <time>2011-08-12T12:41:52Z</time>
      </trkpt>
      <trkpt lat="43.88682" lon="6.57348">
        <ele>1668.99</ele>
        <time>2011-08-12T12:42:03Z</time>
      </trkpt>
      <trkpt lat="43.88688" lon="6.57342">
        <ele>1666.58</ele>
        <time>2011-08-12T12:42:13Z</time>
      </trkpt>
      <trkpt lat="43.88694" lon="6.57338">
        <ele>1666.58</ele>
        <time>2011-08-12T12:42:23Z</time>
      </trkpt>
      <trkpt lat="43.88696" lon="6.57333">
        <ele>1665.14</ele>
        <time>2011-08-12T12:42:28Z</time>
      </trkpt>
      <trkpt lat="43.88706" lon="6.57319">
        <ele>1662.74</ele>
        <time>2011-08-12T12:42:42Z</time>
      </trkpt>
      <trkpt lat="43.8871" lon="6.57304">
        <ele>1662.74</ele>
        <time>2011-08-12T12:42:52Z</time>
      </trkpt>
      <trkpt lat="43.88717" lon="6.57288">
        <ele>1663.7</ele>
        <time>2011-08-12T12:43:06Z</time>
      </trkpt>
      <trkpt lat="43.88722" lon="6.57274">
        <ele>1663.7</ele>
        <time>2011-08-12T12:43:17Z</time>
      </trkpt>
      <trkpt lat="43.88731" lon="6.57261">
        <ele>1663.7</ele>
        <time>2011-08-12T12:43:30Z</time>
      </trkpt>
      <trkpt lat="43.8874" lon="6.57249">
        <ele>1663.7</ele>
        <time>2011-08-12T12:43:42Z</time>
      </trkpt>
      <trkpt lat="43.88749" lon="6.5724">
        <ele>1663.22</ele>
        <time>2011-08-12T12:43:54Z</time>
      </trkpt>
      <trkpt lat="43.88759" lon="6.57233">
        <ele>1663.22</ele>
        <time>2011-08-12T12:44:06Z</time>
      </trkpt>
      <trkpt lat="43.88765" lon="6.57229">
        <ele>1662.74</ele>
        <time>2011-08-12T12:44:13Z</time>
      </trkpt>
      <trkpt lat="43.88768" lon="6.57227">
        <ele>1662.74</ele>
        <time>2011-08-12T12:44:16Z</time>
      </trkpt>
      <trkpt lat="43.8877" lon="6.57225">
        <ele>1662.74</ele>
        <time>2011-08-12T12:44:19Z</time>
      </trkpt>
      <trkpt lat="43.88779" lon="6.5722">
        <ele>1663.22</ele>
        <time>2011-08-12T12:44:29Z</time>
      </trkpt>
      <trkpt lat="43.88787" lon="6.57212">
        <ele>1662.74</ele>
        <time>2011-08-12T12:44:42Z</time>
      </trkpt>
      <trkpt lat="43.88797" lon="6.57205">
        <ele>1662.26</ele>
        <time>2011-08-12T12:44:53Z</time>
      </trkpt>
      <trkpt lat="43.888" lon="6.572">
        <ele>1663.22</ele>
        <time>2011-08-12T12:44:58Z</time>
      </trkpt>
      <trkpt lat="43.88808" lon="6.57188">
        <ele>1662.74</ele>
        <time>2011-08-12T12:45:10Z</time>
      </trkpt>
      <trkpt lat="43.8881" lon="6.57186">
        <ele>1663.22</ele>
        <time>2011-08-12T12:45:12Z</time>
      </trkpt>
      <trkpt lat="43.8882" lon="6.5718">
        <ele>1663.7</ele>
        <time>2011-08-12T12:45:24Z</time>
      </trkpt>
      <trkpt lat="43.88825" lon="6.57175">
        <ele>1664.66</ele>
        <time>2011-08-12T12:45:33Z</time>
      </trkpt>
      <trkpt lat="43.88835" lon="6.57167">
        <ele>1666.1</ele>
        <time>2011-08-12T12:45:45Z</time>
      </trkpt>
      <trkpt lat="43.88839" lon="6.57157">
        <ele>1667.06</ele>
        <time>2011-08-12T12:45:55Z</time>
      </trkpt>
      <trkpt lat="43.88839" lon="6.57147">
        <ele>1669.47</ele>
        <time>2011-08-12T12:46:06Z</time>
      </trkpt>
      <trkpt lat="43.88839" lon="6.57143">
        <ele>1669.95</ele>
        <time>2011-08-12T12:46:16Z</time>
      </trkpt>
      <trkpt lat="43.88839" lon="6.57142">
        <ele>1670.43</ele>
        <time>2011-08-12T12:46:18Z</time>
      </trkpt>
      <trkpt lat="43.88839" lon="6.57139">
        <ele>1669.95</ele>
        <time>2011-08-12T12:46:20Z</time>
      </trkpt>
      <trkpt lat="43.88839" lon="6.57125">
        <ele>1669.95</ele>
        <time>2011-08-12T12:46:31Z</time>
      </trkpt>
      <trkpt lat="43.88838" lon="6.57109">
        <ele>1670.91</ele>
        <time>2011-08-12T12:46:44Z</time>
      </trkpt>
      <trkpt lat="43.88842" lon="6.57101">
        <ele>1670.43</ele>
        <time>2011-08-12T12:46:53Z</time>
      </trkpt>
      <trkpt lat="43.88851" lon="6.5709">
        <ele>1670.43</ele>
        <time>2011-08-12T12:47:05Z</time>
      </trkpt>
      <trkpt lat="43.88857" lon="6.5708">
        <ele>1670.43</ele>
        <time>2011-08-12T12:47:16Z</time>
      </trkpt>
      <trkpt lat="43.88858" lon="6.57075">
        <ele>1669.47</ele>
        <time>2011-08-12T12:47:21Z</time>
      </trkpt>
      <trkpt lat="43.8886" lon="6.57071">
        <ele>1668.02</ele>
        <time>2011-08-12T12:47:24Z</time>
      </trkpt>
      <trkpt lat="43.88868" lon="6.57062">
        <ele>1667.54</ele>
        <time>2011-08-12T12:47:34Z</time>
      </trkpt>
      <trkpt lat="43.88872" lon="6.57062">
        <ele>1666.1</ele>
        <time>2011-08-12T12:47:39Z</time>
      </trkpt>
      <trkpt lat="43.88881" lon="6.5706">
        <ele>1665.62</ele>
        <time>2011-08-12T12:47:50Z</time>
      </trkpt>
      <trkpt lat="43.88886" lon="6.57058">
        <ele>1666.1</ele>
        <time>2011-08-12T12:47:56Z</time>
      </trkpt>
      <trkpt lat="43.88897" lon="6.57058">
        <ele>1666.1</ele>
        <time>2011-08-12T12:48:08Z</time>
      </trkpt>
      <trkpt lat="43.88907" lon="6.57062">
        <ele>1666.1</ele>
        <time>2011-08-12T12:48:19Z</time>
      </trkpt>
      <trkpt lat="43.88908" lon="6.57062">
        <ele>1664.66</ele>
        <time>2011-08-12T12:48:20Z</time>
      </trkpt>
      <trkpt lat="43.88915" lon="6.57058">
        <ele>1665.62</ele>
        <time>2011-08-12T12:48:32Z</time>
      </trkpt>
      <trkpt lat="43.88916" lon="6.57058">
        <ele>1666.1</ele>
        <time>2011-08-12T12:48:37Z</time>
      </trkpt>
      <trkpt lat="43.88922" lon="6.57052">
        <ele>1667.06</ele>
        <time>2011-08-12T12:48:48Z</time>
      </trkpt>
      <trkpt lat="43.88926" lon="6.57049">
        <ele>1668.51</ele>
        <time>2011-08-12T12:48:57Z</time>
      </trkpt>
      <trkpt lat="43.88933" lon="6.57048">
        <ele>1669.95</ele>
        <time>2011-08-12T12:49:09Z</time>
      </trkpt>
      <trkpt lat="43.88938" lon="6.57045">
        <ele>1670.91</ele>
        <time>2011-08-12T12:49:19Z</time>
      </trkpt>
      <trkpt lat="43.88946" lon="6.57044">
        <ele>1672.83</ele>
        <time>2011-08-12T12:49:33Z</time>
      </trkpt>
      <trkpt lat="43.88952" lon="6.57041">
        <ele>1673.79</ele>
        <time>2011-08-12T12:49:43Z</time>
      </trkpt>
      <trkpt lat="43.88956" lon="6.5704">
        <ele>1674.27</ele>
        <time>2011-08-12T12:49:49Z</time>
      </trkpt>
      <trkpt lat="43.88963" lon="6.57036">
        <ele>1675.72</ele>
        <time>2011-08-12T12:50:01Z</time>
      </trkpt>
      <trkpt lat="43.88968" lon="6.57034">
        <ele>1677.16</ele>
        <time>2011-08-12T12:50:12Z</time>
      </trkpt>
      <trkpt lat="43.88974" lon="6.57031">
        <ele>1678.6</ele>
        <time>2011-08-12T12:50:23Z</time>
      </trkpt>
      <trkpt lat="43.8898" lon="6.57028">
        <ele>1679.08</ele>
        <time>2011-08-12T12:50:33Z</time>
      </trkpt>
      <trkpt lat="43.88987" lon="6.57025">
        <ele>1680.52</ele>
        <time>2011-08-12T12:50:45Z</time>
      </trkpt>
      <trkpt lat="43.8899" lon="6.57023">
        <ele>1681.48</ele>
        <time>2011-08-12T12:50:55Z</time>
      </trkpt>
      <trkpt lat="43.88993" lon="6.57018">
        <ele>1681.96</ele>
        <time>2011-08-12T12:51:05Z</time>
      </trkpt>
      <trkpt lat="43.88998" lon="6.57017">
        <ele>1681.96</ele>
        <time>2011-08-12T12:51:16Z</time>
      </trkpt>
      <trkpt lat="43.89001" lon="6.57018">
        <ele>1681.48</ele>
        <time>2011-08-12T12:51:26Z</time>
      </trkpt>
      <trkpt lat="43.89006" lon="6.57015">
        <ele>1682.44</ele>
        <time>2011-08-12T12:51:37Z</time>
      </trkpt>
      <trkpt lat="43.89009" lon="6.57018">
        <ele>1681</ele>
        <time>2011-08-12T12:51:49Z</time>
      </trkpt>
      <trkpt lat="43.89013" lon="6.57018">
        <ele>1681</ele>
        <time>2011-08-12T12:51:57Z</time>
      </trkpt>
      <trkpt lat="43.89021" lon="6.57014">
        <ele>1682.93</ele>
        <time>2011-08-12T12:52:08Z</time>
      </trkpt>
      <trkpt lat="43.89029" lon="6.57009">
        <ele>1683.89</ele>
        <time>2011-08-12T12:52:19Z</time>
      </trkpt>
      <trkpt lat="43.89029" lon="6.57009">
        <ele>1684.37</ele>
        <time>2011-08-12T12:52:21Z</time>
      </trkpt>
      <trkpt lat="43.89035" lon="6.57003">
        <ele>1686.29</ele>
        <time>2011-08-12T12:52:33Z</time>
      </trkpt>
      <trkpt lat="43.8904" lon="6.56996">
        <ele>1687.25</ele>
        <time>2011-08-12T12:52:43Z</time>
      </trkpt>
      <trkpt lat="43.89045" lon="6.56989">
        <ele>1688.69</ele>
        <time>2011-08-12T12:52:54Z</time>
      </trkpt>
      <trkpt lat="43.89051" lon="6.56984">
        <ele>1689.65</ele>
        <time>2011-08-12T12:53:05Z</time>
      </trkpt>
      <trkpt lat="43.89056" lon="6.56978">
        <ele>1690.62</ele>
        <time>2011-08-12T12:53:16Z</time>
      </trkpt>
      <trkpt lat="43.89056" lon="6.56977">
        <ele>1690.62</ele>
        <time>2011-08-12T12:53:27Z</time>
      </trkpt>
      <trkpt lat="43.89066" lon="6.56977">
        <ele>1689.65</ele>
        <time>2011-08-12T12:53:40Z</time>
      </trkpt>
      <trkpt lat="43.89072" lon="6.56975">
        <ele>1689.17</ele>
        <time>2011-08-12T12:53:50Z</time>
      </trkpt>
      <trkpt lat="43.89081" lon="6.56973">
        <ele>1688.21</ele>
        <time>2011-08-12T12:54:02Z</time>
      </trkpt>
      <trkpt lat="43.8909" lon="6.56969">
        <ele>1686.77</ele>
        <time>2011-08-12T12:54:13Z</time>
      </trkpt>
      <trkpt lat="43.891" lon="6.56963">
        <ele>1686.29</ele>
        <time>2011-08-12T12:54:27Z</time>
      </trkpt>
      <trkpt lat="43.89111" lon="6.56956">
        <ele>1686.77</ele>
        <time>2011-08-12T12:54:40Z</time>
      </trkpt>
      <trkpt lat="43.89117" lon="6.56947">
        <ele>1687.73</ele>
        <time>2011-08-12T12:54:52Z</time>
      </trkpt>
      <trkpt lat="43.89126" lon="6.56941">
        <ele>1687.25</ele>
        <time>2011-08-12T12:55:04Z</time>
      </trkpt>
      <trkpt lat="43.89127" lon="6.56941">
        <ele>1687.25</ele>
        <time>2011-08-12T12:55:05Z</time>
      </trkpt>
      <trkpt lat="43.89138" lon="6.5694">
        <ele>1686.29</ele>
        <time>2011-08-12T12:55:17Z</time>
      </trkpt>
      <trkpt lat="43.89152" lon="6.56932">
        <ele>1686.29</ele>
        <time>2011-08-12T12:55:32Z</time>
      </trkpt>
      <trkpt lat="43.89161" lon="6.56926">
        <ele>1686.29</ele>
        <time>2011-08-12T12:55:43Z</time>
      </trkpt>
      <trkpt lat="43.89163" lon="6.56925">
        <ele>1686.29</ele>
        <time>2011-08-12T12:55:45Z</time>
      </trkpt>
      <trkpt lat="43.8917" lon="6.56918">
        <ele>1686.77</ele>
        <time>2011-08-12T12:55:57Z</time>
      </trkpt>
      <trkpt lat="43.89175" lon="6.56915">
        <ele>1687.25</ele>
        <time>2011-08-12T12:56:07Z</time>
      </trkpt>
      <trkpt lat="43.89181" lon="6.56912">
        <ele>1687.73</ele>
        <time>2011-08-12T12:56:18Z</time>
      </trkpt>
      <trkpt lat="43.89184" lon="6.56909">
        <ele>1687.25</ele>
        <time>2011-08-12T12:56:27Z</time>
      </trkpt>
      <trkpt lat="43.8919" lon="6.56905">
        <ele>1687.73</ele>
        <time>2011-08-12T12:56:37Z</time>
      </trkpt>
      <trkpt lat="43.89192" lon="6.56899">
        <ele>1688.69</ele>
        <time>2011-08-12T12:56:47Z</time>
      </trkpt>
      <trkpt lat="43.89194" lon="6.56895">
        <ele>1690.62</ele>
        <time>2011-08-12T12:56:57Z</time>
      </trkpt>
      <trkpt lat="43.89196" lon="6.56888">
        <ele>1691.58</ele>
        <time>2011-08-12T12:57:07Z</time>
      </trkpt>
      <trkpt lat="43.89197" lon="6.56885">
        <ele>1692.54</ele>
        <time>2011-08-12T12:57:21Z</time>
      </trkpt>
      <trkpt lat="43.89202" lon="6.56885">
        <ele>1692.06</ele>
        <time>2011-08-12T12:57:32Z</time>
      </trkpt>
      <trkpt lat="43.89204" lon="6.56882">
        <ele>1692.06</ele>
        <time>2011-08-12T12:57:43Z</time>
      </trkpt>
      <trkpt lat="43.89208" lon="6.56882">
        <ele>1691.58</ele>
        <time>2011-08-12T12:57:52Z</time>
      </trkpt>
      <trkpt lat="43.89213" lon="6.56879">
        <ele>1691.58</ele>
        <time>2011-08-12T12:58:01Z</time>
      </trkpt>
      <trkpt lat="43.89216" lon="6.56876">
        <ele>1691.58</ele>
        <time>2011-08-12T12:58:06Z</time>
      </trkpt>
      <trkpt lat="43.89223" lon="6.5687">
        <ele>1692.06</ele>
        <time>2011-08-12T12:58:18Z</time>
      </trkpt>
      <trkpt lat="43.89227" lon="6.56869">
        <ele>1692.06</ele>
        <time>2011-08-12T12:58:28Z</time>
      </trkpt>
      <trkpt lat="43.89228" lon="6.56868">
        <ele>1691.58</ele>
        <time>2011-08-12T12:58:41Z</time>
      </trkpt>
      <trkpt lat="43.89228" lon="6.56868">
        <ele>1692.06</ele>
        <time>2011-08-12T12:59:02Z</time>
      </trkpt>
      <trkpt lat="43.89227" lon="6.56869">
        <ele>1691.1</ele>
        <time>2011-08-12T12:59:26Z</time>
      </trkpt>
      <trkpt lat="43.89228" lon="6.56869">
        <ele>1690.62</ele>
        <time>2011-08-12T12:59:40Z</time>
      </trkpt>
      <trkpt lat="43.89228" lon="6.56869">
        <ele>1692.06</ele>
        <time>2011-08-12T13:02:54Z</time>
      </trkpt>
      <trkpt lat="43.89229" lon="6.5687">
        <ele>1692.54</ele>
        <time>2011-08-12T13:05:59Z</time>
      </trkpt>
      <trkpt lat="43.89229" lon="6.5687">
        <ele>1693.98</ele>
        <time>2011-08-12T13:07:05Z</time>
      </trkpt>
      <trkpt lat="43.89223" lon="6.56871">
        <ele>1693.98</ele>
        <time>2011-08-12T13:07:27Z</time>
      </trkpt>
      <trkpt lat="43.89219" lon="6.56878">
        <ele>1693.02</ele>
        <time>2011-08-12T13:07:37Z</time>
      </trkpt>
      <trkpt lat="43.89216" lon="6.56882">
        <ele>1691.58</ele>
        <time>2011-08-12T13:07:47Z</time>
      </trkpt>
      <trkpt lat="43.89213" lon="6.56885">
        <ele>1692.06</ele>
        <time>2011-08-12T13:07:56Z</time>
      </trkpt>
      <trkpt lat="43.8921" lon="6.56883">
        <ele>1693.98</ele>
        <time>2011-08-12T13:08:02Z</time>
      </trkpt>
      <trkpt lat="43.89204" lon="6.56883">
        <ele>1693.98</ele>
        <time>2011-08-12T13:08:12Z</time>
      </trkpt>
      <trkpt lat="43.892" lon="6.56887">
        <ele>1694.46</ele>
        <time>2011-08-12T13:08:21Z</time>
      </trkpt>
      <trkpt lat="43.89195" lon="6.5689">
        <ele>1694.46</ele>
        <time>2011-08-12T13:08:31Z</time>
      </trkpt>
      <trkpt lat="43.89195" lon="6.56895">
        <ele>1693.5</ele>
        <time>2011-08-12T13:08:40Z</time>
      </trkpt>
      <trkpt lat="43.89191" lon="6.56898">
        <ele>1692.06</ele>
        <time>2011-08-12T13:08:53Z</time>
      </trkpt>
      <trkpt lat="43.89188" lon="6.569">
        <ele>1692.54</ele>
        <time>2011-08-12T13:09:04Z</time>
      </trkpt>
      <trkpt lat="43.89187" lon="6.569">
        <ele>1692.06</ele>
        <time>2011-08-12T13:09:12Z</time>
      </trkpt>
      <trkpt lat="43.89186" lon="6.56904">
        <ele>1691.1</ele>
        <time>2011-08-12T13:09:21Z</time>
      </trkpt>
      <trkpt lat="43.89182" lon="6.56909">
        <ele>1691.1</ele>
        <time>2011-08-12T13:09:30Z</time>
      </trkpt>
      <trkpt lat="43.89177" lon="6.56913">
        <ele>1690.14</ele>
        <time>2011-08-12T13:09:40Z</time>
      </trkpt>
      <trkpt lat="43.89172" lon="6.56915">
        <ele>1690.62</ele>
        <time>2011-08-12T13:09:47Z</time>
      </trkpt>
      <trkpt lat="43.8917" lon="6.56917">
        <ele>1690.14</ele>
        <time>2011-08-12T13:09:49Z</time>
      </trkpt>
      <trkpt lat="43.89163" lon="6.56924">
        <ele>1689.17</ele>
        <time>2011-08-12T13:10:00Z</time>
      </trkpt>
      <trkpt lat="43.89162" lon="6.56926">
        <ele>1689.65</ele>
        <time>2011-08-12T13:10:03Z</time>
      </trkpt>
      <trkpt lat="43.89151" lon="6.56935">
        <ele>1688.69</ele>
        <time>2011-08-12T13:10:15Z</time>
      </trkpt>
      <trkpt lat="43.89147" lon="6.56936">
        <ele>1689.65</ele>
        <time>2011-08-12T13:10:20Z</time>
      </trkpt>
      <trkpt lat="43.89142" lon="6.56941">
        <ele>1688.69</ele>
        <time>2011-08-12T13:10:26Z</time>
      </trkpt>
      <trkpt lat="43.89136" lon="6.56944">
        <ele>1691.58</ele>
        <time>2011-08-12T13:10:33Z</time>
      </trkpt>
      <trkpt lat="43.8913" lon="6.56948">
        <ele>1693.02</ele>
        <time>2011-08-12T13:10:39Z</time>
      </trkpt>
      <trkpt lat="43.89116" lon="6.56957">
        <ele>1690.62</ele>
        <time>2011-08-12T13:10:52Z</time>
      </trkpt>
      <trkpt lat="43.89104" lon="6.56965">
        <ele>1692.06</ele>
        <time>2011-08-12T13:11:04Z</time>
      </trkpt>
      <trkpt lat="43.89098" lon="6.5697">
        <ele>1691.1</ele>
        <time>2011-08-12T13:11:10Z</time>
      </trkpt>
      <trkpt lat="43.89087" lon="6.5698">
        <ele>1690.14</ele>
        <time>2011-08-12T13:11:22Z</time>
      </trkpt>
      <trkpt lat="43.89078" lon="6.56987">
        <ele>1689.17</ele>
        <time>2011-08-12T13:11:32Z</time>
      </trkpt>
      <trkpt lat="43.89067" lon="6.56995">
        <ele>1688.69</ele>
        <time>2011-08-12T13:11:44Z</time>
      </trkpt>
      <trkpt lat="43.89064" lon="6.56997">
        <ele>1688.21</ele>
        <time>2011-08-12T13:11:47Z</time>
      </trkpt>
      <trkpt lat="43.89062" lon="6.56998">
        <ele>1688.21</ele>
        <time>2011-08-12T13:11:49Z</time>
      </trkpt>
      <trkpt lat="43.8906" lon="6.56998">
        <ele>1688.21</ele>
        <time>2011-08-12T13:11:52Z</time>
      </trkpt>
      <trkpt lat="43.89052" lon="6.57005">
        <ele>1686.77</ele>
        <time>2011-08-12T13:12:00Z</time>
      </trkpt>
      <trkpt lat="43.89042" lon="6.5701">
        <ele>1686.77</ele>
        <time>2011-08-12T13:12:11Z</time>
      </trkpt>
      <trkpt lat="43.89032" lon="6.57014">
        <ele>1685.33</ele>
        <time>2011-08-12T13:12:22Z</time>
      </trkpt>
      <trkpt lat="43.89021" lon="6.57017">
        <ele>1684.37</ele>
        <time>2011-08-12T13:12:34Z</time>
      </trkpt>
      <trkpt lat="43.89017" lon="6.57018">
        <ele>1683.89</ele>
        <time>2011-08-12T13:12:46Z</time>
      </trkpt>
      <trkpt lat="43.89014" lon="6.57019">
        <ele>1682.93</ele>
        <time>2011-08-12T13:12:57Z</time>
      </trkpt>
      <trkpt lat="43.89011" lon="6.57021">
        <ele>1683.41</ele>
        <time>2011-08-12T13:13:06Z</time>
      </trkpt>
      <trkpt lat="43.89011" lon="6.5702">
        <ele>1683.41</ele>
        <time>2011-08-12T13:13:20Z</time>
      </trkpt>
      <trkpt lat="43.89009" lon="6.5702">
        <ele>1683.41</ele>
        <time>2011-08-12T13:13:33Z</time>
      </trkpt>
      <trkpt lat="43.89007" lon="6.57017">
        <ele>1683.89</ele>
        <time>2011-08-12T13:13:45Z</time>
      </trkpt>
      <trkpt lat="43.89003" lon="6.57018">
        <ele>1683.89</ele>
        <time>2011-08-12T13:13:55Z</time>
      </trkpt>
      <trkpt lat="43.88998" lon="6.57019">
        <ele>1684.37</ele>
        <time>2011-08-12T13:14:05Z</time>
      </trkpt>
      <trkpt lat="43.88994" lon="6.57019">
        <ele>1684.37</ele>
        <time>2011-08-12T13:14:11Z</time>
      </trkpt>
      <trkpt lat="43.88986" lon="6.57019">
        <ele>1684.37</ele>
        <time>2011-08-12T13:14:21Z</time>
      </trkpt>
      <trkpt lat="43.88978" lon="6.57019">
        <ele>1683.89</ele>
        <time>2011-08-12T13:14:31Z</time>
      </trkpt>
      <trkpt lat="43.88972" lon="6.57021">
        <ele>1682.93</ele>
        <time>2011-08-12T13:14:41Z</time>
      </trkpt>
      <trkpt lat="43.88963" lon="6.57027">
        <ele>1681</ele>
        <time>2011-08-12T13:14:52Z</time>
      </trkpt>
      <trkpt lat="43.88956" lon="6.57031">
        <ele>1680.04</ele>
        <time>2011-08-12T13:15:03Z</time>
      </trkpt>
      <trkpt lat="43.88951" lon="6.57036">
        <ele>1678.6</ele>
        <time>2011-08-12T13:15:14Z</time>
      </trkpt>
      <trkpt lat="43.88946" lon="6.5704">
        <ele>1677.16</ele>
        <time>2011-08-12T13:15:25Z</time>
      </trkpt>
      <trkpt lat="43.88942" lon="6.57043">
        <ele>1675.72</ele>
        <time>2011-08-12T13:15:36Z</time>
      </trkpt>
      <trkpt lat="43.88934" lon="6.57045">
        <ele>1674.27</ele>
        <time>2011-08-12T13:15:47Z</time>
      </trkpt>
      <trkpt lat="43.88928" lon="6.57049">
        <ele>1672.83</ele>
        <time>2011-08-12T13:15:59Z</time>
      </trkpt>
      <trkpt lat="43.88923" lon="6.57052">
        <ele>1671.39</ele>
        <time>2011-08-12T13:16:08Z</time>
      </trkpt>
      <trkpt lat="43.88919" lon="6.57057">
        <ele>1669.95</ele>
        <time>2011-08-12T13:16:19Z</time>
      </trkpt>
      <trkpt lat="43.88912" lon="6.57059">
        <ele>1669.95</ele>
        <time>2011-08-12T13:16:28Z</time>
      </trkpt>
      <trkpt lat="43.8891" lon="6.5706">
        <ele>1668.02</ele>
        <time>2011-08-12T13:16:36Z</time>
      </trkpt>
      <trkpt lat="43.88905" lon="6.57064">
        <ele>1666.58</ele>
        <time>2011-08-12T13:16:47Z</time>
      </trkpt>
      <trkpt lat="43.88896" lon="6.5707">
        <ele>1666.1</ele>
        <time>2011-08-12T13:16:57Z</time>
      </trkpt>
      <trkpt lat="43.88889" lon="6.57079">
        <ele>1665.14</ele>
        <time>2011-08-12T13:17:09Z</time>
      </trkpt>
      <trkpt lat="43.88885" lon="6.57086">
        <ele>1665.62</ele>
        <time>2011-08-12T13:17:19Z</time>
      </trkpt>
      <trkpt lat="43.88881" lon="6.5709">
        <ele>1665.14</ele>
        <time>2011-08-12T13:17:24Z</time>
      </trkpt>
      <trkpt lat="43.88876" lon="6.57101">
        <ele>1666.1</ele>
        <time>2011-08-12T13:17:35Z</time>
      </trkpt>
      <trkpt lat="43.8887" lon="6.57113">
        <ele>1667.54</ele>
        <time>2011-08-12T13:17:47Z</time>
      </trkpt>
      <trkpt lat="43.88868" lon="6.57118">
        <ele>1667.06</ele>
        <time>2011-08-12T13:17:57Z</time>
      </trkpt>
      <trkpt lat="43.88866" lon="6.57123">
        <ele>1667.54</ele>
        <time>2011-08-12T13:18:06Z</time>
      </trkpt>
      <trkpt lat="43.88863" lon="6.57133">
        <ele>1668.02</ele>
        <time>2011-08-12T13:18:16Z</time>
      </trkpt>
      <trkpt lat="43.88859" lon="6.57142">
        <ele>1668.99</ele>
        <time>2011-08-12T13:18:26Z</time>
      </trkpt>
      <trkpt lat="43.88854" lon="6.57152">
        <ele>1670.43</ele>
        <time>2011-08-12T13:18:37Z</time>
      </trkpt>
      <trkpt lat="43.88847" lon="6.57158">
        <ele>1670.43</ele>
        <time>2011-08-12T13:18:47Z</time>
      </trkpt>
      <trkpt lat="43.88844" lon="6.57162">
        <ele>1669.95</ele>
        <time>2011-08-12T13:18:52Z</time>
      </trkpt>
      <trkpt lat="43.88837" lon="6.57169">
        <ele>1669.47</ele>
        <time>2011-08-12T13:19:03Z</time>
      </trkpt>
      <trkpt lat="43.88831" lon="6.57174">
        <ele>1668.99</ele>
        <time>2011-08-12T13:19:14Z</time>
      </trkpt>
      <trkpt lat="43.88825" lon="6.57181">
        <ele>1668.02</ele>
        <time>2011-08-12T13:19:23Z</time>
      </trkpt>
      <trkpt lat="43.8882" lon="6.57188">
        <ele>1667.06</ele>
        <time>2011-08-12T13:19:33Z</time>
      </trkpt>
      <trkpt lat="43.88818" lon="6.57191">
        <ele>1666.1</ele>
        <time>2011-08-12T13:19:36Z</time>
      </trkpt>
      <trkpt lat="43.88809" lon="6.57199">
        <ele>1666.58</ele>
        <time>2011-08-12T13:19:48Z</time>
      </trkpt>
      <trkpt lat="43.88807" lon="6.57201">
        <ele>1666.1</ele>
        <time>2011-08-12T13:19:51Z</time>
      </trkpt>
      <trkpt lat="43.88801" lon="6.5721">
        <ele>1666.1</ele>
        <time>2011-08-12T13:20:01Z</time>
      </trkpt>
      <trkpt lat="43.88792" lon="6.57218">
        <ele>1665.62</ele>
        <time>2011-08-12T13:20:12Z</time>
      </trkpt>
      <trkpt lat="43.88785" lon="6.57228">
        <ele>1665.14</ele>
        <time>2011-08-12T13:20:23Z</time>
      </trkpt>
      <trkpt lat="43.88778" lon="6.57237">
        <ele>1665.14</ele>
        <time>2011-08-12T13:20:34Z</time>
      </trkpt>
      <trkpt lat="43.88769" lon="6.57245">
        <ele>1664.66</ele>
        <time>2011-08-12T13:20:46Z</time>
      </trkpt>
      <trkpt lat="43.88759" lon="6.57251">
        <ele>1664.66</ele>
        <time>2011-08-12T13:20:58Z</time>
      </trkpt>
      <trkpt lat="43.88759" lon="6.57252">
        <ele>1664.66</ele>
        <time>2011-08-12T13:21:16Z</time>
      </trkpt>
      <trkpt lat="43.88759" lon="6.57252">
        <ele>1664.18</ele>
        <time>2011-08-12T13:21:43Z</time>
      </trkpt>
      <trkpt lat="43.88759" lon="6.57253">
        <ele>1664.18</ele>
        <time>2011-08-12T13:21:54Z</time>
      </trkpt>
      <trkpt lat="43.88755" lon="6.57258">
        <ele>1664.18</ele>
        <time>2011-08-12T13:22:04Z</time>
      </trkpt>
      <trkpt lat="43.88751" lon="6.57263">
        <ele>1664.66</ele>
        <time>2011-08-12T13:22:10Z</time>
      </trkpt>
      <trkpt lat="43.88749" lon="6.57264">
        <ele>1664.66</ele>
        <time>2011-08-12T13:22:12Z</time>
      </trkpt>
      <trkpt lat="43.88745" lon="6.57271">
        <ele>1664.18</ele>
        <time>2011-08-12T13:22:19Z</time>
      </trkpt>
      <trkpt lat="43.88739" lon="6.5728">
        <ele>1664.66</ele>
        <time>2011-08-12T13:22:30Z</time>
      </trkpt>
      <trkpt lat="43.88739" lon="6.57281">
        <ele>1665.14</ele>
        <time>2011-08-12T13:22:43Z</time>
      </trkpt>
      <trkpt lat="43.88736" lon="6.57287">
        <ele>1665.14</ele>
        <time>2011-08-12T13:22:52Z</time>
      </trkpt>
      <trkpt lat="43.88733" lon="6.57293">
        <ele>1664.66</ele>
        <time>2011-08-12T13:23:02Z</time>
      </trkpt>
      <trkpt lat="43.8873" lon="6.57299">
        <ele>1665.14</ele>
        <time>2011-08-12T13:23:08Z</time>
      </trkpt>
      <trkpt lat="43.88723" lon="6.57308">
        <ele>1665.62</ele>
        <time>2011-08-12T13:23:18Z</time>
      </trkpt>
      <trkpt lat="43.88718" lon="6.5732">
        <ele>1666.1</ele>
        <time>2011-08-12T13:23:29Z</time>
      </trkpt>
      <trkpt lat="43.88713" lon="6.57332">
        <ele>1666.58</ele>
        <time>2011-08-12T13:23:40Z</time>
      </trkpt>
      <trkpt lat="43.8871" lon="6.57343">
        <ele>1668.02</ele>
        <time>2011-08-12T13:23:51Z</time>
      </trkpt>
      <trkpt lat="43.88705" lon="6.57354">
        <ele>1668.02</ele>
        <time>2011-08-12T13:24:02Z</time>
      </trkpt>
      <trkpt lat="43.887" lon="6.57367">
        <ele>1668.51</ele>
        <time>2011-08-12T13:24:14Z</time>
      </trkpt>
      <trkpt lat="43.88696" lon="6.57378">
        <ele>1669.47</ele>
        <time>2011-08-12T13:24:26Z</time>
      </trkpt>
      <trkpt lat="43.88693" lon="6.57386">
        <ele>1670.43</ele>
        <time>2011-08-12T13:24:37Z</time>
      </trkpt>
      <trkpt lat="43.88692" lon="6.57388">
        <ele>1670.43</ele>
        <time>2011-08-12T13:24:52Z</time>
      </trkpt>
      <trkpt lat="43.8869" lon="6.57394">
        <ele>1671.87</ele>
        <time>2011-08-12T13:25:02Z</time>
      </trkpt>
      <trkpt lat="43.88686" lon="6.57403">
        <ele>1672.83</ele>
        <time>2011-08-12T13:25:12Z</time>
      </trkpt>
      <trkpt lat="43.88684" lon="6.57411">
        <ele>1673.79</ele>
        <time>2011-08-12T13:25:24Z</time>
      </trkpt>
      <trkpt lat="43.88683" lon="6.57413">
        <ele>1674.75</ele>
        <time>2011-08-12T13:25:33Z</time>
      </trkpt>
      <trkpt lat="43.8868" lon="6.57415">
        <ele>1676.2</ele>
        <time>2011-08-12T13:25:44Z</time>
      </trkpt>
      <trkpt lat="43.88679" lon="6.57419">
        <ele>1677.16</ele>
        <time>2011-08-12T13:25:55Z</time>
      </trkpt>
      <trkpt lat="43.88677" lon="6.57421">
        <ele>1678.12</ele>
        <time>2011-08-12T13:26:06Z</time>
      </trkpt>
      <trkpt lat="43.88674" lon="6.57424">
        <ele>1679.08</ele>
        <time>2011-08-12T13:26:15Z</time>
      </trkpt>
      <trkpt lat="43.88672" lon="6.57429">
        <ele>1680.04</ele>
        <time>2011-08-12T13:26:24Z</time>
      </trkpt>
      <trkpt lat="43.88669" lon="6.57433">
        <ele>1681.96</ele>
        <time>2011-08-12T13:26:34Z</time>
      </trkpt>
      <trkpt lat="43.88667" lon="6.57437">
        <ele>1682.44</ele>
        <time>2011-08-12T13:26:39Z</time>
      </trkpt>
      <trkpt lat="43.88662" lon="6.5744">
        <ele>1683.89</ele>
        <time>2011-08-12T13:26:48Z</time>
      </trkpt>
      <trkpt lat="43.8866" lon="6.57444">
        <ele>1684.37</ele>
        <time>2011-08-12T13:26:58Z</time>
      </trkpt>
      <trkpt lat="43.88658" lon="6.57451">
        <ele>1685.33</ele>
        <time>2011-08-12T13:27:08Z</time>
      </trkpt>
      <trkpt lat="43.88655" lon="6.57457">
        <ele>1686.29</ele>
        <time>2011-08-12T13:27:18Z</time>
      </trkpt>
      <trkpt lat="43.88652" lon="6.57465">
        <ele>1686.77</ele>
        <time>2011-08-12T13:27:27Z</time>
      </trkpt>
      <trkpt lat="43.8865" lon="6.57475">
        <ele>1686.77</ele>
        <time>2011-08-12T13:27:37Z</time>
      </trkpt>
      <trkpt lat="43.88647" lon="6.57485">
        <ele>1687.73</ele>
        <time>2011-08-12T13:27:47Z</time>
      </trkpt>
      <trkpt lat="43.88646" lon="6.5749">
        <ele>1687.73</ele>
        <time>2011-08-12T13:27:52Z</time>
      </trkpt>
      <trkpt lat="43.8864" lon="6.57501">
        <ele>1688.69</ele>
        <time>2011-08-12T13:28:04Z</time>
      </trkpt>
      <trkpt lat="43.88635" lon="6.57513">
        <ele>1689.17</ele>
        <time>2011-08-12T13:28:16Z</time>
      </trkpt>
      <trkpt lat="43.88631" lon="6.57523">
        <ele>1690.14</ele>
        <time>2011-08-12T13:28:25Z</time>
      </trkpt>
      <trkpt lat="43.88627" lon="6.57536">
        <ele>1690.14</ele>
        <time>2011-08-12T13:28:37Z</time>
      </trkpt>
      <trkpt lat="43.88625" lon="6.57549">
        <ele>1690.14</ele>
        <time>2011-08-12T13:28:48Z</time>
      </trkpt>
      <trkpt lat="43.88623" lon="6.57566">
        <ele>1690.14</ele>
        <time>2011-08-12T13:29:02Z</time>
      </trkpt>
      <trkpt lat="43.88619" lon="6.57577">
        <ele>1689.65</ele>
        <time>2011-08-12T13:29:11Z</time>
      </trkpt>
      <trkpt lat="43.88617" lon="6.57591">
        <ele>1689.65</ele>
        <time>2011-08-12T13:29:23Z</time>
      </trkpt>
      <trkpt lat="43.88616" lon="6.57605">
        <ele>1690.14</ele>
        <time>2011-08-12T13:29:34Z</time>
      </trkpt>
      <trkpt lat="43.88613" lon="6.5762">
        <ele>1690.14</ele>
        <time>2011-08-12T13:29:46Z</time>
      </trkpt>
      <trkpt lat="43.8861" lon="6.57634">
        <ele>1690.62</ele>
        <time>2011-08-12T13:29:58Z</time>
      </trkpt>
      <trkpt lat="43.8861" lon="6.57635">
        <ele>1690.62</ele>
        <time>2011-08-12T13:29:59Z</time>
      </trkpt>
      <trkpt lat="43.88608" lon="6.57644">
        <ele>1691.1</ele>
        <time>2011-08-12T13:30:09Z</time>
      </trkpt>
      <trkpt lat="43.88611" lon="6.57658">
        <ele>1688.69</ele>
        <time>2011-08-12T13:30:20Z</time>
      </trkpt>
      <trkpt lat="43.88608" lon="6.57666">
        <ele>1687.25</ele>
        <time>2011-08-12T13:30:30Z</time>
      </trkpt>
      <trkpt lat="43.88607" lon="6.57672">
        <ele>1685.33</ele>
        <time>2011-08-12T13:30:40Z</time>
      </trkpt>
      <trkpt lat="43.88602" lon="6.5767">
        <ele>1684.85</ele>
        <time>2011-08-12T13:30:48Z</time>
      </trkpt>
      <trkpt lat="43.88598" lon="6.5767">
        <ele>1683.89</ele>
        <time>2011-08-12T13:30:57Z</time>
      </trkpt>
      <trkpt lat="43.88597" lon="6.57673">
        <ele>1682.44</ele>
        <time>2011-08-12T13:31:07Z</time>
      </trkpt>
      <trkpt lat="43.88591" lon="6.57676">
        <ele>1681.48</ele>
        <time>2011-08-12T13:31:15Z</time>
      </trkpt>
      <trkpt lat="43.88588" lon="6.57679">
        <ele>1681.48</ele>
        <time>2011-08-12T13:31:19Z</time>
      </trkpt>
      <trkpt lat="43.88583" lon="6.57684">
        <ele>1681.48</ele>
        <time>2011-08-12T13:31:24Z</time>
      </trkpt>
      <trkpt lat="43.88575" lon="6.57697">
        <ele>1681.96</ele>
        <time>2011-08-12T13:31:37Z</time>
      </trkpt>
      <trkpt lat="43.88572" lon="6.57704">
        <ele>1682.93</ele>
        <time>2011-08-12T13:31:46Z</time>
      </trkpt>
      <trkpt lat="43.88573" lon="6.57707">
        <ele>1683.41</ele>
        <time>2011-08-12T13:31:48Z</time>
      </trkpt>
      <trkpt lat="43.88572" lon="6.57709">
        <ele>1683.89</ele>
        <time>2011-08-12T13:31:50Z</time>
      </trkpt>
      <trkpt lat="43.88572" lon="6.57712">
        <ele>1683.89</ele>
        <time>2011-08-12T13:31:52Z</time>
      </trkpt>
      <trkpt lat="43.88567" lon="6.57727">
        <ele>1683.89</ele>
        <time>2011-08-12T13:32:05Z</time>
      </trkpt>
      <trkpt lat="43.88567" lon="6.57731">
        <ele>1683.41</ele>
        <time>2011-08-12T13:32:08Z</time>
      </trkpt>
      <trkpt lat="43.88564" lon="6.57739">
        <ele>1683.41</ele>
        <time>2011-08-12T13:32:14Z</time>
      </trkpt>
      <trkpt lat="43.88563" lon="6.57744">
        <ele>1683.41</ele>
        <time>2011-08-12T13:32:18Z</time>
      </trkpt>
      <trkpt lat="43.88562" lon="6.57752">
        <ele>1682.93</ele>
        <time>2011-08-12T13:32:24Z</time>
      </trkpt>
      <trkpt lat="43.88558" lon="6.57757">
        <ele>1681.96</ele>
        <time>2011-08-12T13:32:31Z</time>
      </trkpt>
      <trkpt lat="43.88551" lon="6.57771">
        <ele>1681</ele>
        <time>2011-08-12T13:32:43Z</time>
      </trkpt>
      <trkpt lat="43.88548" lon="6.57777">
        <ele>1681</ele>
        <time>2011-08-12T13:32:47Z</time>
      </trkpt>
      <trkpt lat="43.88544" lon="6.57788">
        <ele>1680.52</ele>
        <time>2011-08-12T13:32:56Z</time>
      </trkpt>
      <trkpt lat="43.88537" lon="6.578">
        <ele>1680.52</ele>
        <time>2011-08-12T13:33:09Z</time>
      </trkpt>
      <trkpt lat="43.88533" lon="6.57812">
        <ele>1680.04</ele>
        <time>2011-08-12T13:33:20Z</time>
      </trkpt>
      <trkpt lat="43.88531" lon="6.57813">
        <ele>1679.56</ele>
        <time>2011-08-12T13:33:22Z</time>
      </trkpt>
      <trkpt lat="43.88527" lon="6.5782">
        <ele>1678.6</ele>
        <time>2011-08-12T13:33:29Z</time>
      </trkpt>
      <trkpt lat="43.88524" lon="6.5782">
        <ele>1679.08</ele>
        <time>2011-08-12T13:33:33Z</time>
      </trkpt>
      <trkpt lat="43.88514" lon="6.57826">
        <ele>1678.6</ele>
        <time>2011-08-12T13:33:45Z</time>
      </trkpt>
      <trkpt lat="43.88509" lon="6.57832">
        <ele>1678.6</ele>
        <time>2011-08-12T13:33:52Z</time>
      </trkpt>
      <trkpt lat="43.885" lon="6.57844">
        <ele>1678.12</ele>
        <time>2011-08-12T13:34:05Z</time>
      </trkpt>
      <trkpt lat="43.88497" lon="6.57852">
        <ele>1678.12</ele>
        <time>2011-08-12T13:34:12Z</time>
      </trkpt>
      <trkpt lat="43.88496" lon="6.57856">
        <ele>1678.12</ele>
        <time>2011-08-12T13:34:15Z</time>
      </trkpt>
      <trkpt lat="43.88492" lon="6.57871">
        <ele>1678.12</ele>
        <time>2011-08-12T13:34:27Z</time>
      </trkpt>
      <trkpt lat="43.88487" lon="6.57882">
        <ele>1679.56</ele>
        <time>2011-08-12T13:34:38Z</time>
      </trkpt>
      <trkpt lat="43.88486" lon="6.57892">
        <ele>1679.56</ele>
        <time>2011-08-12T13:34:46Z</time>
      </trkpt>
      <trkpt lat="43.88483" lon="6.57903">
        <ele>1679.56</ele>
        <time>2011-08-12T13:34:56Z</time>
      </trkpt>
      <trkpt lat="43.88482" lon="6.57905">
        <ele>1680.04</ele>
        <time>2011-08-12T13:34:58Z</time>
      </trkpt>
      <trkpt lat="43.88475" lon="6.57918">
        <ele>1680.04</ele>
        <time>2011-08-12T13:35:10Z</time>
      </trkpt>
      <trkpt lat="43.8847" lon="6.57925">
        <ele>1680.52</ele>
        <time>2011-08-12T13:35:20Z</time>
      </trkpt>
      <trkpt lat="43.88469" lon="6.57927">
        <ele>1680.04</ele>
        <time>2011-08-12T13:35:22Z</time>
      </trkpt>
      <trkpt lat="43.88465" lon="6.57937">
        <ele>1680.52</ele>
        <time>2011-08-12T13:35:31Z</time>
      </trkpt>
      <trkpt lat="43.88465" lon="6.57941">
        <ele>1680.04</ele>
        <time>2011-08-12T13:35:34Z</time>
      </trkpt>
      <trkpt lat="43.88458" lon="6.57954">
        <ele>1677.64</ele>
        <time>2011-08-12T13:35:47Z</time>
      </trkpt>
      <trkpt lat="43.88452" lon="6.57963">
        <ele>1677.16</ele>
        <time>2011-08-12T13:35:58Z</time>
      </trkpt>
      <trkpt lat="43.88444" lon="6.57971">
        <ele>1675.72</ele>
        <time>2011-08-12T13:36:09Z</time>
      </trkpt>
      <trkpt lat="43.88442" lon="6.57973">
        <ele>1676.2</ele>
        <time>2011-08-12T13:36:12Z</time>
      </trkpt>
      <trkpt lat="43.8844" lon="6.57977">
        <ele>1675.72</ele>
        <time>2011-08-12T13:36:15Z</time>
      </trkpt>
      <trkpt lat="43.88438" lon="6.5798">
        <ele>1675.72</ele>
        <time>2011-08-12T13:36:19Z</time>
      </trkpt>
      <trkpt lat="43.88433" lon="6.57986">
        <ele>1674.27</ele>
        <time>2011-08-12T13:36:27Z</time>
      </trkpt>
      <trkpt lat="43.88426" lon="6.57998">
        <ele>1672.83</ele>
        <time>2011-08-12T13:36:40Z</time>
      </trkpt>
      <trkpt lat="43.88422" lon="6.58007">
        <ele>1671.87</ele>
        <time>2011-08-12T13:36:52Z</time>
      </trkpt>
      <trkpt lat="43.88417" lon="6.58014">
        <ele>1670.91</ele>
        <time>2011-08-12T13:37:03Z</time>
      </trkpt>
      <trkpt lat="43.88416" lon="6.58019">
        <ele>1669.95</ele>
        <time>2011-08-12T13:37:13Z</time>
      </trkpt>
      <trkpt lat="43.88414" lon="6.58027">
        <ele>1668.99</ele>
        <time>2011-08-12T13:37:23Z</time>
      </trkpt>
      <trkpt lat="43.8841" lon="6.58032">
        <ele>1668.51</ele>
        <time>2011-08-12T13:37:28Z</time>
      </trkpt>
      <trkpt lat="43.88409" lon="6.58037">
        <ele>1668.51</ele>
        <time>2011-08-12T13:37:31Z</time>
      </trkpt>
      <trkpt lat="43.88407" lon="6.58041">
        <ele>1667.54</ele>
        <time>2011-08-12T13:37:36Z</time>
      </trkpt>
      <trkpt lat="43.88406" lon="6.5805">
        <ele>1666.58</ele>
        <time>2011-08-12T13:37:48Z</time>
      </trkpt>
      <trkpt lat="43.88408" lon="6.58058">
        <ele>1666.58</ele>
        <time>2011-08-12T13:37:56Z</time>
      </trkpt>
      <trkpt lat="43.88408" lon="6.58065">
        <ele>1666.1</ele>
        <time>2011-08-12T13:38:05Z</time>
      </trkpt>
      <trkpt lat="43.88408" lon="6.58066">
        <ele>1664.66</ele>
        <time>2011-08-12T13:38:15Z</time>
      </trkpt>
      <trkpt lat="43.88408" lon="6.58066">
        <ele>1665.62</ele>
        <time>2011-08-12T13:38:43Z</time>
      </trkpt>
      <trkpt lat="43.88408" lon="6.58066">
        <ele>1666.58</ele>
        <time>2011-08-12T13:39:16Z</time>
      </trkpt>
      <trkpt lat="43.88407" lon="6.58065">
        <ele>1666.58</ele>
        <time>2011-08-12T13:39:30Z</time>
      </trkpt>
      <trkpt lat="43.88405" lon="6.58068">
        <ele>1665.62</ele>
        <time>2011-08-12T13:39:48Z</time>
      </trkpt>
      <trkpt lat="43.88403" lon="6.58069">
        <ele>1664.18</ele>
        <time>2011-08-12T13:39:57Z</time>
      </trkpt>
      <trkpt lat="43.88399" lon="6.58072">
        <ele>1664.66</ele>
        <time>2011-08-12T13:40:05Z</time>
      </trkpt>
      <trkpt lat="43.88392" lon="6.58075">
        <ele>1663.7</ele>
        <time>2011-08-12T13:40:13Z</time>
      </trkpt>
      <trkpt lat="43.88387" lon="6.58077">
        <ele>1661.3</ele>
        <time>2011-08-12T13:40:21Z</time>
      </trkpt>
      <trkpt lat="43.88387" lon="6.58087">
        <ele>1659.85</ele>
        <time>2011-08-12T13:40:31Z</time>
      </trkpt>
      <trkpt lat="43.88386" lon="6.581">
        <ele>1658.41</ele>
        <time>2011-08-12T13:40:43Z</time>
      </trkpt>
      <trkpt lat="43.88388" lon="6.5811">
        <ele>1658.41</ele>
        <time>2011-08-12T13:40:53Z</time>
      </trkpt>
      <trkpt lat="43.88388" lon="6.58122">
        <ele>1656.97</ele>
        <time>2011-08-12T13:41:04Z</time>
      </trkpt>
      <trkpt lat="43.88388" lon="6.58134">
        <ele>1655.53</ele>
        <time>2011-08-12T13:41:15Z</time>
      </trkpt>
      <trkpt lat="43.88387" lon="6.58138">
        <ele>1655.05</ele>
        <time>2011-08-12T13:41:28Z</time>
      </trkpt>
      <trkpt lat="43.88387" lon="6.58149">
        <ele>1653.6</ele>
        <time>2011-08-12T13:41:37Z</time>
      </trkpt>
      <trkpt lat="43.88387" lon="6.58156">
        <ele>1652.64</ele>
        <time>2011-08-12T13:41:44Z</time>
      </trkpt>
      <trkpt lat="43.88386" lon="6.58164">
        <ele>1652.16</ele>
        <time>2011-08-12T13:41:53Z</time>
      </trkpt>
      <trkpt lat="43.88383" lon="6.58175">
        <ele>1650.24</ele>
        <time>2011-08-12T13:42:05Z</time>
      </trkpt>
      <trkpt lat="43.88384" lon="6.58185">
        <ele>1649.28</ele>
        <time>2011-08-12T13:42:15Z</time>
      </trkpt>
      <trkpt lat="43.88384" lon="6.58192">
        <ele>1648.32</ele>
        <time>2011-08-12T13:42:23Z</time>
      </trkpt>
      <trkpt lat="43.88387" lon="6.58206">
        <ele>1647.36</ele>
        <time>2011-08-12T13:42:35Z</time>
      </trkpt>
      <trkpt lat="43.88385" lon="6.58216">
        <ele>1646.4</ele>
        <time>2011-08-12T13:42:46Z</time>
      </trkpt>
      <trkpt lat="43.88384" lon="6.58222">
        <ele>1644.95</ele>
        <time>2011-08-12T13:42:58Z</time>
      </trkpt>
      <trkpt lat="43.88387" lon="6.58226">
        <ele>1644.95</ele>
        <time>2011-08-12T13:43:06Z</time>
      </trkpt>
      <trkpt lat="43.88388" lon="6.58234">
        <ele>1643.99</ele>
        <time>2011-08-12T13:43:15Z</time>
      </trkpt>
      <trkpt lat="43.8839" lon="6.58248">
        <ele>1643.51</ele>
        <time>2011-08-12T13:43:26Z</time>
      </trkpt>
      <trkpt lat="43.8839" lon="6.58261">
        <ele>1643.99</ele>
        <time>2011-08-12T13:43:36Z</time>
      </trkpt>
      <trkpt lat="43.88388" lon="6.58275">
        <ele>1644.47</ele>
        <time>2011-08-12T13:43:48Z</time>
      </trkpt>
      <trkpt lat="43.88383" lon="6.58287">
        <ele>1645.43</ele>
        <time>2011-08-12T13:44:01Z</time>
      </trkpt>
      <trkpt lat="43.88382" lon="6.58292">
        <ele>1644.95</ele>
        <time>2011-08-12T13:44:06Z</time>
      </trkpt>
      <trkpt lat="43.88383" lon="6.58308">
        <ele>1645.43</ele>
        <time>2011-08-12T13:44:19Z</time>
      </trkpt>
      <trkpt lat="43.88382" lon="6.5832">
        <ele>1645.43</ele>
        <time>2011-08-12T13:44:30Z</time>
      </trkpt>
      <trkpt lat="43.88381" lon="6.58331">
        <ele>1644.95</ele>
        <time>2011-08-12T13:44:40Z</time>
      </trkpt>
      <trkpt lat="43.88381" lon="6.58342">
        <ele>1644.47</ele>
        <time>2011-08-12T13:44:50Z</time>
      </trkpt>
      <trkpt lat="43.88379" lon="6.58355">
        <ele>1643.51</ele>
        <time>2011-08-12T13:45:01Z</time>
      </trkpt>
      <trkpt lat="43.88378" lon="6.58356">
        <ele>1643.51</ele>
        <time>2011-08-12T13:45:02Z</time>
      </trkpt>
      <trkpt lat="43.88376" lon="6.58363">
        <ele>1642.55</ele>
        <time>2011-08-12T13:45:08Z</time>
      </trkpt>
      <trkpt lat="43.88376" lon="6.58368">
        <ele>1642.55</ele>
        <time>2011-08-12T13:45:12Z</time>
      </trkpt>
      <trkpt lat="43.88378" lon="6.58371">
        <ele>1642.07</ele>
        <time>2011-08-12T13:45:15Z</time>
      </trkpt>
      <trkpt lat="43.88377" lon="6.58377">
        <ele>1642.07</ele>
        <time>2011-08-12T13:45:20Z</time>
      </trkpt>
      <trkpt lat="43.88377" lon="6.58384">
        <ele>1643.03</ele>
        <time>2011-08-12T13:45:25Z</time>
      </trkpt>
      <trkpt lat="43.88376" lon="6.58393">
        <ele>1642.55</ele>
        <time>2011-08-12T13:45:33Z</time>
      </trkpt>
      <trkpt lat="43.88376" lon="6.58399">
        <ele>1642.07</ele>
        <time>2011-08-12T13:45:37Z</time>
      </trkpt>
      <trkpt lat="43.88376" lon="6.58415">
        <ele>1640.63</ele>
        <time>2011-08-12T13:45:50Z</time>
      </trkpt>
      <trkpt lat="43.88377" lon="6.58419">
        <ele>1640.63</ele>
        <time>2011-08-12T13:45:53Z</time>
      </trkpt>
      <trkpt lat="43.88377" lon="6.58426">
        <ele>1640.63</ele>
        <time>2011-08-12T13:45:59Z</time>
      </trkpt>
      <trkpt lat="43.88375" lon="6.58442">
        <ele>1641.11</ele>
        <time>2011-08-12T13:46:10Z</time>
      </trkpt>
      <trkpt lat="43.88375" lon="6.58443">
        <ele>1641.11</ele>
        <time>2011-08-12T13:46:11Z</time>
      </trkpt>
      <trkpt lat="43.88374" lon="6.58453">
        <ele>1642.55</ele>
        <time>2011-08-12T13:46:19Z</time>
      </trkpt>
      <trkpt lat="43.88372" lon="6.58467">
        <ele>1640.63</ele>
        <time>2011-08-12T13:46:31Z</time>
      </trkpt>
      <trkpt lat="43.88369" lon="6.58482">
        <ele>1639.67</ele>
        <time>2011-08-12T13:46:44Z</time>
      </trkpt>
      <trkpt lat="43.88363" lon="6.58491">
        <ele>1639.19</ele>
        <time>2011-08-12T13:46:54Z</time>
      </trkpt>
      <trkpt lat="43.88363" lon="6.58508">
        <ele>1636.78</ele>
        <time>2011-08-12T13:47:07Z</time>
      </trkpt>
      <trkpt lat="43.88358" lon="6.58514">
        <ele>1635.34</ele>
        <time>2011-08-12T13:47:18Z</time>
      </trkpt>
      <trkpt lat="43.88355" lon="6.58521">
        <ele>1634.38</ele>
        <time>2011-08-12T13:47:29Z</time>
      </trkpt>
      <trkpt lat="43.88355" lon="6.58525">
        <ele>1632.94</ele>
        <time>2011-08-12T13:47:39Z</time>
      </trkpt>
      <trkpt lat="43.8835" lon="6.5853">
        <ele>1632.46</ele>
        <time>2011-08-12T13:47:49Z</time>
      </trkpt>
      <trkpt lat="43.88345" lon="6.58535">
        <ele>1631.01</ele>
        <time>2011-08-12T13:47:57Z</time>
      </trkpt>
      <trkpt lat="43.88343" lon="6.58547">
        <ele>1629.57</ele>
        <time>2011-08-12T13:48:07Z</time>
      </trkpt>
      <trkpt lat="43.88338" lon="6.58551">
        <ele>1629.57</ele>
        <time>2011-08-12T13:48:12Z</time>
      </trkpt>
      <trkpt lat="43.88338" lon="6.58555">
        <ele>1629.57</ele>
        <time>2011-08-12T13:48:15Z</time>
      </trkpt>
      <trkpt lat="43.88336" lon="6.58558">
        <ele>1629.57</ele>
        <time>2011-08-12T13:48:18Z</time>
      </trkpt>
      <trkpt lat="43.88336" lon="6.58562">
        <ele>1628.61</ele>
        <time>2011-08-12T13:48:21Z</time>
      </trkpt>
      <trkpt lat="43.88333" lon="6.58567">
        <ele>1628.13</ele>
        <time>2011-08-12T13:48:25Z</time>
      </trkpt>
      <trkpt lat="43.88332" lon="6.58571">
        <ele>1629.09</ele>
        <time>2011-08-12T13:48:28Z</time>
      </trkpt>
      <trkpt lat="43.88329" lon="6.58585">
        <ele>1628.13</ele>
        <time>2011-08-12T13:48:39Z</time>
      </trkpt>
      <trkpt lat="43.88326" lon="6.58593">
        <ele>1629.09</ele>
        <time>2011-08-12T13:48:50Z</time>
      </trkpt>
      <trkpt lat="43.88322" lon="6.58604">
        <ele>1627.65</ele>
        <time>2011-08-12T13:49:14Z</time>
      </trkpt>
      <trkpt lat="43.8832" lon="6.58612">
        <ele>1626.69</ele>
        <time>2011-08-12T13:49:20Z</time>
      </trkpt>
      <trkpt lat="43.88314" lon="6.58622">
        <ele>1625.73</ele>
        <time>2011-08-12T13:49:32Z</time>
      </trkpt>
      <trkpt lat="43.88312" lon="6.5863">
        <ele>1625.25</ele>
        <time>2011-08-12T13:49:39Z</time>
      </trkpt>
      <trkpt lat="43.8831" lon="6.58648">
        <ele>1623.32</ele>
        <time>2011-08-12T13:49:52Z</time>
      </trkpt>
      <trkpt lat="43.8831" lon="6.58659">
        <ele>1621.88</ele>
        <time>2011-08-12T13:50:01Z</time>
      </trkpt>
      <trkpt lat="43.88308" lon="6.58662">
        <ele>1622.36</ele>
        <time>2011-08-12T13:50:04Z</time>
      </trkpt>
      <trkpt lat="43.88306" lon="6.58674">
        <ele>1621.88</ele>
        <time>2011-08-12T13:50:15Z</time>
      </trkpt>
      <trkpt lat="43.88304" lon="6.58682">
        <ele>1620.44</ele>
        <time>2011-08-12T13:50:25Z</time>
      </trkpt>
      <trkpt lat="43.88304" lon="6.5869">
        <ele>1620.44</ele>
        <time>2011-08-12T13:50:36Z</time>
      </trkpt>
      <trkpt lat="43.88305" lon="6.58693">
        <ele>1620.44</ele>
        <time>2011-08-12T13:50:38Z</time>
      </trkpt>
      <trkpt lat="43.88303" lon="6.58702">
        <ele>1620.92</ele>
        <time>2011-08-12T13:50:45Z</time>
      </trkpt>
      <trkpt lat="43.88298" lon="6.5871">
        <ele>1619.96</ele>
        <time>2011-08-12T13:50:54Z</time>
      </trkpt>
      <trkpt lat="43.88296" lon="6.58714">
        <ele>1620.44</ele>
        <time>2011-08-12T13:51:01Z</time>
      </trkpt>
      <trkpt lat="43.8829" lon="6.58722">
        <ele>1619.96</ele>
        <time>2011-08-12T13:51:12Z</time>
      </trkpt>
      <trkpt lat="43.88289" lon="6.58727">
        <ele>1619</ele>
        <time>2011-08-12T13:51:22Z</time>
      </trkpt>
      <trkpt lat="43.88283" lon="6.58739">
        <ele>1619</ele>
        <time>2011-08-12T13:51:33Z</time>
      </trkpt>
      <trkpt lat="43.88281" lon="6.58752">
        <ele>1618.52</ele>
        <time>2011-08-12T13:51:44Z</time>
      </trkpt>
      <trkpt lat="43.88278" lon="6.58764">
        <ele>1617.56</ele>
        <time>2011-08-12T13:51:55Z</time>
      </trkpt>
      <trkpt lat="43.88276" lon="6.58769">
        <ele>1617.07</ele>
        <time>2011-08-12T13:52:00Z</time>
      </trkpt>
      <trkpt lat="43.88274" lon="6.58781">
        <ele>1616.11</ele>
        <time>2011-08-12T13:52:09Z</time>
      </trkpt>
      <trkpt lat="43.88271" lon="6.58797">
        <ele>1616.11</ele>
        <time>2011-08-12T13:52:22Z</time>
      </trkpt>
      <trkpt lat="43.88271" lon="6.5881">
        <ele>1615.63</ele>
        <time>2011-08-12T13:52:32Z</time>
      </trkpt>
      <trkpt lat="43.88273" lon="6.58821">
        <ele>1614.67</ele>
        <time>2011-08-12T13:52:42Z</time>
      </trkpt>
      <trkpt lat="43.88269" lon="6.58832">
        <ele>1613.23</ele>
        <time>2011-08-12T13:52:53Z</time>
      </trkpt>
      <trkpt lat="43.88265" lon="6.58844">
        <ele>1614.19</ele>
        <time>2011-08-12T13:53:04Z</time>
      </trkpt>
      <trkpt lat="43.88264" lon="6.5885">
        <ele>1613.23</ele>
        <time>2011-08-12T13:53:10Z</time>
      </trkpt>
      <trkpt lat="43.88263" lon="6.58853">
        <ele>1613.23</ele>
        <time>2011-08-12T13:53:12Z</time>
      </trkpt>
      <trkpt lat="43.88261" lon="6.58859">
        <ele>1613.71</ele>
        <time>2011-08-12T13:53:21Z</time>
      </trkpt>
      <trkpt lat="43.88259" lon="6.58865">
        <ele>1613.71</ele>
        <time>2011-08-12T13:53:30Z</time>
      </trkpt>
      <trkpt lat="43.88258" lon="6.58877">
        <ele>1612.75</ele>
        <time>2011-08-12T13:53:41Z</time>
      </trkpt>
      <trkpt lat="43.88258" lon="6.58879">
        <ele>1612.75</ele>
        <time>2011-08-12T13:53:43Z</time>
      </trkpt>
      <trkpt lat="43.88259" lon="6.58885">
        <ele>1612.27</ele>
        <time>2011-08-12T13:53:47Z</time>
      </trkpt>
      <trkpt lat="43.88257" lon="6.58899">
        <ele>1611.31</ele>
        <time>2011-08-12T13:53:59Z</time>
      </trkpt>
      <trkpt lat="43.88253" lon="6.58913">
        <ele>1610.83</ele>
        <time>2011-08-12T13:54:11Z</time>
      </trkpt>
      <trkpt lat="43.88249" lon="6.58925">
        <ele>1610.35</ele>
        <time>2011-08-12T13:54:22Z</time>
      </trkpt>
      <trkpt lat="43.88248" lon="6.58927">
        <ele>1610.83</ele>
        <time>2011-08-12T13:54:24Z</time>
      </trkpt>
      <trkpt lat="43.88246" lon="6.58938">
        <ele>1610.83</ele>
        <time>2011-08-12T13:54:33Z</time>
      </trkpt>
      <trkpt lat="43.88245" lon="6.58948">
        <ele>1611.31</ele>
        <time>2011-08-12T13:54:43Z</time>
      </trkpt>
      <trkpt lat="43.88243" lon="6.58956">
        <ele>1611.79</ele>
        <time>2011-08-12T13:54:51Z</time>
      </trkpt>
      <trkpt lat="43.88238" lon="6.58971">
        <ele>1612.27</ele>
        <time>2011-08-12T13:55:03Z</time>
      </trkpt>
      <trkpt lat="43.88234" lon="6.58985">
        <ele>1612.75</ele>
        <time>2011-08-12T13:55:16Z</time>
      </trkpt>
      <trkpt lat="43.88233" lon="6.58997">
        <ele>1613.23</ele>
        <time>2011-08-12T13:55:25Z</time>
      </trkpt>
      <trkpt lat="43.88232" lon="6.59">
        <ele>1612.27</ele>
        <time>2011-08-12T13:55:28Z</time>
      </trkpt>
      <trkpt lat="43.88231" lon="6.59006">
        <ele>1612.27</ele>
        <time>2011-08-12T13:55:33Z</time>
      </trkpt>
      <trkpt lat="43.88229" lon="6.59014">
        <ele>1611.79</ele>
        <time>2011-08-12T13:55:40Z</time>
      </trkpt>
      <trkpt lat="43.88223" lon="6.59032">
        <ele>1610.35</ele>
        <time>2011-08-12T13:55:54Z</time>
      </trkpt>
      <trkpt lat="43.88222" lon="6.59042">
        <ele>1610.35</ele>
        <time>2011-08-12T13:56:03Z</time>
      </trkpt>
      <trkpt lat="43.8822" lon="6.5905">
        <ele>1609.38</ele>
        <time>2011-08-12T13:56:09Z</time>
      </trkpt>
      <trkpt lat="43.88219" lon="6.59054">
        <ele>1609.86</ele>
        <time>2011-08-12T13:56:12Z</time>
      </trkpt>
      <trkpt lat="43.88219" lon="6.59058">
        <ele>1608.9</ele>
        <time>2011-08-12T13:56:16Z</time>
      </trkpt>
      <trkpt lat="43.88216" lon="6.59072">
        <ele>1608.9</ele>
        <time>2011-08-12T13:56:28Z</time>
      </trkpt>
      <trkpt lat="43.88215" lon="6.59087">
        <ele>1607.94</ele>
        <time>2011-08-12T13:56:39Z</time>
      </trkpt>
      <trkpt lat="43.88215" lon="6.59092">
        <ele>1607.94</ele>
        <time>2011-08-12T13:56:43Z</time>
      </trkpt>
      <trkpt lat="43.88212" lon="6.59099">
        <ele>1607.94</ele>
        <time>2011-08-12T13:56:50Z</time>
      </trkpt>
      <trkpt lat="43.88212" lon="6.59106">
        <ele>1606.98</ele>
        <time>2011-08-12T13:56:55Z</time>
      </trkpt>
      <trkpt lat="43.8821" lon="6.59117">
        <ele>1606.98</ele>
        <time>2011-08-12T13:57:06Z</time>
      </trkpt>
      <trkpt lat="43.88209" lon="6.59119">
        <ele>1606.5</ele>
        <time>2011-08-12T13:57:08Z</time>
      </trkpt>
      <trkpt lat="43.88209" lon="6.59124">
        <ele>1606.5</ele>
        <time>2011-08-12T13:57:11Z</time>
      </trkpt>
      <trkpt lat="43.88207" lon="6.59128">
        <ele>1606.5</ele>
        <time>2011-08-12T13:57:15Z</time>
      </trkpt>
      <trkpt lat="43.88207" lon="6.59131">
        <ele>1606.5</ele>
        <time>2011-08-12T13:57:17Z</time>
      </trkpt>
      <trkpt lat="43.88204" lon="6.59136">
        <ele>1606.98</ele>
        <time>2011-08-12T13:57:29Z</time>
      </trkpt>
      <trkpt lat="43.88203" lon="6.59141">
        <ele>1606.98</ele>
        <time>2011-08-12T13:57:42Z</time>
      </trkpt>
      <trkpt lat="43.88201" lon="6.59151">
        <ele>1606.5</ele>
        <time>2011-08-12T13:57:52Z</time>
      </trkpt>
      <trkpt lat="43.88199" lon="6.59162">
        <ele>1604.58</ele>
        <time>2011-08-12T13:58:02Z</time>
      </trkpt>
      <trkpt lat="43.88199" lon="6.59165">
        <ele>1605.06</ele>
        <time>2011-08-12T13:58:05Z</time>
      </trkpt>
      <trkpt lat="43.88196" lon="6.59177">
        <ele>1605.06</ele>
        <time>2011-08-12T13:58:15Z</time>
      </trkpt>
      <trkpt lat="43.88194" lon="6.59191">
        <ele>1604.1</ele>
        <time>2011-08-12T13:58:25Z</time>
      </trkpt>
      <trkpt lat="43.88191" lon="6.59197">
        <ele>1604.58</ele>
        <time>2011-08-12T13:58:30Z</time>
      </trkpt>
      <trkpt lat="43.8819" lon="6.59204">
        <ele>1604.58</ele>
        <time>2011-08-12T13:58:36Z</time>
      </trkpt>
      <trkpt lat="43.88189" lon="6.59218">
        <ele>1603.62</ele>
        <time>2011-08-12T13:58:49Z</time>
      </trkpt>
      <trkpt lat="43.88189" lon="6.59219">
        <ele>1603.62</ele>
        <time>2011-08-12T13:58:54Z</time>
      </trkpt>
      <trkpt lat="43.88187" lon="6.59226">
        <ele>1604.1</ele>
        <time>2011-08-12T13:59:00Z</time>
      </trkpt>
      <trkpt lat="43.88185" lon="6.59236">
        <ele>1604.1</ele>
        <time>2011-08-12T13:59:10Z</time>
      </trkpt>
      <trkpt lat="43.88184" lon="6.5924">
        <ele>1603.62</ele>
        <time>2011-08-12T13:59:14Z</time>
      </trkpt>
      <trkpt lat="43.88181" lon="6.59255">
        <ele>1604.1</ele>
        <time>2011-08-12T13:59:26Z</time>
      </trkpt>
      <trkpt lat="43.8818" lon="6.5926">
        <ele>1603.14</ele>
        <time>2011-08-12T13:59:30Z</time>
      </trkpt>
      <trkpt lat="43.88181" lon="6.59262">
        <ele>1603.14</ele>
        <time>2011-08-12T13:59:32Z</time>
      </trkpt>
      <trkpt lat="43.88178" lon="6.59275">
        <ele>1604.1</ele>
        <time>2011-08-12T13:59:45Z</time>
      </trkpt>
      <trkpt lat="43.88176" lon="6.59279">
        <ele>1604.58</ele>
        <time>2011-08-12T13:59:56Z</time>
      </trkpt>
      <trkpt lat="43.88174" lon="6.59286">
        <ele>1604.58</ele>
        <time>2011-08-12T14:00:05Z</time>
      </trkpt>
      <trkpt lat="43.88174" lon="6.59295">
        <ele>1605.06</ele>
        <time>2011-08-12T14:00:15Z</time>
      </trkpt>
      <trkpt lat="43.88171" lon="6.59305">
        <ele>1605.54</ele>
        <time>2011-08-12T14:00:26Z</time>
      </trkpt>
      <trkpt lat="43.88169" lon="6.59308">
        <ele>1606.02</ele>
        <time>2011-08-12T14:00:36Z</time>
      </trkpt>
      <trkpt lat="43.88168" lon="6.59312">
        <ele>1606.5</ele>
        <time>2011-08-12T14:00:45Z</time>
      </trkpt>
      <trkpt lat="43.88163" lon="6.59323">
        <ele>1607.46</ele>
        <time>2011-08-12T14:00:57Z</time>
      </trkpt>
      <trkpt lat="43.88162" lon="6.59329">
        <ele>1608.42</ele>
        <time>2011-08-12T14:01:07Z</time>
      </trkpt>
      <trkpt lat="43.88161" lon="6.59339">
        <ele>1608.9</ele>
        <time>2011-08-12T14:01:17Z</time>
      </trkpt>
      <trkpt lat="43.88161" lon="6.59342">
        <ele>1608.42</ele>
        <time>2011-08-12T14:01:27Z</time>
      </trkpt>
      <trkpt lat="43.88159" lon="6.59353">
        <ele>1609.38</ele>
        <time>2011-08-12T14:01:38Z</time>
      </trkpt>
      <trkpt lat="43.88158" lon="6.59357">
        <ele>1608.9</ele>
        <time>2011-08-12T14:01:42Z</time>
      </trkpt>
      <trkpt lat="43.8816" lon="6.59371">
        <ele>1608.42</ele>
        <time>2011-08-12T14:01:54Z</time>
      </trkpt>
      <trkpt lat="43.88159" lon="6.59375">
        <ele>1608.42</ele>
        <time>2011-08-12T14:01:57Z</time>
      </trkpt>
      <trkpt lat="43.88156" lon="6.59389">
        <ele>1607.94</ele>
        <time>2011-08-12T14:02:09Z</time>
      </trkpt>
      <trkpt lat="43.88156" lon="6.59401">
        <ele>1607.46</ele>
        <time>2011-08-12T14:02:19Z</time>
      </trkpt>
      <trkpt lat="43.88154" lon="6.59408">
        <ele>1606.98</ele>
        <time>2011-08-12T14:02:27Z</time>
      </trkpt>
      <trkpt lat="43.88152" lon="6.59416">
        <ele>1606.98</ele>
        <time>2011-08-12T14:02:32Z</time>
      </trkpt>
      <trkpt lat="43.8815" lon="6.59424">
        <ele>1606.98</ele>
        <time>2011-08-12T14:02:40Z</time>
      </trkpt>
      <trkpt lat="43.88148" lon="6.59439">
        <ele>1607.46</ele>
        <time>2011-08-12T14:02:52Z</time>
      </trkpt>
      <trkpt lat="43.88148" lon="6.59445">
        <ele>1606.98</ele>
        <time>2011-08-12T14:02:58Z</time>
      </trkpt>
      <trkpt lat="43.88145" lon="6.59456">
        <ele>1607.94</ele>
        <time>2011-08-12T14:03:09Z</time>
      </trkpt>
      <trkpt lat="43.88141" lon="6.59466">
        <ele>1608.42</ele>
        <time>2011-08-12T14:03:21Z</time>
      </trkpt>
      <trkpt lat="43.88139" lon="6.59476">
        <ele>1608.9</ele>
        <time>2011-08-12T14:03:31Z</time>
      </trkpt>
      <trkpt lat="43.88137" lon="6.59486">
        <ele>1609.86</ele>
        <time>2011-08-12T14:03:42Z</time>
      </trkpt>
      <trkpt lat="43.88136" lon="6.59487">
        <ele>1610.35</ele>
        <time>2011-08-12T14:03:48Z</time>
      </trkpt>
      <trkpt lat="43.88133" lon="6.59495">
        <ele>1610.35</ele>
        <time>2011-08-12T14:03:59Z</time>
      </trkpt>
      <trkpt lat="43.8813" lon="6.59506">
        <ele>1611.79</ele>
        <time>2011-08-12T14:04:11Z</time>
      </trkpt>
      <trkpt lat="43.88129" lon="6.59517">
        <ele>1612.27</ele>
        <time>2011-08-12T14:04:22Z</time>
      </trkpt>
      <trkpt lat="43.88126" lon="6.59527">
        <ele>1612.75</ele>
        <time>2011-08-12T14:04:33Z</time>
      </trkpt>
      <trkpt lat="43.88124" lon="6.59538">
        <ele>1613.23</ele>
        <time>2011-08-12T14:04:44Z</time>
      </trkpt>
      <trkpt lat="43.88125" lon="6.59544">
        <ele>1613.23</ele>
        <time>2011-08-12T14:04:54Z</time>
      </trkpt>
      <trkpt lat="43.88125" lon="6.59543">
        <ele>1611.79</ele>
        <time>2011-08-12T14:05:05Z</time>
      </trkpt>
      <trkpt lat="43.88125" lon="6.59544">
        <ele>1612.27</ele>
        <time>2011-08-12T14:07:11Z</time>
      </trkpt>
      <trkpt lat="43.88125" lon="6.59541">
        <ele>1613.71</ele>
        <time>2011-08-12T14:09:24Z</time>
      </trkpt>
      <trkpt lat="43.88121" lon="6.59543">
        <ele>1615.15</ele>
        <time>2011-08-12T14:09:34Z</time>
      </trkpt>
      <trkpt lat="43.88117" lon="6.59552">
        <ele>1615.63</ele>
        <time>2011-08-12T14:09:46Z</time>
      </trkpt>
      <trkpt lat="43.88116" lon="6.59564">
        <ele>1615.63</ele>
        <time>2011-08-12T14:09:57Z</time>
      </trkpt>
      <trkpt lat="43.88114" lon="6.59571">
        <ele>1615.63</ele>
        <time>2011-08-12T14:10:04Z</time>
      </trkpt>
      <trkpt lat="43.8811" lon="6.59582">
        <ele>1615.63</ele>
        <time>2011-08-12T14:10:16Z</time>
      </trkpt>
      <trkpt lat="43.88108" lon="6.5959">
        <ele>1615.63</ele>
        <time>2011-08-12T14:10:27Z</time>
      </trkpt>
      <trkpt lat="43.88108" lon="6.59598">
        <ele>1616.11</ele>
        <time>2011-08-12T14:10:36Z</time>
      </trkpt>
      <trkpt lat="43.88106" lon="6.59598">
        <ele>1615.63</ele>
        <time>2011-08-12T14:10:53Z</time>
      </trkpt>
      <trkpt lat="43.88105" lon="6.59601">
        <ele>1615.15</ele>
        <time>2011-08-12T14:11:03Z</time>
      </trkpt>
      <trkpt lat="43.88105" lon="6.59601">
        <ele>1615.15</ele>
        <time>2011-08-12T14:12:27Z</time>
      </trkpt>
      <trkpt lat="43.88104" lon="6.59601">
        <ele>1614.67</ele>
        <time>2011-08-12T14:17:24Z</time>
      </trkpt>
      <trkpt lat="43.88104" lon="6.59602">
        <ele>1615.63</ele>
        <time>2011-08-12T14:18:59Z</time>
      </trkpt>
      <trkpt lat="43.88103" lon="6.59603">
        <ele>1617.07</ele>
        <time>2011-08-12T14:20:34Z</time>
      </trkpt>
      <trkpt lat="43.88104" lon="6.59604">
        <ele>1616.59</ele>
        <time>2011-08-12T14:20:47Z</time>
      </trkpt>
      <trkpt lat="43.88103" lon="6.59615">
        <ele>1616.59</ele>
        <time>2011-08-12T14:20:58Z</time>
      </trkpt>
      <trkpt lat="43.88102" lon="6.59625">
        <ele>1616.59</ele>
        <time>2011-08-12T14:21:08Z</time>
      </trkpt>
      <trkpt lat="43.88101" lon="6.59638">
        <ele>1616.11</ele>
        <time>2011-08-12T14:21:20Z</time>
      </trkpt>
      <trkpt lat="43.88101" lon="6.59643">
        <ele>1615.63</ele>
        <time>2011-08-12T14:21:25Z</time>
      </trkpt>
      <trkpt lat="43.881" lon="6.59655">
        <ele>1615.15</ele>
        <time>2011-08-12T14:21:36Z</time>
      </trkpt>
      <trkpt lat="43.88101" lon="6.59663">
        <ele>1614.19</ele>
        <time>2011-08-12T14:21:44Z</time>
      </trkpt>
      <trkpt lat="43.88102" lon="6.59675">
        <ele>1614.19</ele>
        <time>2011-08-12T14:21:55Z</time>
      </trkpt>
      <trkpt lat="43.88101" lon="6.59687">
        <ele>1613.23</ele>
        <time>2011-08-12T14:22:05Z</time>
      </trkpt>
      <trkpt lat="43.88099" lon="6.59698">
        <ele>1614.19</ele>
        <time>2011-08-12T14:22:16Z</time>
      </trkpt>
      <trkpt lat="43.88097" lon="6.59706">
        <ele>1614.67</ele>
        <time>2011-08-12T14:22:25Z</time>
      </trkpt>
      <trkpt lat="43.88094" lon="6.59717">
        <ele>1615.15</ele>
        <time>2011-08-12T14:22:35Z</time>
      </trkpt>
      <trkpt lat="43.88091" lon="6.59725">
        <ele>1615.63</ele>
        <time>2011-08-12T14:22:44Z</time>
      </trkpt>
      <trkpt lat="43.88089" lon="6.5973">
        <ele>1616.11</ele>
        <time>2011-08-12T14:22:54Z</time>
      </trkpt>
      <trkpt lat="43.88089" lon="6.59738">
        <ele>1617.07</ele>
        <time>2011-08-12T14:23:22Z</time>
      </trkpt>
      <trkpt lat="43.88085" lon="6.59747">
        <ele>1617.56</ele>
        <time>2011-08-12T14:23:32Z</time>
      </trkpt>
      <trkpt lat="43.88084" lon="6.59754">
        <ele>1616.59</ele>
        <time>2011-08-12T14:23:53Z</time>
      </trkpt>
      <trkpt lat="43.88082" lon="6.59768">
        <ele>1618.04</ele>
        <time>2011-08-12T14:24:05Z</time>
      </trkpt>
      <trkpt lat="43.88079" lon="6.5978">
        <ele>1618.52</ele>
        <time>2011-08-12T14:24:17Z</time>
      </trkpt>
      <trkpt lat="43.88074" lon="6.5979">
        <ele>1619</ele>
        <time>2011-08-12T14:24:27Z</time>
      </trkpt>
      <trkpt lat="43.88072" lon="6.59797">
        <ele>1619.48</ele>
        <time>2011-08-12T14:24:35Z</time>
      </trkpt>
      <trkpt lat="43.8807" lon="6.59806">
        <ele>1620.44</ele>
        <time>2011-08-12T14:24:44Z</time>
      </trkpt>
      <trkpt lat="43.88066" lon="6.59818">
        <ele>1620.44</ele>
        <time>2011-08-12T14:24:55Z</time>
      </trkpt>
      <trkpt lat="43.88061" lon="6.59829">
        <ele>1619.96</ele>
        <time>2011-08-12T14:25:06Z</time>
      </trkpt>
      <trkpt lat="43.88057" lon="6.59842">
        <ele>1620.44</ele>
        <time>2011-08-12T14:25:18Z</time>
      </trkpt>
      <trkpt lat="43.88054" lon="6.59854">
        <ele>1621.4</ele>
        <time>2011-08-12T14:25:29Z</time>
      </trkpt>
      <trkpt lat="43.88051" lon="6.59864">
        <ele>1620.92</ele>
        <time>2011-08-12T14:25:38Z</time>
      </trkpt>
      <trkpt lat="43.88048" lon="6.59877">
        <ele>1620.92</ele>
        <time>2011-08-12T14:25:49Z</time>
      </trkpt>
      <trkpt lat="43.88045" lon="6.59889">
        <ele>1620.92</ele>
        <time>2011-08-12T14:25:59Z</time>
      </trkpt>
      <trkpt lat="43.88041" lon="6.59901">
        <ele>1620.44</ele>
        <time>2011-08-12T14:26:10Z</time>
      </trkpt>
      <trkpt lat="43.88039" lon="6.59915">
        <ele>1620.44</ele>
        <time>2011-08-12T14:26:22Z</time>
      </trkpt>
      <trkpt lat="43.88036" lon="6.59922">
        <ele>1619.96</ele>
        <time>2011-08-12T14:26:28Z</time>
      </trkpt>
      <trkpt lat="43.88035" lon="6.59926">
        <ele>1619.96</ele>
        <time>2011-08-12T14:26:31Z</time>
      </trkpt>
      <trkpt lat="43.88034" lon="6.59942">
        <ele>1619.48</ele>
        <time>2011-08-12T14:26:43Z</time>
      </trkpt>
      <trkpt lat="43.88029" lon="6.59957">
        <ele>1620.44</ele>
        <time>2011-08-12T14:26:56Z</time>
      </trkpt>
      <trkpt lat="43.88029" lon="6.59958">
        <ele>1620.44</ele>
        <time>2011-08-12T14:26:57Z</time>
      </trkpt>
      <trkpt lat="43.88028" lon="6.59963">
        <ele>1620.44</ele>
        <time>2011-08-12T14:27:01Z</time>
      </trkpt>
      <trkpt lat="43.88023" lon="6.59981">
        <ele>1620.92</ele>
        <time>2011-08-12T14:27:15Z</time>
      </trkpt>
      <trkpt lat="43.88018" lon="6.59991">
        <ele>1622.36</ele>
        <time>2011-08-12T14:27:25Z</time>
      </trkpt>
      <trkpt lat="43.88014" lon="6.60005">
        <ele>1623.32</ele>
        <time>2011-08-12T14:27:38Z</time>
      </trkpt>
      <trkpt lat="43.88009" lon="6.60016">
        <ele>1623.8</ele>
        <time>2011-08-12T14:27:49Z</time>
      </trkpt>
      <trkpt lat="43.88006" lon="6.6003">
        <ele>1622.84</ele>
        <time>2011-08-12T14:28:01Z</time>
      </trkpt>
      <trkpt lat="43.88001" lon="6.60041">
        <ele>1623.32</ele>
        <time>2011-08-12T14:28:11Z</time>
      </trkpt>
      <trkpt lat="43.87998" lon="6.60054">
        <ele>1622.36</ele>
        <time>2011-08-12T14:28:22Z</time>
      </trkpt>
      <trkpt lat="43.87995" lon="6.60059">
        <ele>1622.84</ele>
        <time>2011-08-12T14:28:27Z</time>
      </trkpt>
      <trkpt lat="43.8799" lon="6.60071">
        <ele>1622.36</ele>
        <time>2011-08-12T14:28:39Z</time>
      </trkpt>
      <trkpt lat="43.87989" lon="6.60074">
        <ele>1622.84</ele>
        <time>2011-08-12T14:28:51Z</time>
      </trkpt>
      <trkpt lat="43.87986" lon="6.60081">
        <ele>1622.36</ele>
        <time>2011-08-12T14:29:01Z</time>
      </trkpt>
      <trkpt lat="43.87983" lon="6.60091">
        <ele>1621.88</ele>
        <time>2011-08-12T14:29:12Z</time>
      </trkpt>
      <trkpt lat="43.87982" lon="6.60101">
        <ele>1620.92</ele>
        <time>2011-08-12T14:29:22Z</time>
      </trkpt>
      <trkpt lat="43.8798" lon="6.60114">
        <ele>1619.48</ele>
        <time>2011-08-12T14:29:35Z</time>
      </trkpt>
      <trkpt lat="43.87979" lon="6.60121">
        <ele>1618.52</ele>
        <time>2011-08-12T14:29:39Z</time>
      </trkpt>
      <trkpt lat="43.87978" lon="6.60135">
        <ele>1617.56</ele>
        <time>2011-08-12T14:29:50Z</time>
      </trkpt>
      <trkpt lat="43.87977" lon="6.60153">
        <ele>1616.59</ele>
        <time>2011-08-12T14:30:02Z</time>
      </trkpt>
      <trkpt lat="43.87975" lon="6.60169">
        <ele>1615.63</ele>
        <time>2011-08-12T14:30:15Z</time>
      </trkpt>
      <trkpt lat="43.87973" lon="6.60192">
        <ele>1615.15</ele>
        <time>2011-08-12T14:30:31Z</time>
      </trkpt>
      <trkpt lat="43.87972" lon="6.60207">
        <ele>1615.15</ele>
        <time>2011-08-12T14:30:43Z</time>
      </trkpt>
      <trkpt lat="43.8797" lon="6.60218">
        <ele>1616.59</ele>
        <time>2011-08-12T14:30:55Z</time>
      </trkpt>
      <trkpt lat="43.87965" lon="6.60227">
        <ele>1617.07</ele>
        <time>2011-08-12T14:31:05Z</time>
      </trkpt>
      <trkpt lat="43.87961" lon="6.60233">
        <ele>1617.07</ele>
        <time>2011-08-12T14:31:11Z</time>
      </trkpt>
      <trkpt lat="43.87952" lon="6.6024">
        <ele>1618.04</ele>
        <time>2011-08-12T14:31:22Z</time>
      </trkpt>
      <trkpt lat="43.8795" lon="6.60242">
        <ele>1617.56</ele>
        <time>2011-08-12T14:31:24Z</time>
      </trkpt>
      <trkpt lat="43.87948" lon="6.60243">
        <ele>1618.52</ele>
        <time>2011-08-12T14:31:26Z</time>
      </trkpt>
      <trkpt lat="43.87944" lon="6.60257">
        <ele>1618.52</ele>
        <time>2011-08-12T14:31:38Z</time>
      </trkpt>
      <trkpt lat="43.87939" lon="6.60271">
        <ele>1619</ele>
        <time>2011-08-12T14:31:50Z</time>
      </trkpt>
      <trkpt lat="43.87938" lon="6.60273">
        <ele>1619.48</ele>
        <time>2011-08-12T14:31:52Z</time>
      </trkpt>
      <trkpt lat="43.87933" lon="6.60281">
        <ele>1618.52</ele>
        <time>2011-08-12T14:32:00Z</time>
      </trkpt>
      <trkpt lat="43.87931" lon="6.60289">
        <ele>1619.48</ele>
        <time>2011-08-12T14:32:07Z</time>
      </trkpt>
      <trkpt lat="43.87927" lon="6.60297">
        <ele>1619.96</ele>
        <time>2011-08-12T14:32:15Z</time>
      </trkpt>
      <trkpt lat="43.87925" lon="6.60299">
        <ele>1619.48</ele>
        <time>2011-08-12T14:32:17Z</time>
      </trkpt>
      <trkpt lat="43.87922" lon="6.60306">
        <ele>1620.44</ele>
        <time>2011-08-12T14:32:24Z</time>
      </trkpt>
      <trkpt lat="43.8792" lon="6.60308">
        <ele>1620.44</ele>
        <time>2011-08-12T14:32:27Z</time>
      </trkpt>
      <trkpt lat="43.87916" lon="6.60313">
        <ele>1620.44</ele>
        <time>2011-08-12T14:32:33Z</time>
      </trkpt>
      <trkpt lat="43.87916" lon="6.60315">
        <ele>1620.44</ele>
        <time>2011-08-12T14:32:35Z</time>
      </trkpt>
      <trkpt lat="43.87909" lon="6.60328">
        <ele>1620.44</ele>
        <time>2011-08-12T14:32:47Z</time>
      </trkpt>
      <trkpt lat="43.87903" lon="6.60338">
        <ele>1620.44</ele>
        <time>2011-08-12T14:32:58Z</time>
      </trkpt>
      <trkpt lat="43.87899" lon="6.60343">
        <ele>1620.44</ele>
        <time>2011-08-12T14:33:04Z</time>
      </trkpt>
      <trkpt lat="43.87891" lon="6.60355">
        <ele>1620.92</ele>
        <time>2011-08-12T14:33:15Z</time>
      </trkpt>
      <trkpt lat="43.87887" lon="6.60365">
        <ele>1622.36</ele>
        <time>2011-08-12T14:33:25Z</time>
      </trkpt>
      <trkpt lat="43.87883" lon="6.60376">
        <ele>1622.84</ele>
        <time>2011-08-12T14:33:35Z</time>
      </trkpt>
      <trkpt lat="43.87881" lon="6.6038">
        <ele>1622.84</ele>
        <time>2011-08-12T14:33:40Z</time>
      </trkpt>
      <trkpt lat="43.8788" lon="6.60381">
        <ele>1622.84</ele>
        <time>2011-08-12T14:33:42Z</time>
      </trkpt>
      <trkpt lat="43.87875" lon="6.60393">
        <ele>1623.8</ele>
        <time>2011-08-12T14:33:54Z</time>
      </trkpt>
      <trkpt lat="43.87869" lon="6.60404">
        <ele>1624.28</ele>
        <time>2011-08-12T14:34:05Z</time>
      </trkpt>
      <trkpt lat="43.87862" lon="6.60414">
        <ele>1624.77</ele>
        <time>2011-08-12T14:34:17Z</time>
      </trkpt>
      <trkpt lat="43.87857" lon="6.60422">
        <ele>1625.73</ele>
        <time>2011-08-12T14:34:26Z</time>
      </trkpt>
      <trkpt lat="43.87852" lon="6.60433">
        <ele>1626.21</ele>
        <time>2011-08-12T14:34:37Z</time>
      </trkpt>
      <trkpt lat="43.87845" lon="6.60443">
        <ele>1627.17</ele>
        <time>2011-08-12T14:34:49Z</time>
      </trkpt>
      <trkpt lat="43.87837" lon="6.60452">
        <ele>1628.61</ele>
        <time>2011-08-12T14:35:00Z</time>
      </trkpt>
      <trkpt lat="43.87835" lon="6.60456">
        <ele>1628.61</ele>
        <time>2011-08-12T14:35:05Z</time>
      </trkpt>
      <trkpt lat="43.87828" lon="6.60469">
        <ele>1629.09</ele>
        <time>2011-08-12T14:35:18Z</time>
      </trkpt>
      <trkpt lat="43.87823" lon="6.60477">
        <ele>1629.09</ele>
        <time>2011-08-12T14:35:27Z</time>
      </trkpt>
      <trkpt lat="43.87819" lon="6.60485">
        <ele>1629.57</ele>
        <time>2011-08-12T14:35:39Z</time>
      </trkpt>
      <trkpt lat="43.87818" lon="6.60489">
        <ele>1629.57</ele>
        <time>2011-08-12T14:35:53Z</time>
      </trkpt>
      <trkpt lat="43.8782" lon="6.60501">
        <ele>1631.01</ele>
        <time>2011-08-12T14:36:06Z</time>
      </trkpt>
      <trkpt lat="43.8782" lon="6.60511">
        <ele>1630.05</ele>
        <time>2011-08-12T14:36:16Z</time>
      </trkpt>
      <trkpt lat="43.8782" lon="6.60522">
        <ele>1630.05</ele>
        <time>2011-08-12T14:36:27Z</time>
      </trkpt>
      <trkpt lat="43.87816" lon="6.60534">
        <ele>1628.13</ele>
        <time>2011-08-12T14:36:38Z</time>
      </trkpt>
      <trkpt lat="43.87813" lon="6.60546">
        <ele>1627.65</ele>
        <time>2011-08-12T14:36:50Z</time>
      </trkpt>
      <trkpt lat="43.87818" lon="6.60554">
        <ele>1626.69</ele>
        <time>2011-08-12T14:37:01Z</time>
      </trkpt>
      <trkpt lat="43.87825" lon="6.6056">
        <ele>1624.77</ele>
        <time>2011-08-12T14:37:13Z</time>
      </trkpt>
      <trkpt lat="43.87828" lon="6.60567">
        <ele>1623.32</ele>
        <time>2011-08-12T14:37:25Z</time>
      </trkpt>
      <trkpt lat="43.87825" lon="6.60575">
        <ele>1622.84</ele>
        <time>2011-08-12T14:37:34Z</time>
      </trkpt>
      <trkpt lat="43.87821" lon="6.6058">
        <ele>1620.92</ele>
        <time>2011-08-12T14:37:44Z</time>
      </trkpt>
      <trkpt lat="43.87818" lon="6.60585">
        <ele>1619.96</ele>
        <time>2011-08-12T14:37:53Z</time>
      </trkpt>
      <trkpt lat="43.87818" lon="6.60585">
        <ele>1619.48</ele>
        <time>2011-08-12T14:38:10Z</time>
      </trkpt>
      <trkpt lat="43.87815" lon="6.60587">
        <ele>1618.52</ele>
        <time>2011-08-12T14:38:21Z</time>
      </trkpt>
      <trkpt lat="43.87815" lon="6.60587">
        <ele>1617.07</ele>
        <time>2011-08-12T14:38:30Z</time>
      </trkpt>
      <trkpt lat="43.87815" lon="6.60587">
        <ele>1617.07</ele>
        <time>2011-08-12T14:38:40Z</time>
      </trkpt>
      <trkpt lat="43.87821" lon="6.60598">
        <ele>1616.11</ele>
        <time>2011-08-12T14:38:51Z</time>
      </trkpt>
      <trkpt lat="43.87822" lon="6.60603">
        <ele>1615.15</ele>
        <time>2011-08-12T14:38:54Z</time>
      </trkpt>
      <trkpt lat="43.87814" lon="6.60609">
        <ele>1614.19</ele>
        <time>2011-08-12T14:39:05Z</time>
      </trkpt>
      <trkpt lat="43.87818" lon="6.60615">
        <ele>1612.75</ele>
        <time>2011-08-12T14:39:16Z</time>
      </trkpt>
      <trkpt lat="43.87819" lon="6.60616">
        <ele>1612.27</ele>
        <time>2011-08-12T14:39:17Z</time>
      </trkpt>
      <trkpt lat="43.87825" lon="6.60628">
        <ele>1611.31</ele>
        <time>2011-08-12T14:39:30Z</time>
      </trkpt>
      <trkpt lat="43.87829" lon="6.60636">
        <ele>1610.35</ele>
        <time>2011-08-12T14:39:41Z</time>
      </trkpt>
      <trkpt lat="43.87833" lon="6.60645">
        <ele>1608.9</ele>
        <time>2011-08-12T14:39:53Z</time>
      </trkpt>
      <trkpt lat="43.8783" lon="6.60651">
        <ele>1607.46</ele>
        <time>2011-08-12T14:40:03Z</time>
      </trkpt>
      <trkpt lat="43.87826" lon="6.60655">
        <ele>1606.5</ele>
        <time>2011-08-12T14:40:12Z</time>
      </trkpt>
      <trkpt lat="43.87823" lon="6.60659">
        <ele>1603.62</ele>
        <time>2011-08-12T14:40:24Z</time>
      </trkpt>
      <trkpt lat="43.87825" lon="6.60666">
        <ele>1603.14</ele>
        <time>2011-08-12T14:40:35Z</time>
      </trkpt>
      <trkpt lat="43.87825" lon="6.60672">
        <ele>1601.69</ele>
        <time>2011-08-12T14:40:44Z</time>
      </trkpt>
      <trkpt lat="43.87824" lon="6.60673">
        <ele>1601.21</ele>
        <time>2011-08-12T14:40:45Z</time>
      </trkpt>
      <trkpt lat="43.87821" lon="6.6068">
        <ele>1599.29</ele>
        <time>2011-08-12T14:40:54Z</time>
      </trkpt>
      <trkpt lat="43.87825" lon="6.6069">
        <ele>1598.81</ele>
        <time>2011-08-12T14:41:06Z</time>
      </trkpt>
      <trkpt lat="43.87824" lon="6.60698">
        <ele>1597.85</ele>
        <time>2011-08-12T14:41:12Z</time>
      </trkpt>
      <trkpt lat="43.87822" lon="6.60717">
        <ele>1597.37</ele>
        <time>2011-08-12T14:41:25Z</time>
      </trkpt>
      <trkpt lat="43.87821" lon="6.60722">
        <ele>1597.37</ele>
        <time>2011-08-12T14:41:29Z</time>
      </trkpt>
      <trkpt lat="43.87817" lon="6.6074">
        <ele>1598.33</ele>
        <time>2011-08-12T14:41:42Z</time>
      </trkpt>
      <trkpt lat="43.87812" lon="6.60756">
        <ele>1599.29</ele>
        <time>2011-08-12T14:41:55Z</time>
      </trkpt>
      <trkpt lat="43.87808" lon="6.6077">
        <ele>1599.77</ele>
        <time>2011-08-12T14:42:06Z</time>
      </trkpt>
      <trkpt lat="43.87803" lon="6.60787">
        <ele>1598.81</ele>
        <time>2011-08-12T14:42:19Z</time>
      </trkpt>
      <trkpt lat="43.87802" lon="6.60802">
        <ele>1598.33</ele>
        <time>2011-08-12T14:42:30Z</time>
      </trkpt>
      <trkpt lat="43.87799" lon="6.60809">
        <ele>1598.33</ele>
        <time>2011-08-12T14:42:36Z</time>
      </trkpt>
      <trkpt lat="43.87794" lon="6.60823">
        <ele>1596.89</ele>
        <time>2011-08-12T14:42:48Z</time>
      </trkpt>
      <trkpt lat="43.8779" lon="6.60835">
        <ele>1595.45</ele>
        <time>2011-08-12T14:42:57Z</time>
      </trkpt>
      <trkpt lat="43.87785" lon="6.60844">
        <ele>1594.96</ele>
        <time>2011-08-12T14:43:06Z</time>
      </trkpt>
      <trkpt lat="43.87783" lon="6.60858">
        <ele>1593.52</ele>
        <time>2011-08-12T14:43:18Z</time>
      </trkpt>
      <trkpt lat="43.87777" lon="6.60876">
        <ele>1592.08</ele>
        <time>2011-08-12T14:43:32Z</time>
      </trkpt>
      <trkpt lat="43.87775" lon="6.60887">
        <ele>1591.12</ele>
        <time>2011-08-12T14:43:41Z</time>
      </trkpt>
      <trkpt lat="43.87773" lon="6.60905">
        <ele>1591.6</ele>
        <time>2011-08-12T14:43:55Z</time>
      </trkpt>
      <trkpt lat="43.87771" lon="6.60924">
        <ele>1592.08</ele>
        <time>2011-08-12T14:44:09Z</time>
      </trkpt>
      <trkpt lat="43.8777" lon="6.60937">
        <ele>1593.04</ele>
        <time>2011-08-12T14:44:19Z</time>
      </trkpt>
      <trkpt lat="43.8777" lon="6.60951">
        <ele>1593.52</ele>
        <time>2011-08-12T14:44:31Z</time>
      </trkpt>
      <trkpt lat="43.87769" lon="6.60953">
        <ele>1594.48</ele>
        <time>2011-08-12T14:44:33Z</time>
      </trkpt>
      <trkpt lat="43.87767" lon="6.60966">
        <ele>1595.93</ele>
        <time>2011-08-12T14:44:45Z</time>
      </trkpt>
      <trkpt lat="43.87765" lon="6.60976">
        <ele>1596.41</ele>
        <time>2011-08-12T14:44:56Z</time>
      </trkpt>
      <trkpt lat="43.87765" lon="6.60987">
        <ele>1598.81</ele>
        <time>2011-08-12T14:45:08Z</time>
      </trkpt>
      <trkpt lat="43.87764" lon="6.60995">
        <ele>1599.29</ele>
        <time>2011-08-12T14:45:18Z</time>
      </trkpt>
      <trkpt lat="43.87762" lon="6.61006">
        <ele>1600.25</ele>
        <time>2011-08-12T14:45:30Z</time>
      </trkpt>
      <trkpt lat="43.87762" lon="6.61015">
        <ele>1602.17</ele>
        <time>2011-08-12T14:45:40Z</time>
      </trkpt>
      <trkpt lat="43.87761" lon="6.61021">
        <ele>1603.62</ele>
        <time>2011-08-12T14:45:48Z</time>
      </trkpt>
      <trkpt lat="43.87759" lon="6.61032">
        <ele>1605.06</ele>
        <time>2011-08-12T14:46:00Z</time>
      </trkpt>
      <trkpt lat="43.87755" lon="6.61041">
        <ele>1606.98</ele>
        <time>2011-08-12T14:46:13Z</time>
      </trkpt>
      <trkpt lat="43.87755" lon="6.61049">
        <ele>1607.94</ele>
        <time>2011-08-12T14:46:23Z</time>
      </trkpt>
      <trkpt lat="43.87754" lon="6.61057">
        <ele>1609.38</ele>
        <time>2011-08-12T14:46:35Z</time>
      </trkpt>
      <trkpt lat="43.87754" lon="6.61063">
        <ele>1610.83</ele>
        <time>2011-08-12T14:46:45Z</time>
      </trkpt>
      <trkpt lat="43.87754" lon="6.6107">
        <ele>1611.79</ele>
        <time>2011-08-12T14:47:00Z</time>
      </trkpt>
      <trkpt lat="43.87755" lon="6.61081">
        <ele>1613.23</ele>
        <time>2011-08-12T14:47:14Z</time>
      </trkpt>
      <trkpt lat="43.87756" lon="6.61091">
        <ele>1614.19</ele>
        <time>2011-08-12T14:47:26Z</time>
      </trkpt>
      <trkpt lat="43.87757" lon="6.61101">
        <ele>1616.59</ele>
        <time>2011-08-12T14:47:40Z</time>
      </trkpt>
      <trkpt lat="43.87758" lon="6.6111">
        <ele>1617.07</ele>
        <time>2011-08-12T14:47:50Z</time>
      </trkpt>
      <trkpt lat="43.87758" lon="6.61121">
        <ele>1618.52</ele>
        <time>2011-08-12T14:48:01Z</time>
      </trkpt>
      <trkpt lat="43.8776" lon="6.61129">
        <ele>1619.96</ele>
        <time>2011-08-12T14:48:12Z</time>
      </trkpt>
      <trkpt lat="43.87761" lon="6.61138">
        <ele>1620.92</ele>
        <time>2011-08-12T14:48:23Z</time>
      </trkpt>
      <trkpt lat="43.87762" lon="6.61147">
        <ele>1623.32</ele>
        <time>2011-08-12T14:48:34Z</time>
      </trkpt>
      <trkpt lat="43.87763" lon="6.61156">
        <ele>1624.28</ele>
        <time>2011-08-12T14:48:46Z</time>
      </trkpt>
      <trkpt lat="43.87765" lon="6.61165">
        <ele>1624.77</ele>
        <time>2011-08-12T14:48:56Z</time>
      </trkpt>
      <trkpt lat="43.87767" lon="6.61178">
        <ele>1626.21</ele>
        <time>2011-08-12T14:49:08Z</time>
      </trkpt>
      <trkpt lat="43.87767" lon="6.61179">
        <ele>1624.77</ele>
        <time>2011-08-12T14:49:45Z</time>
      </trkpt>
      <trkpt lat="43.87767" lon="6.61179">
        <ele>1625.25</ele>
        <time>2011-08-12T14:49:55Z</time>
      </trkpt>
      <trkpt lat="43.87766" lon="6.61179">
        <ele>1625.73</ele>
        <time>2011-08-12T14:50:17Z</time>
      </trkpt>
      <trkpt lat="43.87767" lon="6.61184">
        <ele>1626.69</ele>
        <time>2011-08-12T14:50:27Z</time>
      </trkpt>
      <trkpt lat="43.87769" lon="6.61196">
        <ele>1627.17</ele>
        <time>2011-08-12T14:50:39Z</time>
      </trkpt>
      <trkpt lat="43.87772" lon="6.61207">
        <ele>1627.17</ele>
        <time>2011-08-12T14:50:50Z</time>
      </trkpt>
      <trkpt lat="43.87774" lon="6.6122">
        <ele>1627.17</ele>
        <time>2011-08-12T14:51:02Z</time>
      </trkpt>
      <trkpt lat="43.87774" lon="6.61232">
        <ele>1627.65</ele>
        <time>2011-08-12T14:51:13Z</time>
      </trkpt>
      <trkpt lat="43.87774" lon="6.61243">
        <ele>1627.65</ele>
        <time>2011-08-12T14:51:24Z</time>
      </trkpt>
      <trkpt lat="43.87774" lon="6.61252">
        <ele>1627.65</ele>
        <time>2011-08-12T14:51:35Z</time>
      </trkpt>
      <trkpt lat="43.87777" lon="6.61264">
        <ele>1627.65</ele>
        <time>2011-08-12T14:51:47Z</time>
      </trkpt>
      <trkpt lat="43.87779" lon="6.61272">
        <ele>1627.17</ele>
        <time>2011-08-12T14:51:58Z</time>
      </trkpt>
      <trkpt lat="43.87783" lon="6.61282">
        <ele>1628.13</ele>
        <time>2011-08-12T14:52:10Z</time>
      </trkpt>
      <trkpt lat="43.8779" lon="6.61296">
        <ele>1628.61</ele>
        <time>2011-08-12T14:52:24Z</time>
      </trkpt>
      <trkpt lat="43.87793" lon="6.61301">
        <ele>1628.61</ele>
        <time>2011-08-12T14:52:34Z</time>
      </trkpt>
      <trkpt lat="43.87797" lon="6.61307">
        <ele>1628.13</ele>
        <time>2011-08-12T14:52:49Z</time>
      </trkpt>
      <trkpt lat="43.87804" lon="6.61317">
        <ele>1627.65</ele>
        <time>2011-08-12T14:53:00Z</time>
      </trkpt>
      <trkpt lat="43.8781" lon="6.61331">
        <ele>1627.17</ele>
        <time>2011-08-12T14:53:13Z</time>
      </trkpt>
      <trkpt lat="43.87814" lon="6.61342">
        <ele>1628.13</ele>
        <time>2011-08-12T14:53:24Z</time>
      </trkpt>
      <trkpt lat="43.87815" lon="6.61352">
        <ele>1629.09</ele>
        <time>2011-08-12T14:53:33Z</time>
      </trkpt>
      <trkpt lat="43.87817" lon="6.61362">
        <ele>1630.05</ele>
        <time>2011-08-12T14:53:43Z</time>
      </trkpt>
      <trkpt lat="43.87818" lon="6.6137">
        <ele>1632.46</ele>
        <time>2011-08-12T14:53:52Z</time>
      </trkpt>
      <trkpt lat="43.87821" lon="6.61378">
        <ele>1631.98</ele>
        <time>2011-08-12T14:54:03Z</time>
      </trkpt>
      <trkpt lat="43.87824" lon="6.61389">
        <ele>1634.86</ele>
        <time>2011-08-12T14:54:13Z</time>
      </trkpt>
      <trkpt lat="43.87824" lon="6.6139">
        <ele>1634.86</ele>
        <time>2011-08-12T14:54:14Z</time>
      </trkpt>
      <trkpt lat="43.87825" lon="6.61401">
        <ele>1635.34</ele>
        <time>2011-08-12T14:54:24Z</time>
      </trkpt>
      <trkpt lat="43.87828" lon="6.61412">
        <ele>1636.3</ele>
        <time>2011-08-12T14:54:35Z</time>
      </trkpt>
      <trkpt lat="43.8783" lon="6.61423">
        <ele>1635.82</ele>
        <time>2011-08-12T14:54:46Z</time>
      </trkpt>
      <trkpt lat="43.87833" lon="6.61435">
        <ele>1637.26</ele>
        <time>2011-08-12T14:54:59Z</time>
      </trkpt>
      <trkpt lat="43.87834" lon="6.61446">
        <ele>1638.22</ele>
        <time>2011-08-12T14:55:11Z</time>
      </trkpt>
      <trkpt lat="43.87838" lon="6.61458">
        <ele>1639.67</ele>
        <time>2011-08-12T14:55:25Z</time>
      </trkpt>
      <trkpt lat="43.87837" lon="6.61466">
        <ele>1640.63</ele>
        <time>2011-08-12T14:55:38Z</time>
      </trkpt>
      <trkpt lat="43.87837" lon="6.61468">
        <ele>1641.59</ele>
        <time>2011-08-12T14:55:40Z</time>
      </trkpt>
      <trkpt lat="43.87837" lon="6.61477">
        <ele>1642.07</ele>
        <time>2011-08-12T14:55:50Z</time>
      </trkpt>
      <trkpt lat="43.87837" lon="6.61484">
        <ele>1643.99</ele>
        <time>2011-08-12T14:55:59Z</time>
      </trkpt>
      <trkpt lat="43.87836" lon="6.61489">
        <ele>1643.51</ele>
        <time>2011-08-12T14:56:06Z</time>
      </trkpt>
      <trkpt lat="43.87832" lon="6.61496">
        <ele>1644.47</ele>
        <time>2011-08-12T14:56:17Z</time>
      </trkpt>
      <trkpt lat="43.87827" lon="6.61503">
        <ele>1646.4</ele>
        <time>2011-08-12T14:56:27Z</time>
      </trkpt>
      <trkpt lat="43.87826" lon="6.61509">
        <ele>1647.84</ele>
        <time>2011-08-12T14:56:36Z</time>
      </trkpt>
      <trkpt lat="43.87823" lon="6.61515">
        <ele>1647.84</ele>
        <time>2011-08-12T14:56:47Z</time>
      </trkpt>
      <trkpt lat="43.87823" lon="6.61517">
        <ele>1649.28</ele>
        <time>2011-08-12T14:57:02Z</time>
      </trkpt>
      <trkpt lat="43.87826" lon="6.61523">
        <ele>1649.76</ele>
        <time>2011-08-12T14:57:15Z</time>
      </trkpt>
      <trkpt lat="43.87833" lon="6.6153">
        <ele>1652.16</ele>
        <time>2011-08-12T14:57:28Z</time>
      </trkpt>
      <trkpt lat="43.87837" lon="6.61538">
        <ele>1654.09</ele>
        <time>2011-08-12T14:57:39Z</time>
      </trkpt>
      <trkpt lat="43.87841" lon="6.61544">
        <ele>1656.01</ele>
        <time>2011-08-12T14:57:51Z</time>
      </trkpt>
      <trkpt lat="43.87841" lon="6.61546">
        <ele>1656.49</ele>
        <time>2011-08-12T14:58:11Z</time>
      </trkpt>
      <trkpt lat="43.87843" lon="6.61551">
        <ele>1657.93</ele>
        <time>2011-08-12T14:58:22Z</time>
      </trkpt>
      <trkpt lat="43.87844" lon="6.61557">
        <ele>1659.37</ele>
        <time>2011-08-12T14:58:32Z</time>
      </trkpt>
      <trkpt lat="43.87843" lon="6.6156">
        <ele>1660.81</ele>
        <time>2011-08-12T14:58:41Z</time>
      </trkpt>
      <trkpt lat="43.87843" lon="6.61562">
        <ele>1662.26</ele>
        <time>2011-08-12T14:58:51Z</time>
      </trkpt>
      <trkpt lat="43.87846" lon="6.61568">
        <ele>1663.7</ele>
        <time>2011-08-12T14:59:12Z</time>
      </trkpt>
      <trkpt lat="43.87842" lon="6.61572">
        <ele>1667.54</ele>
        <time>2011-08-12T14:59:22Z</time>
      </trkpt>
      <trkpt lat="43.87842" lon="6.61573">
        <ele>1667.54</ele>
        <time>2011-08-12T14:59:23Z</time>
      </trkpt>
      <trkpt lat="43.87843" lon="6.61577">
        <ele>1667.54</ele>
        <time>2011-08-12T14:59:35Z</time>
      </trkpt>
      <trkpt lat="43.87839" lon="6.61578">
        <ele>1670.43</ele>
        <time>2011-08-12T14:59:45Z</time>
      </trkpt>
      <trkpt lat="43.87835" lon="6.61579">
        <ele>1672.35</ele>
        <time>2011-08-12T14:59:55Z</time>
      </trkpt>
      <trkpt lat="43.87834" lon="6.61586">
        <ele>1670.43</ele>
        <time>2011-08-12T15:00:06Z</time>
      </trkpt>
      <trkpt lat="43.87831" lon="6.61591">
        <ele>1673.79</ele>
        <time>2011-08-12T15:00:17Z</time>
      </trkpt>
      <trkpt lat="43.8783" lon="6.61599">
        <ele>1673.31</ele>
        <time>2011-08-12T15:00:28Z</time>
      </trkpt>
      <trkpt lat="43.8783" lon="6.61609">
        <ele>1674.75</ele>
        <time>2011-08-12T15:00:40Z</time>
      </trkpt>
      <trkpt lat="43.87831" lon="6.61618">
        <ele>1675.72</ele>
        <time>2011-08-12T15:00:52Z</time>
      </trkpt>
      <trkpt lat="43.87834" lon="6.61626">
        <ele>1677.16</ele>
        <time>2011-08-12T15:01:03Z</time>
      </trkpt>
      <trkpt lat="43.87836" lon="6.61634">
        <ele>1678.6</ele>
        <time>2011-08-12T15:01:15Z</time>
      </trkpt>
      <trkpt lat="43.87838" lon="6.61644">
        <ele>1680.04</ele>
        <time>2011-08-12T15:01:27Z</time>
      </trkpt>
      <trkpt lat="43.8784" lon="6.61651">
        <ele>1681.48</ele>
        <time>2011-08-12T15:01:38Z</time>
      </trkpt>
      <trkpt lat="43.87841" lon="6.61661">
        <ele>1681.48</ele>
        <time>2011-08-12T15:01:48Z</time>
      </trkpt>
      <trkpt lat="43.87842" lon="6.61674">
        <ele>1682.44</ele>
        <time>2011-08-12T15:02:00Z</time>
      </trkpt>
      <trkpt lat="43.87845" lon="6.61684">
        <ele>1682.44</ele>
        <time>2011-08-12T15:02:11Z</time>
      </trkpt>
      <trkpt lat="43.87849" lon="6.61697">
        <ele>1682.93</ele>
        <time>2011-08-12T15:02:23Z</time>
      </trkpt>
      <trkpt lat="43.87852" lon="6.6171">
        <ele>1683.41</ele>
        <time>2011-08-12T15:02:35Z</time>
      </trkpt>
      <trkpt lat="43.87855" lon="6.61723">
        <ele>1683.41</ele>
        <time>2011-08-12T15:02:48Z</time>
      </trkpt>
      <trkpt lat="43.87856" lon="6.61734">
        <ele>1682.93</ele>
        <time>2011-08-12T15:03:00Z</time>
      </trkpt>
      <trkpt lat="43.87857" lon="6.6174">
        <ele>1682.44</ele>
        <time>2011-08-12T15:03:12Z</time>
      </trkpt>
      <trkpt lat="43.87858" lon="6.61741">
        <ele>1681.48</ele>
        <time>2011-08-12T15:03:15Z</time>
      </trkpt>
      <trkpt lat="43.87863" lon="6.61748">
        <ele>1681.48</ele>
        <time>2011-08-12T15:03:26Z</time>
      </trkpt>
      <trkpt lat="43.87865" lon="6.61759">
        <ele>1680.52</ele>
        <time>2011-08-12T15:03:36Z</time>
      </trkpt>
      <trkpt lat="43.87868" lon="6.61763">
        <ele>1679.08</ele>
        <time>2011-08-12T15:03:44Z</time>
      </trkpt>
      <trkpt lat="43.87871" lon="6.61767">
        <ele>1679.08</ele>
        <time>2011-08-12T15:03:49Z</time>
      </trkpt>
      <trkpt lat="43.87872" lon="6.61773">
        <ele>1680.52</ele>
        <time>2011-08-12T15:03:59Z</time>
      </trkpt>
      <trkpt lat="43.87876" lon="6.61776">
        <ele>1681.48</ele>
        <time>2011-08-12T15:04:08Z</time>
      </trkpt>
      <trkpt lat="43.87877" lon="6.6178">
        <ele>1681.96</ele>
        <time>2011-08-12T15:04:17Z</time>
      </trkpt>
      <trkpt lat="43.87878" lon="6.61782">
        <ele>1683.41</ele>
        <time>2011-08-12T15:04:27Z</time>
      </trkpt>
      <trkpt lat="43.87878" lon="6.61783">
        <ele>1684.85</ele>
        <time>2011-08-12T15:04:37Z</time>
      </trkpt>
      <trkpt lat="43.87879" lon="6.61783">
        <ele>1685.81</ele>
        <time>2011-08-12T15:04:59Z</time>
      </trkpt>
      <trkpt lat="43.87882" lon="6.61788">
        <ele>1687.73</ele>
        <time>2011-08-12T15:05:06Z</time>
      </trkpt>
      <trkpt lat="43.87884" lon="6.61795">
        <ele>1687.73</ele>
        <time>2011-08-12T15:05:13Z</time>
      </trkpt>
      <trkpt lat="43.87886" lon="6.61797">
        <ele>1689.17</ele>
        <time>2011-08-12T15:05:20Z</time>
      </trkpt>
      <trkpt lat="43.87887" lon="6.6181">
        <ele>1691.1</ele>
        <time>2011-08-12T15:05:32Z</time>
      </trkpt>
      <trkpt lat="43.8789" lon="6.61815">
        <ele>1690.14</ele>
        <time>2011-08-12T15:05:43Z</time>
      </trkpt>
      <trkpt lat="43.87891" lon="6.61816">
        <ele>1690.14</ele>
        <time>2011-08-12T15:05:44Z</time>
      </trkpt>
      <trkpt lat="43.87899" lon="6.61826">
        <ele>1691.1</ele>
        <time>2011-08-12T15:05:57Z</time>
      </trkpt>
      <trkpt lat="43.87902" lon="6.6183">
        <ele>1689.17</ele>
        <time>2011-08-12T15:06:01Z</time>
      </trkpt>
      <trkpt lat="43.87904" lon="6.61833">
        <ele>1690.62</ele>
        <time>2011-08-12T15:06:04Z</time>
      </trkpt>
      <trkpt lat="43.87904" lon="6.61836">
        <ele>1690.62</ele>
        <time>2011-08-12T15:06:29Z</time>
      </trkpt>
      <trkpt lat="43.87904" lon="6.61836">
        <ele>1689.17</ele>
        <time>2011-08-12T15:06:34Z</time>
      </trkpt>
      <trkpt lat="43.879" lon="6.61837">
        <ele>1689.65</ele>
        <time>2011-08-12T15:07:12Z</time>
      </trkpt>
      <trkpt lat="43.87898" lon="6.61845">
        <ele>1688.69</ele>
        <time>2011-08-12T15:07:18Z</time>
      </trkpt>
      <trkpt lat="43.87898" lon="6.61857">
        <ele>1686.29</ele>
        <time>2011-08-12T15:07:34Z</time>
      </trkpt>
      <trkpt lat="43.87893" lon="6.61866">
        <ele>1684.85</ele>
        <time>2011-08-12T15:07:46Z</time>
      </trkpt>
      <trkpt lat="43.87888" lon="6.61872">
        <ele>1682.93</ele>
        <time>2011-08-12T15:07:56Z</time>
      </trkpt>
      <trkpt lat="43.87888" lon="6.61875">
        <ele>1681.96</ele>
        <time>2011-08-12T15:08:00Z</time>
      </trkpt>
      <trkpt lat="43.87886" lon="6.61885">
        <ele>1683.41</ele>
        <time>2011-08-12T15:08:11Z</time>
      </trkpt>
      <trkpt lat="43.87885" lon="6.61888">
        <ele>1681.96</ele>
        <time>2011-08-12T15:08:14Z</time>
      </trkpt>
      <trkpt lat="43.87882" lon="6.61889">
        <ele>1681.48</ele>
        <time>2011-08-12T15:08:19Z</time>
      </trkpt>
      <trkpt lat="43.87868" lon="6.61893">
        <ele>1680.04</ele>
        <time>2011-08-12T15:08:31Z</time>
      </trkpt>
      <trkpt lat="43.87866" lon="6.61894">
        <ele>1679.08</ele>
        <time>2011-08-12T15:08:35Z</time>
      </trkpt>
      <trkpt lat="43.87863" lon="6.61895">
        <ele>1678.12</ele>
        <time>2011-08-12T15:08:51Z</time>
      </trkpt>
      <trkpt lat="43.87858" lon="6.61896">
        <ele>1678.12</ele>
        <time>2011-08-12T15:09:01Z</time>
      </trkpt>
      <trkpt lat="43.87855" lon="6.61896">
        <ele>1677.16</ele>
        <time>2011-08-12T15:09:14Z</time>
      </trkpt>
      <trkpt lat="43.87852" lon="6.61893">
        <ele>1675.23</ele>
        <time>2011-08-12T15:09:27Z</time>
      </trkpt>
      <trkpt lat="43.8784" lon="6.6189">
        <ele>1674.75</ele>
        <time>2011-08-12T15:09:36Z</time>
      </trkpt>
      <trkpt lat="43.87839" lon="6.6189">
        <ele>1674.75</ele>
        <time>2011-08-12T15:09:39Z</time>
      </trkpt>
      <trkpt lat="43.87839" lon="6.61896">
        <ele>1672.83</ele>
        <time>2011-08-12T15:09:56Z</time>
      </trkpt>
      <trkpt lat="43.87839" lon="6.61904">
        <ele>1671.39</ele>
        <time>2011-08-12T15:10:09Z</time>
      </trkpt>
      <trkpt lat="43.87843" lon="6.61921">
        <ele>1669.95</ele>
        <time>2011-08-12T15:10:23Z</time>
      </trkpt>
      <trkpt lat="43.87843" lon="6.61922">
        <ele>1669.95</ele>
        <time>2011-08-12T15:10:24Z</time>
      </trkpt>
      <trkpt lat="43.87847" lon="6.61928">
        <ele>1668.99</ele>
        <time>2011-08-12T15:10:30Z</time>
      </trkpt>
      <trkpt lat="43.87849" lon="6.61944">
        <ele>1666.58</ele>
        <time>2011-08-12T15:10:45Z</time>
      </trkpt>
      <trkpt lat="43.87849" lon="6.61957">
        <ele>1665.14</ele>
        <time>2011-08-12T15:10:57Z</time>
      </trkpt>
      <trkpt lat="43.8785" lon="6.61961">
        <ele>1664.18</ele>
        <time>2011-08-12T15:11:03Z</time>
      </trkpt>
      <trkpt lat="43.8785" lon="6.61967">
        <ele>1663.22</ele>
        <time>2011-08-12T15:11:18Z</time>
      </trkpt>
      <trkpt lat="43.8785" lon="6.61975">
        <ele>1662.74</ele>
        <time>2011-08-12T15:11:31Z</time>
      </trkpt>
      <trkpt lat="43.87851" lon="6.61977">
        <ele>1662.26</ele>
        <time>2011-08-12T15:12:25Z</time>
      </trkpt>
      <trkpt lat="43.87855" lon="6.61982">
        <ele>1662.26</ele>
        <time>2011-08-12T15:12:42Z</time>
      </trkpt>
      <trkpt lat="43.87859" lon="6.61994">
        <ele>1660.33</ele>
        <time>2011-08-12T15:12:54Z</time>
      </trkpt>
      <trkpt lat="43.87858" lon="6.62007">
        <ele>1659.37</ele>
        <time>2011-08-12T15:13:06Z</time>
      </trkpt>
      <trkpt lat="43.87859" lon="6.62021">
        <ele>1656.97</ele>
        <time>2011-08-12T15:13:19Z</time>
      </trkpt>
      <trkpt lat="43.87859" lon="6.62027">
        <ele>1656.01</ele>
        <time>2011-08-12T15:13:24Z</time>
      </trkpt>
      <trkpt lat="43.87859" lon="6.62034">
        <ele>1656.01</ele>
        <time>2011-08-12T15:13:28Z</time>
      </trkpt>
      <trkpt lat="43.87862" lon="6.62043">
        <ele>1654.09</ele>
        <time>2011-08-12T15:13:37Z</time>
      </trkpt>
      <trkpt lat="43.8786" lon="6.62058">
        <ele>1652.64</ele>
        <time>2011-08-12T15:13:51Z</time>
      </trkpt>
      <trkpt lat="43.8786" lon="6.62069">
        <ele>1651.2</ele>
        <time>2011-08-12T15:14:05Z</time>
      </trkpt>
      <trkpt lat="43.87859" lon="6.62085">
        <ele>1650.24</ele>
        <time>2011-08-12T15:14:18Z</time>
      </trkpt>
      <trkpt lat="43.87857" lon="6.62095">
        <ele>1649.28</ele>
        <time>2011-08-12T15:14:27Z</time>
      </trkpt>
      <trkpt lat="43.87856" lon="6.62106">
        <ele>1648.32</ele>
        <time>2011-08-12T15:14:35Z</time>
      </trkpt>
      <trkpt lat="43.87857" lon="6.62116">
        <ele>1648.8</ele>
        <time>2011-08-12T15:14:48Z</time>
      </trkpt>
      <trkpt lat="43.87857" lon="6.62118">
        <ele>1648.32</ele>
        <time>2011-08-12T15:14:49Z</time>
      </trkpt>
      <trkpt lat="43.87858" lon="6.62126">
        <ele>1648.32</ele>
        <time>2011-08-12T15:15:01Z</time>
      </trkpt>
      <trkpt lat="43.87861" lon="6.62138">
        <ele>1648.32</ele>
        <time>2011-08-12T15:15:18Z</time>
      </trkpt>
      <trkpt lat="43.87862" lon="6.62154">
        <ele>1646.4</ele>
        <time>2011-08-12T15:15:31Z</time>
      </trkpt>
      <trkpt lat="43.87863" lon="6.62155">
        <ele>1646.88</ele>
        <time>2011-08-12T15:15:32Z</time>
      </trkpt>
      <trkpt lat="43.87864" lon="6.62155">
        <ele>1646.4</ele>
        <time>2011-08-12T15:15:51Z</time>
      </trkpt>
      <trkpt lat="43.87866" lon="6.62171">
        <ele>1646.4</ele>
        <time>2011-08-12T15:16:04Z</time>
      </trkpt>
      <trkpt lat="43.87868" lon="6.62183">
        <ele>1645.43</ele>
        <time>2011-08-12T15:16:13Z</time>
      </trkpt>
      <trkpt lat="43.87869" lon="6.62191">
        <ele>1644.47</ele>
        <time>2011-08-12T15:16:25Z</time>
      </trkpt>
      <trkpt lat="43.87874" lon="6.62202">
        <ele>1643.51</ele>
        <time>2011-08-12T15:16:38Z</time>
      </trkpt>
      <trkpt lat="43.87877" lon="6.62216">
        <ele>1643.03</ele>
        <time>2011-08-12T15:16:51Z</time>
      </trkpt>
      <trkpt lat="43.87878" lon="6.62218">
        <ele>1643.03</ele>
        <time>2011-08-12T15:16:58Z</time>
      </trkpt>
      <trkpt lat="43.87879" lon="6.62222">
        <ele>1642.07</ele>
        <time>2011-08-12T15:17:01Z</time>
      </trkpt>
      <trkpt lat="43.87881" lon="6.62232">
        <ele>1643.03</ele>
        <time>2011-08-12T15:17:13Z</time>
      </trkpt>
      <trkpt lat="43.87882" lon="6.62238">
        <ele>1642.07</ele>
        <time>2011-08-12T15:17:24Z</time>
      </trkpt>
      <trkpt lat="43.87884" lon="6.62248">
        <ele>1641.11</ele>
        <time>2011-08-12T15:17:34Z</time>
      </trkpt>
      <trkpt lat="43.87883" lon="6.62255">
        <ele>1640.15</ele>
        <time>2011-08-12T15:17:44Z</time>
      </trkpt>
      <trkpt lat="43.87882" lon="6.62265">
        <ele>1638.7</ele>
        <time>2011-08-12T15:17:55Z</time>
      </trkpt>
      <trkpt lat="43.87886" lon="6.62277">
        <ele>1638.22</ele>
        <time>2011-08-12T15:18:07Z</time>
      </trkpt>
      <trkpt lat="43.87888" lon="6.62292">
        <ele>1637.26</ele>
        <time>2011-08-12T15:18:21Z</time>
      </trkpt>
      <trkpt lat="43.87887" lon="6.62306">
        <ele>1635.34</ele>
        <time>2011-08-12T15:18:34Z</time>
      </trkpt>
      <trkpt lat="43.87887" lon="6.62321">
        <ele>1634.86</ele>
        <time>2011-08-12T15:18:46Z</time>
      </trkpt>
      <trkpt lat="43.87887" lon="6.62328">
        <ele>1634.86</ele>
        <time>2011-08-12T15:18:54Z</time>
      </trkpt>
      <trkpt lat="43.87889" lon="6.6234">
        <ele>1633.9</ele>
        <time>2011-08-12T15:19:06Z</time>
      </trkpt>
      <trkpt lat="43.87889" lon="6.62351">
        <ele>1632.94</ele>
        <time>2011-08-12T15:19:19Z</time>
      </trkpt>
      <trkpt lat="43.87889" lon="6.62357">
        <ele>1632.94</ele>
        <time>2011-08-12T15:19:25Z</time>
      </trkpt>
      <trkpt lat="43.87891" lon="6.62372">
        <ele>1631.01</ele>
        <time>2011-08-12T15:19:38Z</time>
      </trkpt>
      <trkpt lat="43.87893" lon="6.62387">
        <ele>1629.57</ele>
        <time>2011-08-12T15:19:50Z</time>
      </trkpt>
      <trkpt lat="43.87894" lon="6.62401">
        <ele>1627.17</ele>
        <time>2011-08-12T15:20:01Z</time>
      </trkpt>
      <trkpt lat="43.87896" lon="6.62417">
        <ele>1625.25</ele>
        <time>2011-08-12T15:20:13Z</time>
      </trkpt>
      <trkpt lat="43.87899" lon="6.62426">
        <ele>1625.25</ele>
        <time>2011-08-12T15:20:21Z</time>
      </trkpt>
      <trkpt lat="43.87906" lon="6.62436">
        <ele>1623.8</ele>
        <time>2011-08-12T15:20:28Z</time>
      </trkpt>
      <trkpt lat="43.87905" lon="6.62442">
        <ele>1623.8</ele>
        <time>2011-08-12T15:20:38Z</time>
      </trkpt>
      <trkpt lat="43.87897" lon="6.62434">
        <ele>1620.92</ele>
        <time>2011-08-12T15:20:50Z</time>
      </trkpt>
      <trkpt lat="43.87888" lon="6.62423">
        <ele>1619.48</ele>
        <time>2011-08-12T15:21:02Z</time>
      </trkpt>
      <trkpt lat="43.87882" lon="6.62413">
        <ele>1618.04</ele>
        <time>2011-08-12T15:21:13Z</time>
      </trkpt>
      <trkpt lat="43.8788" lon="6.62407">
        <ele>1617.56</ele>
        <time>2011-08-12T15:21:19Z</time>
      </trkpt>
      <trkpt lat="43.87873" lon="6.62402">
        <ele>1616.11</ele>
        <time>2011-08-12T15:21:26Z</time>
      </trkpt>
      <trkpt lat="43.87866" lon="6.62389">
        <ele>1614.19</ele>
        <time>2011-08-12T15:21:39Z</time>
      </trkpt>
      <trkpt lat="43.87863" lon="6.62382">
        <ele>1613.71</ele>
        <time>2011-08-12T15:21:50Z</time>
      </trkpt>
      <trkpt lat="43.8786" lon="6.62372">
        <ele>1612.27</ele>
        <time>2011-08-12T15:22:00Z</time>
      </trkpt>
      <trkpt lat="43.87859" lon="6.62365">
        <ele>1612.27</ele>
        <time>2011-08-12T15:22:08Z</time>
      </trkpt>
      <trkpt lat="43.87858" lon="6.62364">
        <ele>1612.27</ele>
        <time>2011-08-12T15:22:11Z</time>
      </trkpt>
      <trkpt lat="43.87856" lon="6.62343">
        <ele>1609.86</ele>
        <time>2011-08-12T15:22:25Z</time>
      </trkpt>
      <trkpt lat="43.87854" lon="6.62328">
        <ele>1607.94</ele>
        <time>2011-08-12T15:22:36Z</time>
      </trkpt>
      <trkpt lat="43.87851" lon="6.62314">
        <ele>1606.5</ele>
        <time>2011-08-12T15:22:47Z</time>
      </trkpt>
      <trkpt lat="43.8785" lon="6.62302">
        <ele>1606.5</ele>
        <time>2011-08-12T15:22:57Z</time>
      </trkpt>
      <trkpt lat="43.87848" lon="6.623">
        <ele>1606.02</ele>
        <time>2011-08-12T15:23:00Z</time>
      </trkpt>
      <trkpt lat="43.87847" lon="6.62295">
        <ele>1606.02</ele>
        <time>2011-08-12T15:23:07Z</time>
      </trkpt>
      <trkpt lat="43.87845" lon="6.62286">
        <ele>1605.54</ele>
        <time>2011-08-12T15:23:14Z</time>
      </trkpt>
      <trkpt lat="43.87843" lon="6.62278">
        <ele>1604.58</ele>
        <time>2011-08-12T15:23:20Z</time>
      </trkpt>
      <trkpt lat="43.87842" lon="6.62273">
        <ele>1603.62</ele>
        <time>2011-08-12T15:23:25Z</time>
      </trkpt>
      <trkpt lat="43.87837" lon="6.62265">
        <ele>1603.62</ele>
        <time>2011-08-12T15:23:34Z</time>
      </trkpt>
      <trkpt lat="43.87832" lon="6.62254">
        <ele>1602.17</ele>
        <time>2011-08-12T15:23:44Z</time>
      </trkpt>
      <trkpt lat="43.87829" lon="6.62242">
        <ele>1599.77</ele>
        <time>2011-08-12T15:23:54Z</time>
      </trkpt>
      <trkpt lat="43.87824" lon="6.62233">
        <ele>1598.33</ele>
        <time>2011-08-12T15:24:04Z</time>
      </trkpt>
      <trkpt lat="43.87823" lon="6.62234">
        <ele>1597.85</ele>
        <time>2011-08-12T15:24:11Z</time>
      </trkpt>
      <trkpt lat="43.87829" lon="6.62247">
        <ele>1596.89</ele>
        <time>2011-08-12T15:24:24Z</time>
      </trkpt>
      <trkpt lat="43.87835" lon="6.6226">
        <ele>1595.93</ele>
        <time>2011-08-12T15:24:36Z</time>
      </trkpt>
      <trkpt lat="43.87835" lon="6.62261">
        <ele>1595.93</ele>
        <time>2011-08-12T15:24:37Z</time>
      </trkpt>
      <trkpt lat="43.87835" lon="6.62266">
        <ele>1595.45</ele>
        <time>2011-08-12T15:24:51Z</time>
      </trkpt>
      <trkpt lat="43.87836" lon="6.62276">
        <ele>1595.45</ele>
        <time>2011-08-12T15:25:03Z</time>
      </trkpt>
      <trkpt lat="43.87835" lon="6.62285">
        <ele>1595.45</ele>
        <time>2011-08-12T15:25:13Z</time>
      </trkpt>
      <trkpt lat="43.87835" lon="6.6229">
        <ele>1594.48</ele>
        <time>2011-08-12T15:25:21Z</time>
      </trkpt>
      <trkpt lat="43.87835" lon="6.62292">
        <ele>1594</ele>
        <time>2011-08-12T15:25:23Z</time>
      </trkpt>
      <trkpt lat="43.87834" lon="6.62296">
        <ele>1594.48</ele>
        <time>2011-08-12T15:25:26Z</time>
      </trkpt>
      <trkpt lat="43.87832" lon="6.62302">
        <ele>1594</ele>
        <time>2011-08-12T15:25:31Z</time>
      </trkpt>
      <trkpt lat="43.8783" lon="6.6231">
        <ele>1592.56</ele>
        <time>2011-08-12T15:25:37Z</time>
      </trkpt>
      <trkpt lat="43.8783" lon="6.62316">
        <ele>1591.6</ele>
        <time>2011-08-12T15:25:42Z</time>
      </trkpt>
      <trkpt lat="43.87828" lon="6.62329">
        <ele>1591.12</ele>
        <time>2011-08-12T15:25:54Z</time>
      </trkpt>
      <trkpt lat="43.87825" lon="6.62341">
        <ele>1589.68</ele>
        <time>2011-08-12T15:26:05Z</time>
      </trkpt>
      <trkpt lat="43.87822" lon="6.62359">
        <ele>1589.2</ele>
        <time>2011-08-12T15:26:17Z</time>
      </trkpt>
      <trkpt lat="43.87815" lon="6.62371">
        <ele>1586.79</ele>
        <time>2011-08-12T15:26:29Z</time>
      </trkpt>
      <trkpt lat="43.8781" lon="6.62378">
        <ele>1585.83</ele>
        <time>2011-08-12T15:26:39Z</time>
      </trkpt>
      <trkpt lat="43.87809" lon="6.62387">
        <ele>1584.39</ele>
        <time>2011-08-12T15:26:52Z</time>
      </trkpt>
      <trkpt lat="43.8781" lon="6.62399">
        <ele>1581.99</ele>
        <time>2011-08-12T15:27:05Z</time>
      </trkpt>
      <trkpt lat="43.87809" lon="6.62407">
        <ele>1581.03</ele>
        <time>2011-08-12T15:27:14Z</time>
      </trkpt>
      <trkpt lat="43.87809" lon="6.62417">
        <ele>1579.58</ele>
        <time>2011-08-12T15:27:26Z</time>
      </trkpt>
      <trkpt lat="43.8781" lon="6.62426">
        <ele>1579.58</ele>
        <time>2011-08-12T15:27:37Z</time>
      </trkpt>
      <trkpt lat="43.87812" lon="6.62438">
        <ele>1578.14</ele>
        <time>2011-08-12T15:27:50Z</time>
      </trkpt>
      <trkpt lat="43.87813" lon="6.62439">
        <ele>1578.14</ele>
        <time>2011-08-12T15:27:57Z</time>
      </trkpt>
      <trkpt lat="43.87816" lon="6.6245">
        <ele>1577.66</ele>
        <time>2011-08-12T15:28:09Z</time>
      </trkpt>
      <trkpt lat="43.87816" lon="6.62452">
        <ele>1577.66</ele>
        <time>2011-08-12T15:28:25Z</time>
      </trkpt>
      <trkpt lat="43.87818" lon="6.6246">
        <ele>1576.22</ele>
        <time>2011-08-12T15:29:18Z</time>
      </trkpt>
      <trkpt lat="43.87819" lon="6.62462">
        <ele>1576.7</ele>
        <time>2011-08-12T15:29:20Z</time>
      </trkpt>
      <trkpt lat="43.87824" lon="6.62476">
        <ele>1574.78</ele>
        <time>2011-08-12T15:29:33Z</time>
      </trkpt>
      <trkpt lat="43.87825" lon="6.62487">
        <ele>1573.33</ele>
        <time>2011-08-12T15:29:44Z</time>
      </trkpt>
      <trkpt lat="43.87827" lon="6.62502">
        <ele>1571.89</ele>
        <time>2011-08-12T15:29:57Z</time>
      </trkpt>
      <trkpt lat="43.87829" lon="6.62513">
        <ele>1570.93</ele>
        <time>2011-08-12T15:30:07Z</time>
      </trkpt>
      <trkpt lat="43.87829" lon="6.62527">
        <ele>1569.49</ele>
        <time>2011-08-12T15:30:20Z</time>
      </trkpt>
      <trkpt lat="43.87831" lon="6.62539">
        <ele>1568.53</ele>
        <time>2011-08-12T15:30:30Z</time>
      </trkpt>
      <trkpt lat="43.8783" lon="6.62549">
        <ele>1568.05</ele>
        <time>2011-08-12T15:30:41Z</time>
      </trkpt>
      <trkpt lat="43.87831" lon="6.62563">
        <ele>1565.64</ele>
        <time>2011-08-12T15:30:52Z</time>
      </trkpt>
      <trkpt lat="43.87832" lon="6.62576">
        <ele>1564.68</ele>
        <time>2011-08-12T15:31:03Z</time>
      </trkpt>
      <trkpt lat="43.87833" lon="6.6259">
        <ele>1563.24</ele>
        <time>2011-08-12T15:31:14Z</time>
      </trkpt>
      <trkpt lat="43.87831" lon="6.62607">
        <ele>1562.28</ele>
        <time>2011-08-12T15:31:26Z</time>
      </trkpt>
      <trkpt lat="43.8783" lon="6.62611">
        <ele>1562.28</ele>
        <time>2011-08-12T15:31:36Z</time>
      </trkpt>
      <trkpt lat="43.87834" lon="6.6261">
        <ele>1560.84</ele>
        <time>2011-08-12T15:31:48Z</time>
      </trkpt>
      <trkpt lat="43.87836" lon="6.62609">
        <ele>1560.36</ele>
        <time>2011-08-12T15:31:51Z</time>
      </trkpt>
      <trkpt lat="43.87843" lon="6.62606">
        <ele>1559.88</ele>
        <time>2011-08-12T15:31:59Z</time>
      </trkpt>
      <trkpt lat="43.87854" lon="6.62594">
        <ele>1556.99</ele>
        <time>2011-08-12T15:32:14Z</time>
      </trkpt>
      <trkpt lat="43.87862" lon="6.62593">
        <ele>1556.03</ele>
        <time>2011-08-12T15:32:26Z</time>
      </trkpt>
      <trkpt lat="43.87871" lon="6.62595">
        <ele>1555.07</ele>
        <time>2011-08-12T15:32:38Z</time>
      </trkpt>
      <trkpt lat="43.87874" lon="6.62593">
        <ele>1555.07</ele>
        <time>2011-08-12T15:32:43Z</time>
      </trkpt>
      <trkpt lat="43.87883" lon="6.62596">
        <ele>1552.19</ele>
        <time>2011-08-12T15:32:56Z</time>
      </trkpt>
      <trkpt lat="43.87885" lon="6.62597">
        <ele>1550.74</ele>
        <time>2011-08-12T15:33:08Z</time>
      </trkpt>
      <trkpt lat="43.87887" lon="6.62598">
        <ele>1550.26</ele>
        <time>2011-08-12T15:33:11Z</time>
      </trkpt>
      <trkpt lat="43.87893" lon="6.62604">
        <ele>1549.3</ele>
        <time>2011-08-12T15:33:18Z</time>
      </trkpt>
      <trkpt lat="43.87913" lon="6.62612">
        <ele>1547.86</ele>
        <time>2011-08-12T15:33:30Z</time>
      </trkpt>
      <trkpt lat="43.87914" lon="6.62614">
        <ele>1547.86</ele>
        <time>2011-08-12T15:33:31Z</time>
      </trkpt>
      <trkpt lat="43.87918" lon="6.62616">
        <ele>1547.86</ele>
        <time>2011-08-12T15:33:35Z</time>
      </trkpt>
      <trkpt lat="43.87928" lon="6.62629">
        <ele>1544.98</ele>
        <time>2011-08-12T15:33:49Z</time>
      </trkpt>
      <trkpt lat="43.87936" lon="6.62641">
        <ele>1543.05</ele>
        <time>2011-08-12T15:34:03Z</time>
      </trkpt>
      <trkpt lat="43.87938" lon="6.62646">
        <ele>1542.57</ele>
        <time>2011-08-12T15:34:07Z</time>
      </trkpt>
      <trkpt lat="43.8794" lon="6.62652">
        <ele>1541.61</ele>
        <time>2011-08-12T15:34:12Z</time>
      </trkpt>
      <trkpt lat="43.87945" lon="6.62665">
        <ele>1540.17</ele>
        <time>2011-08-12T15:34:24Z</time>
      </trkpt>
      <trkpt lat="43.87944" lon="6.62667">
        <ele>1540.17</ele>
        <time>2011-08-12T15:34:26Z</time>
      </trkpt>
      <trkpt lat="43.87944" lon="6.62679">
        <ele>1538.25</ele>
        <time>2011-08-12T15:34:38Z</time>
      </trkpt>
      <trkpt lat="43.87945" lon="6.62691">
        <ele>1536.32</ele>
        <time>2011-08-12T15:34:51Z</time>
      </trkpt>
      <trkpt lat="43.87942" lon="6.62707">
        <ele>1534.88</ele>
        <time>2011-08-12T15:35:03Z</time>
      </trkpt>
      <trkpt lat="43.87942" lon="6.6271">
        <ele>1534.4</ele>
        <time>2011-08-12T15:35:05Z</time>
      </trkpt>
      <trkpt lat="43.87938" lon="6.62734">
        <ele>1532</ele>
        <time>2011-08-12T15:35:17Z</time>
      </trkpt>
      <trkpt lat="43.87938" lon="6.62741">
        <ele>1531.04</ele>
        <time>2011-08-12T15:35:22Z</time>
      </trkpt>
      <trkpt lat="43.87938" lon="6.62758">
        <ele>1531.04</ele>
        <time>2011-08-12T15:35:33Z</time>
      </trkpt>
      <trkpt lat="43.8794" lon="6.62765">
        <ele>1530.08</ele>
        <time>2011-08-12T15:35:44Z</time>
      </trkpt>
      <trkpt lat="43.87943" lon="6.62771">
        <ele>1528.63</ele>
        <time>2011-08-12T15:35:54Z</time>
      </trkpt>
      <trkpt lat="43.87947" lon="6.62778">
        <ele>1528.63</ele>
        <time>2011-08-12T15:36:07Z</time>
      </trkpt>
      <trkpt lat="43.87948" lon="6.62779">
        <ele>1527.67</ele>
        <time>2011-08-12T15:36:09Z</time>
      </trkpt>
      <trkpt lat="43.87956" lon="6.62782">
        <ele>1528.63</ele>
        <time>2011-08-12T15:36:20Z</time>
      </trkpt>
      <trkpt lat="43.87966" lon="6.62785">
        <ele>1529.11</ele>
        <time>2011-08-12T15:36:30Z</time>
      </trkpt>
      <trkpt lat="43.87976" lon="6.62784">
        <ele>1529.59</ele>
        <time>2011-08-12T15:36:41Z</time>
      </trkpt>
      <trkpt lat="43.87983" lon="6.62784">
        <ele>1529.59</ele>
        <time>2011-08-12T15:36:52Z</time>
      </trkpt>
      <trkpt lat="43.87992" lon="6.62789">
        <ele>1529.59</ele>
        <time>2011-08-12T15:37:02Z</time>
      </trkpt>
      <trkpt lat="43.87994" lon="6.6279">
        <ele>1529.59</ele>
        <time>2011-08-12T15:37:12Z</time>
      </trkpt>
      <trkpt lat="43.87994" lon="6.62791">
        <ele>1530.08</ele>
        <time>2011-08-12T15:37:43Z</time>
      </trkpt>
      <trkpt lat="43.88001" lon="6.62793">
        <ele>1530.56</ele>
        <time>2011-08-12T15:37:55Z</time>
      </trkpt>
      <trkpt lat="43.88002" lon="6.62792">
        <ele>1529.59</ele>
        <time>2011-08-12T15:38:07Z</time>
      </trkpt>
      <trkpt lat="43.88002" lon="6.62791">
        <ele>1530.08</ele>
        <time>2011-08-12T15:39:08Z</time>
      </trkpt>
    </trkseg>
  </trk>
</gpx>